[[{"header":{"parameterUnit":"m.s-1","parameterCategory":1,"la1":30.6,"la2":28.766,"lo1":-90.7593,"lo2":-88.6598,"dx":0.0162,"dy":0.0183,"nx":116,"ny":114,"refTime":"2022-12-30T18:00:00:Z","depth":0,"parameterNumber":2,"parameterNumberName":"U-component_of_WINDS"},"data":[0.0,0.0,0.0,0.0,0.0,0.0,0.0,0.0,0.0,0.0,0.0,0.0,0.0,0.0,0.0,0.0,0.0,0.0,0.0,0.0,0.0,0.0,0.0,0.0,0.0,0.0,0.0,0.0,0.0,0.0,0.0,0.0,0.0,0.0,0.0,0.0,0.0,0.0,0.0,0.0,0.0,0.0,0.0,0.0,0.0,0.0,0.0,0.0,0.0,0.0,0.0,0.0,0.0,0.0,0.0,0.0,0.0,0.0,0.0,0.0,0.0,0.0,0.0,0.0,0.0,0.0,0.0,0.0,0.0,0.0,0.0,0.0,0.0,0.0,0.0,0.0,0.0,0.0,0.0,0.0,0.0,0.0,0.0,0.0,0.0,0.0,0.0,0.0,0.0,0.0,0.0,0.0,0.0,0.0,0.0,0.0,0.0,0.0,0.0,0.0,0.0,0.0,0.0,0.0,0.0,0.0,0.0,0.0,0.0,0.0,0.0,0.0,0.0,0.0,0.0,0.0,0.0,0.0,0.0,0.0,0.0,0.0,0.0,0.0,0.0,0.0,0.0,0.0,0.0,0.0,0.0,0.0,0.0,0.0,0.0,0.0,0.0,0.0,0.0,0.0,0.0,0.0,0.0,0.0,0.0,0.0,0.0,0.0,0.0,0.0,0.0,0.0,0.0,0.0,0.0,0.0,0.0,0.0,0.0,0.0,0.0,0.0,0.0,0.0,0.0,0.0,0.0,0.0,0.0,0.0,0.0,0.0,0.0,0.0,0.0,0.0,0.0,0.0,0.0,0.0,0.0,0.0,0.0,0.0,0.0,0.0,0.0,0.0,0.0,0.0,0.0,0.0,0.0,0.0,0.0,0.0,0.0,0.0,0.0,0.0,0.0,0.0,0.0,0.0,0.0,0.0,0.0,0.0,0.0,0.0,0.0,0.0,0.0,0.0,0.0,0.0,0.0,0.0,0.0,0.0,0.0,0.0,0.0,0.0,0.0,0.0,0.0,0.0,0.0,0.0,0.0,0.0,0.0,0.0,0.0,0.0,0.0,0.0,0.0,0.0,0.0,0.0,0.0,0.0,0.0,0.0,0.0,0.0,0.0,0.0,0.0,0.0,0.0,0.0,0.0,0.0,0.0,0.0,0.0,0.0,0.0,0.0,0.0,0.0,0.0,0.0,0.0,0.0,0.0,0.0,0.0,0.0,0.0,0.0,0.0,0.0,0.0,0.0,0.0,0.0,0.0,0.0,0.0,0.0,0.0,0.0,0.0,0.0,0.0,0.0,0.0,0.0,0.0,0.0,0.0,0.0,0.0,0.0,0.0,0.0,0.0,0.0,0.0,0.0,0.0,0.0,0.0,0.0,0.0,0.0,0.0,0.0,0.0,0.0,0.0,0.0,0.0,0.0,0.0,0.0,0.0,0.0,0.0,0.0,0.0,0.0,0.0,0.0,0.0,0.0,0.0,0.0,0.0,0.0,0.0,0.0,0.0,0.0,0.0,0.0,0.0,0.0,0.0,0.0,0.0,0.0,0.0,0.0,0.0,0.0,0.0,0.0,0.0,0.0,0.0,0.0,0.0,0.0,0.0,0.0,0.0,0.0,0.0,0.0,0.0,0.0,0.0,0.0,0.0,0.0,0.0,0.0,0.0,0.0,0.0,0.0,0.0,0.0,0.0,0.0,0.0,0.0,0.0,0.0,0.0,0.0,0.0,0.0,0.0,0.0,0.0,0.0,0.0,0.0,0.0,0.0,0.0,0.0,0.0,0.0,0.0,0.0,0.0,0.0,0.0,0.0,0.0,0.0,0.0,0.0,0.0,0.0,0.0,0.0,0.0,0.0,0.0,0.0,0.0,0.0,0.0,0.0,0.0,0.0,0.0,0.0,0.0,0.0,0.0,0.0,0.0,0.0,0.0,0.0,0.0,0.0,0.0,0.0,0.0,0.0,0.0,0.0,0.0,0.0,0.0,0.0,0.0,0.0,0.0,0.0,0.0,0.0,0.0,0.0,0.0,0.0,0.0,0.0,0.0,0.0,0.0,0.0,0.0,0.0,0.0,0.0,0.0,0.0,0.0,0.0,0.0,0.0,0.0,0.0,0.0,0.0,0.0,0.0,0.0,0.0,0.0,0.0,0.0,0.0,0.0,0.0,0.0,0.0,0.0,0.0,0.0,0.0,0.0,0.0,0.0,0.0,0.0,0.0,0.0,0.0,0.0,0.0,0.0,0.0,0.0,0.0,0.0,0.0,0.0,0.0,0.0,0.0,0.0,0.0,0.0,0.0,0.0,0.0,0.0,0.0,0.0,0.0,0.0,0.0,0.0,0.0,0.0,0.0,0.0,0.0,0.0,0.0,0.0,0.0,0.0,0.0,0.0,0.0,0.0,0.0,0.0,0.0,0.0,0.0,0.0,0.0,0.0,0.0,0.0,0.0,0.0,0.0,0.0,0.0,0.0,0.0,0.0,0.0,0.0,0.0,0.0,0.0,0.0,0.0,0.0,0.0,0.0,0.0,0.0,0.0,0.0,0.0,0.0,0.0,0.0,0.0,0.0,0.0,0.0,0.0,0.0,0.0,0.0,0.0,0.0,0.0,0.0,0.0,0.0,0.0,0.0,0.0,0.0,0.0,0.0,0.0,0.0,0.0,0.0,0.0,0.0,0.0,0.0,0.0,0.0,0.0,0.0,0.0,0.0,0.0,0.0,0.0,0.0,0.0,0.0,0.0,0.0,0.0,0.0,0.0,0.0,0.0,0.0,0.0,0.0,0.0,0.0,0.0,0.0,0.0,0.0,0.0,0.0,0.0,0.0,0.0,0.0,0.0,0.0,0.0,0.0,0.0,0.0,0.0,0.0,0.0,0.0,0.0,0.0,0.0,0.0,0.0,0.0,0.0,0.0,0.0,0.0,0.0,0.0,0.0,0.0,0.0,0.0,0.0,0.0,0.0,0.0,0.0,0.0,0.0,0.0,0.0,0.0,0.0,0.0,0.0,0.0,0.0,0.0,0.0,0.0,0.0,0.0,0.0,0.0,0.0,0.0,0.0,0.0,0.0,0.0,0.0,0.0,0.0,0.0,0.0,0.0,0.0,0.0,0.0,0.0,0.0,0.0,0.0,0.0,0.0,0.0,0.0,0.0,0.0,0.0,0.0,0.0,0.0,0.0,0.0,0.0,0.0,0.0,0.0,0.0,0.0,0.0,0.0,0.0,0.0,0.0,0.0,0.0,0.0,0.0,0.0,0.0,0.0,0.0,0.0,0.0,0.0,0.0,0.0,0.0,0.0,0.0,0.0,0.0,0.0,0.0,0.0,0.0,0.0,0.0,0.0,0.0,0.0,0.0,0.0,0.0,0.0,0.0,0.0,0.0,0.0,0.0,0.0,0.0,0.0,0.0,0.0,0.0,0.0,0.0,0.0,0.0,0.0,0.0,0.0,0.0,0.0,0.0,0.0,0.0,0.0,0.0,0.0,0.0,0.0,0.0,0.0,0.0,0.0,0.0,0.0,0.0,0.0,0.0,0.0,0.0,0.0,0.0,0.0,0.0,0.0,0.0,0.0,0.0,0.0,0.0,0.0,0.0,0.0,0.0,0.0,0.0,0.0,0.0,0.0,0.0,0.0,0.0,0.0,0.0,0.0,0.0,0.0,0.0,0.0,0.0,0.0,0.0,0.0,0.0,0.0,0.0,0.0,0.0,0.0,0.0,0.0,0.0,0.0,0.0,0.0,0.0,0.0,0.0,0.0,0.0,0.0,0.0,0.0,0.0,0.0,0.0,0.0,0.0,0.0,0.0,0.0,0.0,0.0,0.0,0.0,0.0,0.0,0.0,0.0,0.0,0.0,0.0,0.0,0.0,0.0,0.0,0.0,0.0,0.0,0.0,0.0,0.0,0.0,0.0,0.0,0.0,0.0,0.0,0.0,0.0,0.0,0.0,0.0,0.0,0.0,0.0,0.0,0.0,0.0,0.0,0.0,0.0,0.0,0.0,0.0,0.0,0.0,0.0,0.0,0.0,0.0,0.0,0.0,0.0,0.0,0.0,0.0,0.0,0.0,0.0,0.0,0.0,0.0,0.0,0.0,0.0,0.0,0.0,0.0,0.0,0.0,0.0,0.0,0.0,0.0,0.0,0.0,0.0,0.0,0.0,0.0,0.0,0.0,0.0,0.0,0.0,0.0,0.0,0.0,0.0,0.0,0.0,0.0,0.0,0.0,0.0,0.0,0.0,0.0,0.0,0.0,0.0,0.0,0.0,0.0,0.0,0.0,0.0,0.0,0.0,0.0,0.0,0.0,0.0,0.0,0.0,0.0,0.0,0.0,0.0,0.0,0.0,0.0,0.0,0.0,0.0,0.0,0.0,0.0,0.0,0.0,0.0,0.0,0.0,0.0,0.0,0.0,0.0,0.0,0.0,0.0,0.0,0.0,0.0,0.0,0.0,0.0,0.0,0.0,0.0,0.0,0.0,0.0,0.0,0.0,0.0,0.0,0.0,0.0,0.0,0.0,0.0,0.0,0.0,0.0,0.0,0.0,0.0,0.0,0.0,0.0,0.0,0.0,0.0,0.0,0.0,0.0,0.0,0.0,0.0,0.0,0.0,0.0,0.0,0.0,0.0,0.0,0.0,0.0,0.0,0.0,0.0,0.0,0.0,0.0,0.0,0.0,0.0,0.0,0.0,0.0,0.0,0.0,0.0,0.0,0.0,0.0,0.0,0.0,0.0,0.0,0.0,0.0,0.0,0.0,0.0,0.0,0.0,0.0,0.0,0.0,0.0,0.0,0.0,0.0,0.0,0.0,0.0,0.0,0.0,0.0,0.0,0.0,0.0,0.0,0.0,0.0,0.0,0.0,0.0,0.0,0.0,0.0,0.0,0.0,0.0,0.0,0.0,0.0,0.0,0.0,0.0,0.0,0.0,0.0,0.0,0.0,0.0,0.0,0.0,0.0,0.0,0.0,0.0,0.0,0.0,0.0,0.0,0.0,0.0,0.0,0.0,0.0,0.0,0.0,0.0,0.0,0.0,0.0,0.0,0.0,0.0,0.0,0.0,0.0,0.0,0.0,0.0,0.0,0.0,0.0,0.0,0.0,0.0,0.0,0.0,0.0,0.0,0.0,0.0,0.0,0.0,0.0,0.0,0.0,0.0,0.0,0.0,0.0,0.0,0.0,0.0,0.0,0.0,0.0,0.0,0.0,0.0,0.0,0.0,0.0,0.0,0.0,0.0,0.0,0.0,0.0,0.0,0.0,0.0,0.0,0.0,0.0,0.0,0.0,0.0,0.0,0.0,0.0,0.0,0.0,0.0,0.0,0.0,0.0,0.0,0.0,0.0,0.0,0.0,0.0,0.0,0.0,0.0,0.0,0.0,0.0,0.0,0.0,0.0,0.0,0.0,0.0,0.0,0.0,0.0,0.0,0.0,0.0,0.0,0.0,0.0,0.0,0.0,0.0,0.0,0.0,0.0,0.0,0.0,0.0,0.0,0.0,0.0,0.0,0.0,0.0,0.0,0.0,0.0,0.0,0.0,0.0,0.0,0.0,0.0,0.0,0.0,0.0,0.0,0.0,0.0,0.0,0.0,0.0,0.0,0.0,0.0,0.0,0.0,0.0,0.0,0.0,0.0,0.0,0.0,0.0,0.0,0.0,0.0,0.0,0.0,0.0,0.0,0.0,0.0,0.0,0.0,0.0,0.0,0.0,0.0,0.0,0.0,0.0,0.0,0.0,0.0,0.0,0.0,0.0,0.0,0.0,0.0,0.0,0.0,0.0,0.0,0.0,0.0,0.0,0.0,0.0,0.0,0.0,0.0,0.0,0.0,0.0,0.0,0.0,0.0,0.0,0.0,0.0,0.0,0.0,0.0,0.0,0.0,0.0,0.0,0.0,0.0,0.0,0.0,0.0,0.0,0.0,0.0,0.0,0.0,0.0,0.0,0.0,0.0,0.0,0.0,0.0,0.0,0.0,0.0,0.0,0.0,0.0,0.0,0.0,0.0,0.0,0.0,0.0,0.0,0.0,0.0,0.0,0.0,0.0,0.0,0.0,0.0,0.0,0.0,0.0,0.0,0.0,0.0,0.0,0.0,0.0,0.0,0.0,0.0,0.0,-5.2049,-4.9663,0.0,0.0,0.0,0.0,0.0,0.0,0.0,0.0,0.0,0.0,0.0,0.0,0.0,0.0,0.0,0.0,0.0,0.0,0.0,0.0,0.0,0.0,0.0,0.0,0.0,0.0,0.0,0.0,0.0,0.0,0.0,0.0,0.0,0.0,0.0,0.0,-3.4969,-3.6245,-3.7102,-3.8373,-3.9997,-3.9108,-3.8489,-3.8147,0.0,0.0,0.0,0.0,0.0,0.0,0.0,0.0,0.0,0.0,0.0,0.0,0.0,0.0,0.0,0.0,0.0,0.0,0.0,0.0,0.0,0.0,0.0,0.0,0.0,0.0,0.0,0.0,0.0,0.0,0.0,0.0,0.0,0.0,0.0,0.0,0.0,0.0,0.0,0.0,0.0,0.0,0.0,0.0,0.0,0.0,0.0,0.0,0.0,0.0,0.0,0.0,0.0,0.0,0.0,0.0,0.0,0.0,0.0,0.0,0.0,0.0,0.0,0.0,0.0,0.0,0.0,0.0,0.0,0.0,-5.478,-5.2626,0.0,0.0,0.0,0.0,0.0,0.0,0.0,0.0,0.0,0.0,0.0,0.0,0.0,0.0,0.0,0.0,0.0,0.0,0.0,0.0,0.0,0.0,0.0,-3.845,-3.8489,-3.8644,-3.8644,-3.7986,0.0,0.0,0.0,0.0,0.0,0.0,-3.5051,-3.5941,-3.7174,-3.887,-4.0042,-4.1396,-4.2899,-4.3788,-4.344,-4.2093,-4.1512,0.0,0.0,0.0,0.0,0.0,0.0,0.0,0.0,0.0,0.0,0.0,0.0,0.0,0.0,0.0,0.0,0.0,0.0,0.0,0.0,0.0,0.0,0.0,0.0,0.0,0.0,0.0,0.0,0.0,0.0,0.0,0.0,0.0,0.0,0.0,0.0,0.0,0.0,0.0,0.0,0.0,0.0,0.0,0.0,0.0,0.0,0.0,0.0,0.0,0.0,0.0,0.0,0.0,0.0,0.0,0.0,0.0,0.0,0.0,0.0,0.0,0.0,0.0,-5.7945,-5.8819,-6.0165,-6.0165,-6.0142,-5.9979,-5.7866,-5.6137,-5.477,-5.3708,0.0,0.0,0.0,0.0,0.0,0.0,0.0,0.0,0.0,0.0,0.0,0.0,0.0,0.0,0.0,0.0,0.0,0.0,0.0,0.0,0.0,-3.9346,-3.9617,-4.039,-4.0468,-4.0042,-3.9075,0.0,0.0,0.0,0.0,0.0,-3.7709,-3.8533,-3.981,-4.1506,-4.3834,-4.5459,-4.6457,-4.7308,-4.7618,-4.727,-4.4291,-4.2434,-4.1506,0.0,0.0,0.0,0.0,0.0,0.0,0.0,0.0,0.0,0.0,0.0,0.0,0.0,0.0,0.0,0.0,0.0,0.0,0.0,0.0,0.0,0.0,0.0,0.0,0.0,0.0,0.0,0.0,0.0,0.0,0.0,0.0,0.0,0.0,0.0,0.0,0.0,0.0,0.0,0.0,0.0,-4.6932,-4.8837,0.0,0.0,0.0,0.0,0.0,0.0,0.0,0.0,0.0,0.0,0.0,0.0,0.0,-5.656,-5.6676,-5.8973,-6.0204,-6.0319,-6.1781,-6.2589,-6.2808,-6.2808,-6.2644,-6.2362,-6.2017,0.0,-5.6218,-5.575,0.0,0.0,0.0,0.0,0.0,0.0,0.0,0.0,0.0,0.0,0.0,0.0,0.0,0.0,0.0,0.0,0.0,0.0,0.0,0.0,0.0,-4.1622,-4.1777,-4.2164,-4.2202,-4.1854,-4.0965,-4.0932,0.0,0.0,0.0,-3.9881,-4.0346,-4.0694,-4.1977,-4.4182,-4.6728,-4.8198,-4.8585,-4.9397,-4.9823,-4.9745,-4.8229,-4.6303,-4.4136,-4.4136,0.0,0.0,0.0,0.0,0.0,0.0,0.0,0.0,0.0,0.0,0.0,0.0,0.0,0.0,0.0,0.0,0.0,0.0,0.0,0.0,0.0,0.0,0.0,0.0,0.0,0.0,0.0,0.0,0.0,0.0,0.0,0.0,0.0,0.0,0.0,0.0,0.0,0.0,0.0,-4.7228,-4.8999,-5.1269,-5.1548,-5.2049,0.0,0.0,0.0,0.0,0.0,0.0,0.0,0.0,0.0,-5.8511,-5.8934,-5.9588,-6.0512,-6.2127,-6.2935,-6.2935,-6.4166,-6.5013,-6.5436,-6.5436,-6.5241,-6.4886,-6.4676,-6.3133,-6.0643,-5.9145,-5.8284,-5.7835,0.0,0.0,0.0,0.0,-5.6368,-5.676,0.0,0.0,0.0,0.0,0.0,0.0,0.0,0.0,0.0,0.0,0.0,0.0,-4.375,-4.3943,-4.4136,-4.4562,-4.4601,-4.4136,-4.3053,-4.2976,-4.2512,-4.1467,-4.1429,-4.1932,-4.2937,-4.3634,-4.5026,-4.7192,-4.9281,-5.0558,-5.1022,-5.1641,-5.202,-5.2213,-5.1981,-5.0016,-4.6806,-4.6806,-4.5336,-4.2937,0.0,0.0,0.0,0.0,0.0,0.0,0.0,0.0,0.0,0.0,0.0,0.0,0.0,0.0,0.0,0.0,0.0,0.0,0.0,0.0,0.0,0.0,0.0,0.0,0.0,0.0,0.0,0.0,0.0,0.0,0.0,0.0,0.0,0.0,0.0,0.0,0.0,-4.968,-5.1318,-5.3857,-5.4164,-5.4741,0.0,0.0,0.0,0.0,0.0,0.0,-5.7945,-5.8369,-5.9588,-6.1704,-6.1973,-6.2704,-6.3935,-6.482,-6.5359,-6.559,-6.6474,-6.7243,-6.7931,-6.7931,-6.7638,-6.7148,-6.6899,-6.6176,-6.5031,-6.2358,-6.1292,-6.114,-5.964,-5.9441,-5.9887,-5.9292,-5.9441,-5.9961,0.0,0.0,0.0,0.0,0.0,0.0,0.0,0.0,0.0,0.0,0.0,-4.3827,-4.5497,-4.5691,-4.6341,-4.8005,-4.8121,-4.7424,-4.5729,-4.5613,-4.4871,-4.3247,-4.3169,-4.3943,-4.5575,-4.8043,-4.9745,-5.0666,-5.1602,-5.2917,-5.4542,-5.4581,-5.5006,-5.5702,-5.4929,-5.2685,-4.9513,-4.9513,-4.8043,-4.5613,-4.4682,0.0,0.0,0.0,0.0,0.0,0.0,0.0,0.0,0.0,0.0,0.0,0.0,0.0,0.0,0.0,0.0,0.0,0.0,0.0,0.0,0.0,0.0,0.0,0.0,0.0,0.0,0.0,0.0,0.0,0.0,0.0,0.0,0.0,0.0,0.0,0.0,0.0,0.0,-5.6522,-5.683,0.0,0.0,0.0,0.0,-5.8165,-5.8896,-5.9704,-6.055,-6.2127,-6.3435,-6.4397,-6.5205,-6.5667,-6.5782,-6.6551,-6.7398,-6.8231,-6.909,-6.9731,-7.0151,-7.0151,-6.9717,-6.8962,-6.894,-6.8713,-6.8047,-6.4776,-6.3438,-6.3438,-6.3342,-6.3342,-6.3379,-6.3305,-6.3342,-6.3379,0.0,0.0,0.0,0.0,0.0,-3.9346,-4.0197,-4.1048,-4.2086,-4.3479,-4.4407,-4.5336,-4.6496,-4.7154,-4.7734,-4.8353,-4.8392,-4.8121,-4.7502,-4.7463,-4.7192,-4.6612,-4.6573,-4.7115,-4.8275,-4.9745,-5.0906,-5.1757,-5.3691,-5.4967,-5.5586,-5.6708,-5.7404,-5.7675,-5.7366,-5.6244,-5.4456,-5.2221,-5.0171,-4.8275,-4.7371,-4.595,0.0,0.0,0.0,0.0,0.0,0.0,0.0,0.0,0.0,0.0,0.0,0.0,0.0,0.0,0.0,0.0,0.0,0.0,0.0,0.0,0.0,0.0,0.0,0.0,0.0,0.0,0.0,0.0,0.0,0.0,0.0,0.0,0.0,0.0,0.0,0.0,0.0,-5.8357,-5.9088,0.0,-6.0666,-6.1204,-6.1512,-6.1512,-6.232,-6.2935,-6.3243,-6.4359,-6.5359,-6.6167,-6.7051,-6.7782,-6.8321,-6.938,-7.008,-7.0425,-7.1267,-7.1778,-7.1914,-7.1914,-7.1613,-7.1072,-7.0815,-7.0448,-6.993,-6.8778,-6.7664,-6.6722,-6.6202,-6.6314,-6.6662,-6.6142,-6.6314,-6.6736,0.0,0.0,0.0,-3.9926,-3.9926,-4.0236,-4.1087,-4.1893,-4.3053,-4.4794,-4.5722,-4.6806,-4.8237,-4.8894,-4.9475,-5.0055,-5.0132,-5.0016,-4.9707,-4.9668,-4.9552,-4.9243,-4.9513,-4.9939,-5.0519,-5.1912,-5.2917,-5.3459,-5.5741,-5.7018,-5.7327,-5.8488,-5.9184,-5.9416,-5.9145,-5.872,-5.8023,-5.5432,-5.3033,-5.0906,-5.0016,-4.8601,-4.6862,0.0,0.0,0.0,0.0,0.0,0.0,0.0,0.0,0.0,0.0,0.0,0.0,0.0,0.0,0.0,0.0,0.0,0.0,0.0,0.0,0.0,0.0,0.0,0.0,0.0,0.0,0.0,0.0,0.0,0.0,0.0,0.0,0.0,0.0,-5.7125,-5.8781,-6.0204,-6.1127,-6.1973,-6.2858,-6.3435,-6.3858,-6.4166,-6.4974,-6.5551,-6.5859,-6.6974,-6.7897,-6.8555,-6.9575,-7.0305,-7.0729,-7.1697,-7.2237,-7.2389,-7.2962,-7.3242,-7.3213,-7.3517,-7.3394,-7.3009,-7.303,-7.282,-7.2555,-7.2555,-7.1923,-7.0809,-6.9174,-6.9026,-6.9694,-6.9137,-6.9472,-7.014,0.0,-4.0816,-4.0816,-4.0816,-4.0816,-4.1126,-4.1932,-4.2783,-4.3943,-4.5613,-4.6619,-4.8082,-5.0627,-5.0937,-5.1641,-5.3343,-5.3498,-5.3149,-5.2306,-5.2229,-5.1873,-5.1014,-5.1796,-5.2268,-5.2306,-5.4735,-5.6051,-5.6089,-5.7791,-5.9068,-5.988,-5.9919,-6.0344,-6.1079,-6.0306,-5.9919,-5.988,-5.899,-5.6708,-5.3614,-5.2693,-5.1189,-4.9448,0.0,0.0,0.0,0.0,0.0,0.0,0.0,0.0,0.0,0.0,0.0,0.0,0.0,0.0,0.0,0.0,0.0,0.0,0.0,0.0,0.0,0.0,0.0,0.0,0.0,0.0,0.0,0.0,0.0,0.0,0.0,0.0,0.0,-5.8323,-5.9781,-6.1166,-6.205,-6.2897,-6.3731,-6.4577,-6.4692,-6.5089,-6.5936,-6.6744,-6.759,-6.8475,-7.009,-7.1142,-7.1527,-7.2854,-7.3315,-7.2885,-7.3323,-7.3783,-7.4188,-7.4205,-7.4162,-7.4108,-7.4972,-7.5121,-7.4725,-7.5479,-7.5787,-7.5787,-7.5787,-7.5787,-7.549,-7.2295,-7.1589,-7.2321,-7.2321,-7.2804,-7.3473,-4.0816,-4.0816,-4.0816,-4.0816,-4.1274,-4.197,-4.2821,-4.3672,-4.4833,-4.6535,-4.7502,-4.8778,-5.0705,-5.1447,-5.2298,-5.3382,-5.3498,-5.3382,-5.3149,-5.3149,-5.3033,-5.2801,-5.2995,-5.3691,-5.4929,-5.5625,-5.6631,-5.7869,-5.899,-5.9648,-5.9919,-6.0499,-6.0886,-6.1079,-6.0886,-6.077,-6.0731,-5.988,-5.899,-5.7946,-5.5818,-5.3906,-5.2288,0.0,0.0,0.0,0.0,0.0,0.0,0.0,0.0,0.0,0.0,0.0,0.0,0.0,0.0,0.0,0.0,0.0,0.0,0.0,0.0,0.0,0.0,0.0,0.0,0.0,0.0,0.0,0.0,0.0,0.0,0.0,-5.8762,-5.9967,-6.0077,-6.105,-6.217,-6.3326,-6.45,-6.5384,-6.593,-6.6803,-6.7705,-6.859,-6.9398,-7.0244,-7.1091,-7.2206,-7.2856,-7.2961,-7.388,-7.4467,-7.4625,-7.5036,-7.5451,-7.584,-7.6204,-7.6359,-7.6317,-7.6582,-7.663,-7.6452,-7.6005,-7.5787,-7.5787,-7.5787,-7.5787,-7.5713,-7.4821,-7.4598,-7.4784,-7.4784,-7.4933,-7.5118,-4.0816,-4.0816,-4.0816,-4.0816,-4.1467,-4.228,-4.3169,-4.4052,-4.5336,-4.7386,-4.8082,-4.9165,-5.1215,-5.2221,-5.3111,-5.3962,-5.4349,-5.4542,-5.4542,-5.489,-5.5084,-5.5084,-5.5432,-5.6089,-5.7056,-5.7443,-5.8139,-5.9145,-5.9996,-6.0383,-6.0422,-6.0886,-6.1118,-6.1118,-6.1118,-6.1118,-6.1079,-6.0615,-6.0383,-6.0228,-5.8372,-5.6592,-5.5045,-5.4542,-5.2966,-5.1008,-5.1008,-4.975,-4.793,-4.7266,0.0,0.0,0.0,0.0,0.0,0.0,0.0,0.0,0.0,0.0,0.0,0.0,0.0,0.0,0.0,0.0,0.0,0.0,0.0,0.0,0.0,0.0,0.0,0.0,-6.0928,-6.235,-6.2885,-6.3358,-6.4065,-6.5158,-6.66,-6.7716,-6.8301,-6.9327,-7.036,-7.1245,-7.1706,-7.236,-7.3206,-7.4053,-7.461,-7.4781,-7.5748,-7.6309,-7.64,-7.6804,-7.7036,-7.71,-7.7372,-7.731,-7.6926,-7.7266,-7.7342,-7.7147,-7.6935,-7.6827,-7.6827,-7.6827,-7.6827,-7.6753,0.0,0.0,0.0,0.0,-7.6827,-7.6827,-4.0816,-4.0816,-4.0816,-4.0816,-4.1545,-4.2396,-4.3169,-4.4136,-4.5606,-4.8082,-4.8392,-4.9359,-5.192,-5.2995,-5.3846,-5.4735,-5.5548,-5.6051,-5.6119,-5.6854,-5.7318,-5.7434,-5.8178,-5.8651,-5.8729,-5.9493,-5.9919,-6.0035,-6.0731,-6.1118,-6.1118,-6.1118,-6.1118,-6.1118,-6.1118,-6.1118,-6.1118,-6.1118,-6.1118,-6.1041,-6.0306,-5.9068,-5.7589,-5.7473,-5.5973,-5.3923,-5.3923,-5.2729,-5.1087,-5.099,0.0,0.0,0.0,0.0,0.0,0.0,0.0,0.0,0.0,0.0,0.0,0.0,0.0,0.0,0.0,0.0,0.0,0.0,0.0,0.0,0.0,0.0,0.0,0.0,-6.291,-6.4785,-6.6141,-6.6397,-6.6692,-6.7397,-6.8962,-7.0269,-7.1049,-7.1885,-7.2706,-7.3591,-7.3745,-7.413,-7.4938,-7.5822,0.0,0.0,0.0,-7.8359,-7.804,-7.8388,-7.841,-7.812,-7.8157,-7.7698,-7.6883,-7.7673,-7.7754,-7.7345,-7.8034,-7.8276,-7.8276,-7.8276,-7.8276,-7.8128,-7.6642,-7.653,-7.7338,-7.8016,-7.8276,-7.8276,-4.0932,-4.0816,-4.0816,-4.0816,-4.2048,-4.3131,-4.3285,-4.4601,-4.6264,-4.8159,-4.8392,-4.9359,-5.192,-5.2995,-5.3846,-5.4735,-5.5548,-5.6313,-5.7009,-5.7202,-5.7598,-5.8333,-5.8488,-5.8913,-5.9609,-5.9803,-6.0228,-6.0886,-6.1041,-6.1118,-6.1118,-6.1118,-6.1118,-6.1118,-6.1118,-6.1118,-6.1118,-6.1118,-6.1118,-6.1079,-6.0925,-6.0267,-5.93,-5.8604,-5.7598,-5.6583,-5.6583,-5.587,-5.4812,-5.3859,-5.2948,-5.2028,-5.1111,-4.9527,0.0,0.0,0.0,0.0,0.0,0.0,0.0,0.0,0.0,0.0,0.0,0.0,0.0,0.0,0.0,0.0,0.0,0.0,0.0,-6.3026,-6.4586,-6.6346,-6.8654,-6.9513,-6.9893,-6.972,-7.0873,-7.1915,-7.2477,-7.2946,-7.3591,-7.4399,-7.513,-7.5899,-7.6746,-7.7553,-7.8038,-7.8131,-7.8369,-7.8628,-7.8863,-7.8956,-7.9114,-7.9343,-7.9743,0.0,-7.9084,-7.9274,-7.9076,-7.8603,-7.8383,-7.8276,-7.8276,-7.8276,-7.8276,-7.8239,-7.7942,-7.7905,-7.809,-7.8239,-7.8276,-7.8276,-4.0971,-4.0816,-4.0816,-4.0816,-4.2202,-4.3285,-4.3285,-4.4717,-4.6426,-4.8159,-4.8392,-4.9204,-5.1331,-5.2337,-5.3033,-5.3459,-5.4658,-5.578,-5.6583,-5.7482,-5.8139,-5.8574,-5.9416,-6.0035,-6.0499,-6.0499,-6.0692,-6.1118,-6.1118,-6.1118,-6.1118,-6.1118,-6.1118,-6.1118,-6.1118,-6.1118,-6.1118,-6.1118,-6.1118,-6.1118,-6.1118,-6.0847,-6.046,-6.0035,-5.9339,-5.8604,-5.8604,-5.8023,-5.7193,-5.6638,-5.5856,-5.4988,-5.3982,-5.2487,-5.096,0.0,0.0,0.0,0.0,0.0,0.0,0.0,0.0,0.0,0.0,0.0,0.0,0.0,0.0,-5.7973,-5.9971,0.0,-6.323,-6.5221,-6.6974,-6.8546,-6.9811,-7.1421,-7.2356,-7.1935,-7.2813,-7.3534,-7.3768,-7.4773,-7.5553,-7.5976,-7.6784,-7.7438,-7.7861,-7.8707,-7.9131,-7.9131,-7.9554,-7.9899,-8.0102,-8.0102,-8.019,-8.0391,-8.0391,-8.0142,-7.9686,-7.9464,-7.9102,-7.8633,-7.8414,-7.8276,-7.8276,-7.8276,-7.8276,-7.8276,-7.8276,-7.8276,-7.8276,-7.8276,-7.8276,-7.8276,-4.1429,-4.128,-4.1242,-4.1048,-4.228,-4.3363,-4.3518,-4.4833,-4.6348,-4.7927,-4.8275,-4.8972,-5.0511,-5.1563,-5.2268,-5.2461,-5.3884,-5.5122,-5.5935,-5.7637,-5.869,-5.8845,-6.0306,-6.1118,-6.1118,-6.1118,-6.1118,-6.1118,-6.1118,-6.1118,-6.1118,-6.1118,-6.1118,-6.1118,-6.1118,-6.1118,-6.1118,-6.1118,-6.1118,-6.1118,-6.1118,-6.1118,-6.1118,-6.1118,-6.0692,-6.0112,-6.0112,-5.9687,-5.9068,-5.9068,-5.8526,-5.7666,-5.6979,-5.5457,-5.3687,-5.2717,-5.177,0.0,0.0,0.0,0.0,0.0,0.0,0.0,0.0,-5.5152,-5.62,-5.7148,-5.8507,-6.0222,-6.2394,-6.4196,-6.5912,-6.748,-6.9374,-7.0767,-7.1111,-7.2909,-7.421,-7.4255,-7.4822,-7.5207,-7.5207,-7.663,-7.7515,-7.7515,-7.8284,-7.8746,-7.8746,-7.9592,-8.0054,-8.0054,-8.0746,-8.1093,-8.1093,-8.1093,-8.1093,-8.1093,-8.0611,-8.022,-7.9815,-7.9349,-7.8854,-7.8441,-7.8332,-7.8276,-7.8276,-7.8276,-7.8276,-7.8276,-7.8276,-7.8276,-7.8276,-7.8276,-7.8276,-7.8276,-4.3208,-4.3015,-4.2783,-4.2009,-4.2667,-4.3556,-4.4323,-4.522,-4.6155,-4.7115,-4.7927,-4.8778,-4.9745,-5.1254,-5.25,-5.3304,-5.4233,-5.5122,-5.5935,-5.7637,-5.8952,-5.9725,-6.0615,-6.1118,-6.1118,-6.1118,-6.1118,-6.1118,-6.1118,-6.1118,-6.1118,-6.1118,-6.1118,-6.1118,-6.1118,-6.1118,-6.1118,-6.1118,-6.1118,-6.1118,-6.1118,-6.1118,-6.1118,-6.1118,-6.1041,-6.0963,-6.0963,-6.0886,-6.0809,-6.0809,-6.0267,-5.9571,-5.9493,-5.7755,-5.5615,-5.5187,-5.44,-5.3606,-5.32,-5.3854,-5.4868,-5.6042,-5.6372,-5.6817,0.0,-5.9072,-5.9537,-6.0811,-6.1862,-6.2918,-6.4285,-6.6162,-6.8119,-6.9773,-7.1136,-7.251,-7.3995,-7.4456,-7.5201,-7.6707,-7.6938,-7.7015,-7.7015,-7.7823,-7.8361,-7.8361,-7.9169,-7.9669,-7.9669,-8.0477,-8.0939,-8.0939,-8.1054,-8.1093,-8.1093,-8.1093,-8.1093,-8.1093,-8.0611,-8.0373,-8.0316,-7.9836,-7.9349,-7.8916,-7.8458,-7.8276,-7.8276,-7.8276,-7.8276,-7.8276,-7.8276,-7.8276,-7.8276,-7.8276,-7.8276,-7.8276,-4.3479,-4.3285,-4.3363,-4.3479,-4.3827,-4.4168,-4.4555,-4.5297,-4.6116,-4.6999,-4.7424,-4.7966,-4.8856,-5.0016,-5.1293,-5.2608,-5.3072,-5.3846,-5.52,-5.6437,-5.7714,-5.9068,-5.9957,-6.0615,-6.1079,-6.1118,-6.1118,-6.1118,-6.1118,-6.1118,-6.1118,-6.1118,-6.1118,-6.1118,-6.1118,-6.1118,-6.1118,-6.1118,-6.1118,-6.1118,-6.1118,-6.1118,-6.1118,-6.1118,-6.1118,-6.1118,-6.1118,-6.1118,0.0,-6.1118,-6.0886,-6.0538,-6.0035,-5.909,-5.8046,-5.7394,-5.6874,-5.6491,-5.6358,-5.6512,-5.7072,-5.8566,-5.8794,-5.9212,-6.1446,-6.1987,-6.2408,-6.3895,-6.4481,-6.5441,-6.7669,-6.8545,-6.9658,-7.1858,-7.2603,-7.3403,-7.4845,-7.5491,-7.6273,-7.75,-7.8292,-7.8554,-7.8054,-7.8746,-7.9246,-7.9246,-8.0054,-8.0554,-8.0554,-8.09,-8.1093,-8.1093,-8.1093,-8.1093,-8.1093,-8.1093,-8.1093,-8.1093,-8.0611,-8.0391,-8.0373,-7.992,-7.9441,-7.8979,-7.8512,-7.8276,-7.8276,-7.8276,-7.8276,-7.8276,-7.8276,-7.8276,-7.8276,-7.8276,-7.8276,-7.8276,-4.4098,-4.3982,-4.4175,-4.4833,-4.4949,-4.4949,-4.4949,-4.5413,-4.6039,-4.6651,-4.696,-4.7424,-4.8314,-4.9165,-5.021,-5.1409,-5.192,-5.2732,-5.4,-5.5277,-5.6553,-5.783,-5.9184,-6.0151,-6.077,-6.1002,-6.1118,-6.1118,-6.1118,-6.1118,-6.1118,-6.1118,-6.1118,-6.1118,-6.1118,-6.1118,-6.1118,-6.1118,-6.1118,-6.1118,-6.1118,-6.1118,-6.1079,-6.0847,-6.077,-6.0809,-6.1041,-6.1109,-6.106,-6.106,-6.109,-6.0954,-6.0384,-5.9968,-5.9549,-5.8922,-5.8611,-5.8611,-5.9181,-5.9102,-5.9265,-6.1054,-6.1311,-6.1705,-6.3932,-6.4448,-6.4828,-6.6197,-6.6882,-6.7897,-7.0148,-7.0828,-7.1689,-7.3519,-7.4172,-7.4806,-7.5736,-7.659,-7.7471,-7.8296,-7.9259,-7.9669,-7.9246,-7.9785,-8.0169,-8.0169,-8.0746,-8.1093,-8.1093,-8.1093,-8.1093,-8.1093,-8.1093,-8.1093,-8.1093,-8.1093,-8.1093,-8.1093,-8.0611,-8.0485,-8.0576,-7.9961,-7.9441,-7.8941,-7.8512,-7.8425,-7.8611,-7.8611,-7.8759,-7.8945,-7.8945,-7.8945,-7.8945,-7.8945,-7.8685,-7.8276,-4.5729,-4.5729,-4.5729,-4.5768,-4.5768,-4.5768,-4.5768,-4.5768,-4.5807,-4.5845,-4.6581,-4.7424,-4.8314,-4.9165,-4.9707,-4.9784,-5.1254,-5.2229,-5.2268,-5.4619,-5.6012,-5.6089,-5.8526,-5.9919,-5.9919,-6.0692,-6.1118,-6.1118,-6.1118,-6.1118,-6.1118,-6.1118,-6.1118,-6.1118,-6.1118,-6.1118,-6.1118,-6.1118,-6.1118,-6.1118,-6.1118,-6.1118,-6.1002,-6.0228,-5.9919,-6.0035,-6.0809,-6.1051,-6.1002,-6.1002,-6.101,-6.0997,-6.0959,-6.0338,-5.9601,-5.9562,-5.9305,-5.9406,-6.1452,-6.1671,-6.1868,-6.3937,-6.4462,-6.4808,-6.62,-6.6522,-6.6751,-6.7553,-6.9097,-7.0378,-7.0791,-7.287,-7.4562,-7.4654,-7.6077,-7.7192,-7.7231,-7.7923,-7.8769,-7.9654,-7.9769,-8.0131,-8.0939,-8.1054,-8.1054,-8.1054,-8.1093,-8.1093,-8.1093,-8.1093,-8.1093,-8.1093,-8.1093,-8.1093,-8.1093,-8.1093,-8.1093,-8.1093,-8.0611,-8.0629,-8.1061,-8.0103,-7.9441,-7.8941,-7.8512,-7.8722,-7.9465,-7.9465,-7.9911,-8.0617,-8.0617,-8.0617,-8.0617,-8.0617,-7.9614,-7.8276,-4.5807,-4.5807,-4.5807,-4.5807,-4.5807,-4.5807,-4.5807,-4.5807,-4.5807,-4.5807,-4.6078,0.0,0.0,0.0,0.0,0.0,-5.021,-5.1022,-5.2152,-5.2995,-5.4233,-5.5935,-5.6824,-5.7869,-5.899,-5.93,-5.9725,-6.0306,-6.0306,-6.0576,-6.1118,-6.1118,-6.1118,-6.1118,-6.1118,-6.1118,-6.1118,-6.1118,-6.1118,-6.1118,-6.1118,-6.077,-6.0267,-5.9996,-5.9532,-5.9068,0.0,-5.9388,-5.935,-5.9388,-5.9746,-6.02,-6.02,-6.0352,-6.053,-6.0415,-6.0707,-6.121,-6.1923,-6.2797,-6.3873,-6.5141,-6.5859,-6.6679,-6.8276,-6.8646,-6.8876,-6.9683,-7.0335,-7.1132,-7.2371,-7.307,-7.3913,-7.5332,-7.6255,-7.7111,-7.8,-7.8823,-7.9708,-8.0554,-8.0669,-8.0785,-8.1054,-8.1093,-8.1093,-8.1093,-8.1093,-8.1093,-8.1093,-8.1093,-8.1093,-8.1093,-8.1093,-8.1093,-8.1093,-8.1093,-8.1093,-8.1093,-8.148,-8.2057,-8.2731,-8.1799,-8.1249,-8.1103,-8.024,-8.0059,-8.0282,-8.0282,-8.0468,-8.0691,-8.0691,-8.0691,-8.0691,-8.0691,-8.0357,-7.9874,0.0,-4.5807,-4.5807,-4.5807,-4.5807,0.0,0.0,0.0,0.0,0.0,0.0,0.0,0.0,0.0,0.0,0.0,0.0,-5.0171,-5.1254,-5.1881,-5.2917,-5.4581,-5.5509,-5.6515,-5.7637,-5.8294,-5.8874,-5.9455,-5.9455,-5.9687,-6.0228,-6.0228,-6.0228,-6.0228,-6.0228,-6.0228,-6.0228,-6.0228,-6.0383,-6.0654,-6.0344,-6.0074,-5.9803,-5.8874,-5.8178,0.0,-5.7366,-5.7184,-5.7303,-5.8258,-5.909,-5.9775,-5.9775,-6.0313,-6.0982,-6.1201,-6.1678,-6.2293,-6.3217,-6.4243,-6.5436,-6.6898,-6.7628,-6.8398,-6.9821,-7.0129,-7.0283,-7.0783,-7.1168,-7.1706,-7.2822,-7.3261,-7.3913,-7.5332,-7.6539,-7.7549,-7.8385,-7.9515,-8.0477,-8.1016,-8.1093,-8.1093,-8.1093,-8.1093,-8.1093,-8.1093,-8.1093,-8.1093,-8.1093,-8.1093,-8.1093,-8.1093,-8.1093,-8.1093,-8.1093,-8.14,-8.1708,-8.2016,-8.2516,-8.2885,-8.3064,-8.2492,-8.2028,-8.1645,-8.099,-8.0877,-8.1137,-8.1137,-8.1323,-8.1583,-8.1583,-8.1583,-8.1583,-8.1583,-8.1583,-8.1508,0.0,0.0,-4.5807,0.0,0.0,0.0,0.0,0.0,0.0,0.0,0.0,0.0,0.0,0.0,0.0,0.0,0.0,0.0,-4.9707,-5.1215,-5.2152,-5.219,-5.4503,-5.5818,-5.5857,-5.7482,-5.838,-5.8419,-5.8458,-5.8488,-5.8526,-5.8574,-5.8613,-5.8613,-5.8613,-5.8613,-5.8613,-5.8613,-5.9068,-5.9764,-5.8874,-5.899,-5.9416,-5.6902,-5.5896,-5.578,-5.5006,-5.471,-5.5091,-5.7525,-5.8954,-5.9647,-5.9724,-6.0338,-6.1092,-6.1882,-6.2178,-6.2832,-6.5243,-6.6013,-6.6667,-6.909,-6.9744,-6.9975,-7.0744,-7.086,-7.0821,-7.0821,-7.1475,-7.2014,-7.2129,-7.3437,-7.4553,-7.4668,-7.6784,-7.8438,-7.8477,-8.0015,-8.1093,-8.1093,-8.1093,-8.1093,-8.1093,-8.1093,-8.1093,-8.1093,-8.1093,-8.1093,-8.1093,-8.1093,-8.1093,-8.1093,-8.1131,-8.117,-8.117,-8.1939,-8.2785,-8.367,-8.367,-8.3234,-8.239,-8.2368,-8.1832,-8.0916,-8.086,-8.1314,-8.2066,-8.2066,-8.2511,-8.318,-8.318,-8.318,-8.318,-8.318,-8.318,-8.2957,0.0,0.0,0.0,0.0,0.0,0.0,0.0,0.0,0.0,0.0,0.0,0.0,0.0,0.0,0.0,0.0,0.0,0.0,-4.9668,-5.0674,-5.1525,-5.219,-5.2801,-5.3459,-5.4116,-5.4581,-5.5122,-5.578,-5.636,-5.7018,-5.7637,-5.8294,-5.8613,-5.8613,-5.8613,-5.8613,-5.8613,-5.8613,-5.8729,-5.8874,-5.7985,-5.7366,-5.6863,-5.5586,-5.4697,-5.4116,-5.3923,-5.4224,-5.4989,-5.6218,-5.7621,-5.9003,-6.0287,-6.118,-6.1835,-6.2044,-6.3433,-6.5051,-6.5705,-6.7282,-6.8898,-6.9552,-7.0167,-7.0667,-7.086,-7.0437,-7.0014,-7.0014,-6.9667,-6.9744,-7.1014,-7.1591,-7.2476,-7.4399,-7.6322,-7.7823,-7.84,-8.0015,-8.1093,-8.1093,-8.1093,-8.1093,-8.1093,-8.1093,-8.1093,-8.1093,-8.1093,-8.1093,-8.1093,-8.1093,-8.1093,-8.1093,-8.167,-8.1977,-8.1977,-8.2824,-8.3708,-8.4555,-8.4555,-8.4763,-8.5069,-8.4747,-8.4252,-8.3664,-8.3258,-8.3014,-8.2883,-8.2883,-8.2994,-8.318,-8.318,-8.318,-8.318,-8.318,-8.318,-8.3143,0.0,0.0,0.0,0.0,0.0,0.0,0.0,0.0,0.0,0.0,0.0,0.0,0.0,0.0,0.0,0.0,0.0,0.0,0.0,-4.9359,-5.021,-5.1061,-5.1447,-5.2028,-5.2917,-5.3304,-5.3536,-5.3652,-5.4503,-5.4967,-5.5084,-5.5935,-5.636,-5.636,-5.636,-5.636,-5.636,-5.636,-5.6592,0.0,0.0,-5.5586,-5.5354,-5.4116,-5.3343,-5.2917,-5.2917,-5.3962,-5.5509,-5.6747,-5.7773,-5.8906,-6.0935,-6.1829,-6.237,-6.3465,-6.4792,-6.6128,-6.7244,-6.8629,-6.9783,-7.0129,-7.0552,-7.0821,-7.0437,-7.0014,-6.959,-6.9206,-6.8744,-6.8706,-6.9629,-7.0398,-7.1475,-7.3322,-7.5361,-7.713,-7.8323,-7.9669,-8.0669,-8.1054,-8.1093,-8.1093,-8.1093,-8.1093,-8.1093,-8.1093,-8.1093,-8.1093,-8.1093,-8.1439,-8.1631,-8.1631,-8.2439,-8.3054,-8.3439,-8.3939,-8.4593,-8.544,-8.544,-8.5548,-8.5775,-8.5514,-8.5135,-8.4688,-8.4117,-8.3736,-8.348,-8.326,-8.318,-8.318,-8.318,-8.318,-8.318,-8.318,-8.318,-8.318,0.0,0.0,0.0,0.0,0.0,0.0,0.0,0.0,0.0,0.0,-4.8546,-4.8392,-4.8392,-4.7734,0.0,0.0,0.0,0.0,0.0,0.0,-4.874,-4.9475,-5.0202,-5.0906,-5.1687,-5.2453,-5.2453,-5.1687,-5.2569,-5.2608,-5.1881,-5.2879,-5.3265,-5.3149,-5.3265,-5.3265,-5.3149,-5.3149,-5.3575,-5.4194,-5.3343,-5.3459,-5.3962,0.0,-5.1765,-5.192,-5.2268,-5.3884,-5.6128,-5.7985,-5.869,-5.9184,-6.1573,-6.2439,-6.2993,-6.5338,-6.6191,-6.6898,-6.9244,-6.986,-7.0052,-7.086,-7.0975,-7.0706,-6.9898,-6.9513,-6.9129,-6.8244,-6.7885,-6.7782,-6.8052,-6.9244,-7.0629,-7.1822,-7.4091,-7.6284,-7.8092,-7.9169,-8.0131,-8.1016,-8.1093,-8.1093,-8.1093,-8.1093,-8.1093,-8.1093,-8.1208,-8.1246,-8.1246,-8.19,-8.2401,-8.2631,-8.3362,-8.417,-8.5055,-8.5055,-8.5401,-8.6094,-8.6094,-8.5884,-8.5494,-8.5494,-8.5256,-8.4742,-8.4218,-8.3975,-8.387,-8.3404,-8.318,-8.318,-8.318,-8.318,-8.318,-8.318,-8.318,-8.318,0.0,0.0,0.0,0.0,0.0,0.0,0.0,0.0,0.0,0.0,-4.9281,-4.8392,0.0,0.0,0.0,0.0,0.0,0.0,0.0,0.0,0.0,-4.8624,-4.8778,-4.8894,-4.9049,-4.9204,-4.9204,-4.9049,-4.9939,-5.0287,-5.0171,-5.1718,-5.2028,-5.1362,-5.2105,-5.2028,-5.1362,-5.1362,-5.1439,-5.1517,-5.0674,-5.0442,-5.048,-4.9436,-4.9513,0.0,-5.2531,-5.4,-5.5393,-5.7791,-5.9068,-5.9996,-6.1805,-6.3271,-6.4574,-6.5681,-6.7448,-6.9283,-7.0398,-7.0706,-7.0898,-7.1745,-7.1437,-7.0706,-6.9898,-6.859,-6.7321,-6.6513,-6.5205,-6.4628,-6.6051,-6.6551,-6.7705,-7.0667,-7.2706,-7.4784,-7.7169,-7.8823,-8.0131,-8.1016,-8.1093,-8.1093,-8.1093,-8.1093,-8.1093,-8.1093,-8.1708,-8.2093,-8.2093,-8.2208,-8.2978,-8.4401,-8.4593,-8.5055,-8.5901,-8.5901,-8.5978,-8.6094,-8.6094,-8.606,-8.5954,-8.5954,-8.5721,-8.5238,-8.4765,-8.4292,-8.387,-8.3404,-8.318,-8.318,-8.318,-8.318,-8.318,-8.318,-8.318,-8.318,0.0,0.0,0.0,0.0,0.0,0.0,0.0,-5.1061,-5.1563,-5.1563,-5.1254,-5.0712,-4.9784,-4.932,-4.8894,0.0,0.0,0.0,0.0,0.0,0.0,-4.7695,-4.7734,-4.7927,-4.8392,-4.8392,-4.8198,-4.7734,0.0,-4.8778,-4.8353,-4.9629,-5.0016,-4.9629,-5.0055,-4.9977,-4.9591,-4.9591,-4.9591,-4.9591,-4.9165,-4.901,-4.9049,-4.9049,-4.9591,0.0,-5.2724,-5.4349,-5.5741,-5.7869,-5.9455,-6.0809,-6.252,-6.384,-6.5114,-6.6815,-6.8437,-6.9975,-7.1245,-7.1245,-7.1091,-7.1975,-7.1245,-7.0052,-6.9206,-6.7705,-6.6244,-6.5397,-6.4205,-6.3551,-6.4397,-6.5282,-6.6705,-6.9206,-7.1398,-7.386,-7.6861,-7.8361,-7.9631,-8.0939,-8.1093,-8.1093,-8.1093,-8.1093,-8.1285,-8.1708,-8.2093,-8.2285,-8.2285,-8.317,-8.4247,-8.5478,-8.5517,-8.5709,-8.6094,-8.6094,-8.6094,-8.6094,-8.6094,-8.6094,-8.6094,-8.6094,-8.5992,-8.5721,-8.4986,-8.4533,-8.4242,-8.3508,-8.318,-8.318,-8.318,-8.318,-8.318,-8.318,-8.318,-8.318,0.0,0.0,0.0,0.0,0.0,0.0,0.0,-5.1641,-5.219,-5.219,-5.2956,-5.2917,-5.137,-5.0596,-5.0094,0.0,0.0,0.0,0.0,0.0,0.0,0.0,0.0,0.0,-4.7811,0.0,0.0,-4.6806,-4.7502,0.0,0.0,0.0,0.0,0.0,-4.8043,-4.8005,-4.785,-4.785,-4.785,0.0,0.0,-4.785,-4.7966,0.0,0.0,0.0,0.0,-5.4465,-5.6051,-5.7946,-5.9609,-6.1147,-6.2779,-6.4001,-6.5307,-6.7793,-6.9079,-7.0052,-7.1745,-7.1552,-7.1052,-7.1745,-7.0783,-6.9398,-6.8129,-6.6705,-6.532,-6.4282,-6.3358,-6.282,-6.3012,-6.4282,-6.5936,-6.7821,-7.009,-7.286,-7.6245,-7.7592,-7.8861,-8.0631,-8.0977,-8.1093,-8.1093,-8.1093,-8.1439,-8.2247,-8.2631,-8.2862,-8.2862,-8.4324,-8.544,-8.6094,-8.6094,-8.6094,-8.6094,-8.6094,-8.6094,-8.6094,-8.6094,-8.6094,-8.6094,-8.6094,-8.6094,-8.6043,-8.5131,-8.4711,-8.4642,-8.362,-8.318,-8.318,-8.318,-8.318,-8.318,-8.318,-8.318,-8.318,0.0,0.0,0.0,0.0,0.0,0.0,0.0,-5.1641,-5.219,-5.219,-5.2956,-5.3149,-5.2182,-5.1997,-5.137,0.0,0.0,0.0,0.0,0.0,0.0,0.0,0.0,0.0,0.0,0.0,0.0,-4.5923,-4.6,0.0,0.0,0.0,0.0,0.0,0.0,-4.6767,-4.6039,-4.6039,0.0,0.0,0.0,0.0,0.0,0.0,0.0,0.0,0.0,-5.4116,-5.5277,-5.7753,-5.9223,-6.0287,-6.1839,-6.3467,-6.5307,-6.7853,-6.9117,-7.0052,-7.1745,-7.1552,-7.0937,-7.1014,-7.036,-6.909,-6.6667,-6.5397,-6.4243,-6.2678,-6.1627,-6.1281,-6.205,-6.2935,-6.4359,-6.6821,-6.8744,-7.1091,-7.4476,-7.6361,-7.8015,-7.9708,-8.0631,-8.1093,-8.1093,-8.1093,-8.1439,-8.2247,-8.3785,-8.467,-8.467,-8.5517,-8.6017,-8.6094,-8.6094,-8.6094,-8.6094,-8.6094,-8.6094,-8.6094,-8.6094,-8.6094,-8.6094,-8.6094,-8.6094,-8.6043,-8.5131,-8.4711,-8.4642,-8.362,-8.318,-8.318,-8.318,-8.318,-8.318,-8.318,-8.318,-8.318,0.0,0.0,0.0,0.0,0.0,0.0,-5.1602,-5.2414,-5.3149,-5.3691,-5.4503,-5.4503,-5.3111,-5.2995,-5.2298,-5.055,0.0,0.0,0.0,0.0,0.0,0.0,0.0,0.0,0.0,0.0,-4.6844,-4.7347,-4.7347,0.0,0.0,0.0,0.0,0.0,0.0,-4.6619,-4.5807,-4.5807,0.0,0.0,0.0,0.0,0.0,0.0,0.0,0.0,0.0,0.0,-5.52,-5.7753,-5.9166,-6.0104,-6.1754,-6.2695,-6.3669,-6.6215,-6.7898,-6.9283,-7.0975,-7.0821,-7.0283,-7.0783,-6.9898,-6.8398,-6.6359,-6.482,-6.3474,-6.2332,-6.1408,-6.0896,-6.1243,-6.2012,-6.3243,-6.5282,-6.7475,-7.009,-7.3514,-7.5899,-7.79,-7.9592,-8.0554,-8.1093,-8.1093,-8.1093,-8.1631,-8.2978,-8.467,-8.5632,-8.5632,-8.594,-8.6094,-8.6094,-8.6094,-8.6094,-8.6094,-8.6094,-8.6094,-8.6094,-8.6094,-8.6094,-8.6094,-8.6094,-8.6094,-8.6043,-8.5131,-8.4711,-8.4642,-8.362,-8.318,-8.318,-8.318,-8.318,-8.318,-8.318,-8.3514,-8.3923,0.0,0.0,0.0,0.0,0.0,-5.1091,-5.1718,-5.2763,-5.373,-5.4349,-5.5354,-5.5354,-5.3691,-5.3498,-5.2801,-5.1053,-5.0395,0.0,0.0,0.0,0.0,0.0,0.0,0.0,0.0,0.0,-4.7773,-4.8392,-4.8392,-4.8392,0.0,0.0,-4.8082,-4.7463,0.0,0.0,0.0,0.0,0.0,0.0,0.0,0.0,0.0,0.0,0.0,0.0,0.0,0.0,0.0,0.0,0.0,-5.965,-6.1059,-6.1797,-6.2594,-6.5177,-6.6756,-6.8013,-6.9706,-6.9744,-6.9398,-6.9706,-6.8706,-6.7205,-6.5513,-6.4012,-6.2704,-6.1897,-6.1243,-6.0781,-6.0781,-6.1524,-6.2639,-6.432,-6.6513,-6.9206,-7.2629,-7.5322,-7.7553,-7.9208,-8.04,-8.1093,-8.1093,-8.1554,-8.2324,-8.3516,-8.5132,-8.6094,-8.6094,-8.6094,-8.6094,-8.6094,-8.6094,-8.6094,-8.6094,-8.6094,-8.6094,-8.6094,-8.6094,-8.6094,-8.6094,-8.6094,-8.6094,-8.6043,-8.5131,-8.4711,-8.4642,-8.362,-8.318,-8.318,-8.318,-8.3329,-8.3552,-8.3552,-8.4035,-8.474,0.0,0.0,0.0,0.0,0.0,0.0,-5.0898,-5.2376,-5.3498,-5.3498,-5.4967,-5.5354,-5.3691,-5.3498,-5.2801,-5.1053,-5.0898,0.0,0.0,0.0,0.0,0.0,0.0,0.0,0.0,0.0,-4.8392,-4.8392,-4.8392,-4.8392,-4.8392,-4.8392,-4.8392,-4.8353,0.0,0.0,0.0,0.0,0.0,0.0,0.0,0.0,-4.8508,0.0,0.0,0.0,0.0,0.0,0.0,0.0,0.0,0.0,0.0,-6.0839,-6.2606,-6.5226,-6.596,-6.6282,-6.7975,-6.8436,-6.8205,-6.7359,-6.6513,-6.5474,-6.3743,-6.2704,-6.187,-6.0973,-6.0819,-6.0781,-6.0781,-6.1524,-6.2639,-6.432,-6.6013,-6.8321,-7.1706,-7.4399,-7.663,-7.8284,-8.0054,-8.1093,-8.1093,-8.2593,-8.3555,-8.3593,-8.5132,-8.6094,-8.6094,-8.6094,-8.6094,-8.6094,-8.6094,-8.6094,-8.6094,-8.6094,-8.6094,-8.6094,-8.6094,-8.6094,-8.6094,-8.6094,-8.6094,-8.6043,-8.5131,-8.4711,-8.4642,-8.362,-8.318,-8.318,-8.318,-8.3663,-8.4369,-8.4369,-8.4889,-8.5595,0.0,0.0,0.0,0.0,0.0,0.0,0.0,-5.226,-5.284,-5.342,-5.3962,-5.3846,-5.2724,-5.2616,-5.2144,-5.1014,-5.0898,0.0,0.0,0.0,0.0,0.0,0.0,0.0,0.0,-4.9707,-5.0403,-5.0983,-5.1602,-5.1873,-5.1873,-5.1873,-5.1254,-5.0086,-4.9823,-4.9049,0.0,0.0,0.0,0.0,0.0,-4.8508,-4.9397,0.0,0.0,0.0,0.0,0.0,0.0,0.0,0.0,0.0,0.0,0.0,0.0,-6.274,-6.3729,-6.4512,-6.6205,-6.6244,-6.5897,-6.6205,-6.5628,-6.4551,-6.2858,-6.2281,-6.187,-6.0973,-6.0781,-6.0781,-6.0781,-6.1012,-6.1743,-6.3435,-6.5166,-6.7475,-7.0821,-7.4014,-7.663,-7.8284,-8.0054,-8.1093,-8.1093,-8.2631,-8.3593,-8.3593,-8.5132,-8.6094,-8.6094,-8.6094,-8.6094,-8.6094,-8.6094,-8.6094,-8.6094,-8.6094,-8.6094,-8.6094,-8.6094,-8.6094,-8.6094,-8.6094,-8.6094,-8.6043,-8.5131,-8.4711,-8.4642,-8.362,-8.318,-8.3254,-8.3812,-8.4183,-8.448,-8.5,-8.5743,-8.6412,0.0,0.0,0.0,0.0,0.0,0.0,0.0,-5.1989,-5.2384,-5.2917,-5.3304,-5.3149,-5.2306,-5.219,-5.1834,-5.0975,-5.0898,0.0,0.0,0.0,0.0,0.0,0.0,0.0,-5.0132,-5.0983,-5.1834,-5.2693,-5.3227,-5.3498,-5.3498,-5.3498,-5.2917,-5.1834,-5.1169,-5.0318,0.0,0.0,0.0,0.0,-4.8198,-4.8933,-4.9784,0.0,0.0,0.0,0.0,0.0,0.0,0.0,0.0,0.0,0.0,0.0,0.0,0.0,-6.1704,-6.2743,-6.4436,-6.4512,-6.4243,-6.4782,-6.4282,-6.3358,-6.2332,-6.187,-6.1447,-6.0896,-6.0781,-6.0781,-6.0781,-6.105,-6.182,-6.3512,-6.5243,-6.7513,-7.0898,-7.4053,-7.6861,-7.9208,-8.0439,-8.1093,-8.1093,-8.2631,-8.3593,-8.3593,-8.5132,-8.6094,-8.6094,-8.6094,-8.6094,-8.6094,-8.6094,-8.6094,-8.6094,-8.6094,-8.6094,-8.6094,-8.6094,-8.6094,-8.6094,-8.6094,-8.6094,-8.6043,-8.5131,-8.4711,0.0,-8.362,-8.3366,-8.37,-8.4183,-8.4778,-8.5372,-8.5855,-8.6561,-8.7304,0.0,0.0,0.0,0.0,0.0,0.0,0.0,-5.1602,-5.2113,-5.2113,-5.2801,-5.2995,-5.219,-5.2113,-5.1796,-5.0975,0.0,0.0,0.0,0.0,0.0,0.0,0.0,0.0,-5.0975,-5.1912,-5.2801,-5.3691,-5.3807,-5.3846,-5.3846,-5.3846,-5.3807,-5.3614,-5.1989,-5.113,-5.0743,-4.8314,-4.7734,-4.8508,-4.8508,-4.901,0.0,0.0,0.0,0.0,0.0,0.0,0.0,0.0,0.0,0.0,0.0,0.0,0.0,0.0,0.0,0.0,0.0,-6.3128,-6.3115,-6.3192,-6.2589,-6.2024,-6.2024,-6.1358,0.0,-6.0781,-6.0781,-6.0819,-6.0858,-6.155,-6.2678,-6.4397,-6.609,-6.8398,-7.1822,-7.4591,-7.7476,-8.0708,-8.1093,-8.1093,-8.1093,-8.2631,-8.3593,-8.3593,-8.5132,-8.6094,-8.6094,-8.6094,-8.6094,-8.6094,-8.6094,-8.6094,-8.6094,-8.6094,-8.6094,-8.6094,-8.6094,-8.6094,-8.6094,-8.6094,-8.6094,-8.6043,-8.5131,-8.4711,-8.4642,-8.3695,-8.3737,-8.4406,-8.4518,-8.5483,-8.6821,-8.6858,-8.7415,-8.8084,0.0,0.0,0.0,0.0,0.0,0.0,0.0,0.0,0.0,0.0,-5.1362,-5.1439,-5.1215,-5.1215,-5.113,0.0,0.0,0.0,0.0,0.0,0.0,0.0,0.0,0.0,-5.1873,-5.3382,-5.4581,-5.5432,-5.6747,-5.7413,-5.7413,-5.7413,-5.667,-5.5393,-5.4967,-5.3335,-5.0821,-4.9591,-4.9204,-4.9397,-4.9397,-4.99,0.0,0.0,0.0,0.0,-5.2879,-5.3473,0.0,0.0,0.0,0.0,0.0,0.0,0.0,0.0,-5.9665,-6.005,-6.1089,0.0,-6.155,-6.2204,-6.1743,-6.1089,0.0,-6.0935,-6.0781,-6.0781,-6.0781,-6.1012,-6.1678,-6.1947,-6.287,-6.5205,-6.7013,-6.9283,-7.2706,-7.6476,-7.9438,-8.0939,-8.1093,-8.1093,-8.1093,-8.2631,-8.3593,-8.3593,-8.5132,-8.6094,-8.6094,-8.6094,-8.6094,-8.6094,-8.6094,-8.6094,-8.6094,-8.6094,-8.6094,-8.6094,-8.6094,-8.6094,-8.6094,-8.6094,-8.6094,-8.6043,-8.5131,-8.4711,-8.4679,-8.4293,-8.422,-8.4518,-8.5743,-8.6486,-8.6895,-8.7527,-8.7898,-8.8084,0.0,0.0,0.0,0.0,0.0,0.0,0.0,0.0,0.0,0.0,0.0,0.0,0.0,0.0,0.0,0.0,0.0,0.0,0.0,0.0,0.0,0.0,0.0,-5.1641,-5.3343,-5.4697,-5.5973,-5.7172,-5.8139,-5.8613,-5.8613,-5.8613,-5.8101,-5.7134,-5.5973,-5.4,-5.1409,-5.021,-4.99,-5.0202,-4.9861,0.0,0.0,0.0,0.0,0.0,-5.2854,-5.34,0.0,-5.5307,-5.5797,-5.5822,0.0,0.0,0.0,0.0,-5.9204,-5.9704,-6.055,-6.0781,-6.0896,-6.1408,-6.1127,-6.0781,-6.0781,-6.0781,-6.0781,-6.0781,-6.1127,-6.1562,-6.2024,-6.3063,-6.4551,-6.6705,-6.8783,-7.1475,-7.5245,-7.813,-8.0131,-8.1016,-8.1093,-8.1246,-8.1593,-8.2824,-8.3747,-8.417,-8.5363,-8.6094,-8.6094,-8.6094,-8.6094,-8.6094,-8.6094,-8.6094,-8.6094,-8.6094,-8.6094,-8.6094,-8.6094,-8.6094,-8.6094,-8.6094,-8.6094,-8.6043,-8.5131,-8.4901,-8.5186,-8.4667,-8.4852,-8.5595,-8.6449,-8.7044,-8.7452,-8.7935,-8.8084,-8.8084,0.0,0.0,0.0,0.0,0.0,0.0,0.0,0.0,0.0,0.0,0.0,0.0,0.0,0.0,0.0,0.0,0.0,0.0,0.0,0.0,0.0,0.0,-5.1796,-5.3072,-5.4929,-5.578,-5.7056,-5.8806,-5.8913,-5.899,-5.899,-5.899,-5.8836,-5.8497,-5.5935,-5.3923,-5.2306,-5.0596,-5.0279,-5.0821,-5.0171,0.0,0.0,0.0,0.0,0.0,0.0,0.0,0.0,-5.5229,-5.5756,-5.5703,-5.5703,0.0,0.0,0.0,0.0,0.0,-6.0512,-6.0781,-6.0781,-6.0781,-6.0781,-6.0819,-6.0973,-6.1012,-6.1012,-6.1166,-6.1858,-6.2524,-6.2678,-6.4628,-6.6821,-6.8513,-7.1129,-7.4322,-7.8169,-7.9438,-8.0285,-8.1016,-8.1093,-8.14,-8.2208,-8.3093,-8.3939,-8.4824,-8.567,-8.6094,-8.6094,-8.6094,-8.6094,-8.6094,-8.6094,-8.6094,-8.6094,-8.6094,-8.6094,-8.6094,-8.6094,-8.6094,-8.6094,-8.6094,-8.6094,-8.6043,-8.5245,-8.528,-8.583,-8.505,-8.5618,-8.6936,-8.7048,-8.7569,-8.8202,-8.8202,-8.8177,-8.8084,0.0,0.0,0.0,0.0,0.0,0.0,0.0,0.0,0.0,0.0,0.0,0.0,0.0,0.0,0.0,0.0,0.0,0.0,0.0,0.0,0.0,-5.195,-5.2152,-5.3343,-5.578,-5.6661,-5.7946,-5.9687,-6.0383,-6.0731,-6.0731,-6.0731,-5.9957,-5.8497,-5.5935,-5.4233,-5.3188,-5.1447,-5.0782,-5.0898,-5.0782,0.0,0.0,0.0,0.0,0.0,0.0,0.0,0.0,-5.5219,-5.5756,-5.5703,-5.5703,0.0,0.0,0.0,0.0,0.0,-6.0358,-6.0781,-6.0781,-6.0781,-6.0781,-6.0973,-6.1716,-6.1908,-6.2089,-6.2781,-6.3628,-6.4436,-6.5166,-6.6782,-6.8552,-7.0244,-7.3899,-7.7246,-7.9323,-8.0362,-8.0939,-8.1093,-8.1093,-8.14,-8.2208,-8.3093,-8.3939,-8.4824,-8.567,-8.6094,-8.6094,-8.6094,-8.6094,-8.6094,-8.6094,-8.6094,-8.6094,-8.6094,-8.6094,-8.6094,-8.6094,-8.6094,-8.6094,-8.6094,-8.6094,-8.6082,-8.5833,-8.5787,-8.5943,-8.6283,-8.6855,-8.7539,-8.8214,-8.8589,-8.8701,-8.8701,-8.8458,-8.8084,0.0,0.0,0.0,0.0,0.0,0.0,0.0,0.0,0.0,0.0,0.0,0.0,0.0,0.0,0.0,0.0,0.0,0.0,0.0,0.0,-5.1989,-5.284,-5.3768,-5.5006,-5.6661,-5.8023,-5.93,-6.0538,-6.0925,-6.1118,-6.1118,-6.1118,-6.0228,-5.8535,-5.6863,-5.5161,-5.342,-5.2144,-5.1331,-5.0898,0.0,0.0,0.0,0.0,0.0,0.0,0.0,0.0,0.0,0.0,-5.5378,-5.5703,-5.5703,0.0,0.0,0.0,0.0,0.0,-6.0319,-6.0781,-6.0896,-6.1358,-6.1512,-6.1601,-6.2024,-6.2781,-6.3551,-6.3935,-6.5051,-6.6205,-6.709,-6.8629,-7.0744,-7.386,-7.6784,-7.9092,-8.0323,-8.0862,-8.1093,-8.1093,-8.1093,-8.1593,-8.2862,-8.3362,-8.4132,-8.544,-8.5901,-8.6094,-8.6094,-8.6094,-8.6094,-8.6094,-8.6094,-8.6094,-8.6094,-8.6094,-8.6094,-8.6094,-8.6094,-8.6094,-8.6094,-8.6094,-8.6363,-8.6791,0.0,-8.684,-8.7611,-8.765,-8.8071,-8.872,-8.9072,-8.9039,-8.8748,-8.8509,-8.8286,-8.8084,0.0,0.0,0.0,0.0,0.0,0.0,0.0,0.0,0.0,0.0,0.0,0.0,0.0,0.0,0.0,0.0,0.0,0.0,0.0,-5.1718,-5.2577,-5.3459,-5.5316,-5.6699,-5.7598,-5.9106,-6.0306,-6.1118,-6.1118,-6.1118,-6.1118,-6.1118,-6.0228,-5.8574,-5.7675,-5.5896,-5.342,-5.2577,-5.1718,-5.0898,0.0,0.0,0.0,0.0,0.0,0.0,0.0,0.0,0.0,0.0,0.0,0.0,0.0,0.0,0.0,-5.778,-5.8319,-5.8665,-6.0319,-6.0935,-6.132,-6.2166,-6.2358,-6.2474,-6.2909,-6.4128,-6.5282,-6.5705,-6.6974,-6.8321,-6.9398,-7.1129,-7.3591,-7.7284,-7.8977,-8.0092,-8.0977,-8.1093,-8.1093,-8.1093,-8.1093,-8.1747,-8.3439,-8.3593,-8.4286,-8.5978,-8.6094,-8.6094,-8.6094,-8.6094,-8.6094,-8.6094,-8.6094,-8.6094,-8.6094,-8.6094,-8.6094,-8.6094,-8.6094,-8.6094,-8.6094,-8.6324,-8.6786,-8.7385,-8.7294,-8.7957,-8.91,-8.879,-8.9128,-8.9792,-8.9792,-8.9452,-8.8914,-8.8316,-8.8084,-8.8084,0.0,0.0,0.0,0.0,0.0,0.0,0.0,0.0,0.0,0.0,0.0,0.0,0.0,0.0,0.0,0.0,0.0,0.0,-5.0898,-5.1718,-5.2577,-5.3459,-5.5896,-5.7598,-5.8488,-5.9416,-6.0306,-6.1118,-6.1118,-6.1118,-6.1118,-6.1118,-6.0228,-5.8574,-5.7675,-5.5896,-5.342,-5.2577,-5.1718,-5.0898,-5.0898,0.0,0.0,0.0,0.0,0.0,0.0,0.0,0.0,0.0,0.0,0.0,0.0,0.0,-5.6049,-5.778,-5.8319,-5.8665,-6.0319,-6.1408,-6.2216,-6.3012,-6.3205,-6.3628,-6.5243,-6.6282,-6.7359,-6.9013,-7.0014,-7.1129,-7.2822,-7.5168,-7.7438,-7.9323,-7.9708,-8.0092,-8.0977,-8.1093,-8.1093,-8.1093,-8.1093,-8.1747,-8.3439,-8.3593,-8.4286,-8.5978,-8.6094,-8.6094,-8.6094,-8.6094,-8.6094,-8.6094,-8.6094,-8.6094,-8.6094,-8.6094,-8.6094,-8.6094,-8.6094,-8.6094,-8.6132,-8.694,-8.7325,-8.7462,-8.8481,-8.8968,-8.9138,-8.9398,-8.9847,-9.036,-9.036,-8.9999,-8.9427,-8.8428,-8.8084,-8.8084,0.0,0.0,0.0,0.0,0.0,0.0,0.0,0.0,0.0,0.0,0.0,0.0,0.0,0.0,0.0,0.0,0.0,0.0,-5.0898,-5.2221,-5.3149,-5.3498,-5.6476,-5.8255,-5.8613,-5.9957,-6.0809,-6.1118,-6.1118,-6.1118,-6.1118,-6.1118,-6.0499,-5.9377,-5.8488,-5.6979,-5.4967,-5.3575,-5.2476,-5.16,-5.1098,-5.088,0.0,0.0,0.0,0.0,0.0,0.0,0.0,0.0,-5.4241,-5.5049,-5.5549,-5.6049,-5.6742,-5.7934,-5.8665,-5.9435,-6.1127,-6.2204,-6.3166,-6.4589,-6.6128,-6.7321,-6.7436,-6.8513,-6.9975,-7.1706,-7.2706,-7.3822,-7.5553,-7.7515,-7.9054,-7.9708,-8.0246,-8.0708,-8.1054,-8.1093,-8.1093,-8.1093,-8.1093,-8.1747,-8.3439,-8.3593,-8.4286,-8.5978,-8.6094,-8.6094,-8.6094,-8.6094,-8.6094,-8.6094,-8.6094,-8.6094,-8.6094,-8.6094,-8.6094,-8.6094,-8.6094,-8.6363,-8.6901,-8.7248,-8.7979,-8.8962,-8.9396,-8.9917,-9.0436,-9.0549,-9.0704,-9.082,-9.0171,-8.9769,-8.9477,-8.8458,-8.8084,-8.8084,0.0,0.0,0.0,0.0,0.0,0.0,0.0,0.0,0.0,0.0,0.0,0.0,0.0,0.0,0.0,0.0,0.0,0.0,-5.0898,-5.2531,-5.3498,-5.3498,-5.6786,-5.8613,-5.8613,-6.0228,-6.1118,-6.1118,-6.1118,-6.1118,-6.1118,-6.1118,-6.0538,-5.9455,-5.8874,-5.7482,-5.5548,-5.437,-5.3185,-5.2039,-5.1481,-5.1061,0.0,0.0,0.0,0.0,0.0,0.0,0.0,0.0,-5.3549,-5.4587,-5.5164,-5.6099,-5.7176,-5.805,-5.8858,-5.9896,-6.1639,-6.2897,-6.4205,-6.6205,-6.8398,-7.0206,-7.0706,-7.1475,-7.2591,-7.4361,-7.5553,-7.6669,-7.7861,-7.9246,-8.0208,-8.0208,-8.0708,-8.1093,-8.1093,-8.1093,-8.1093,-8.1093,-8.1093,-8.1747,-8.3439,-8.3593,-8.4286,-8.5978,-8.6094,-8.6094,-8.6094,-8.6094,-8.6094,-8.6094,-8.6094,-8.6094,-8.6094,-8.6094,-8.6094,-8.6094,-8.6363,-8.6824,-8.7401,-8.7671,-8.8556,-8.994,-9.021,-9.0671,-9.121,-9.121,-9.121,-9.11,-9.0037,-8.9601,-8.9477,-8.8458,-8.8084,-8.8115,0.0,0.0,0.0,0.0,0.0,0.0,0.0,0.0,0.0,0.0,0.0,0.0,0.0,0.0,0.0,0.0,0.0,0.0,-5.0898,-5.2531,-5.3498,-5.3498,-5.6747,-5.8613,-5.8613,-6.0228,-6.1118,-6.1118,-6.1118,-6.1118,-6.1118,-6.1118,-6.0228,-5.8613,-5.8613,-5.7172,-5.4813,-5.4723,-5.37,-5.2108,-5.2094,-5.1547,-5.0701,0.0,0.0,0.0,0.0,0.0,0.0,0.0,-5.3049,-5.4472,-5.4472,-5.5626,-5.7176,-5.805,-5.8896,-5.9896,-6.1639,-6.332,-6.5205,-6.7782,-6.9667,-7.1822,-7.5245,-7.5361,-7.5207,-7.6938,-7.8669,-7.9823,-7.9823,-8.0516,-8.1093,-8.1093,-8.1093,-8.1093,-8.1093,-8.1093,-8.1093,-8.1093,-8.1093,-8.1747,-8.3439,-8.3593,-8.4286,-8.5978,-8.6094,-8.6094,-8.6094,-8.6094,-8.6094,-8.6094,-8.6094,-8.6094,-8.6094,-8.6094,-8.6094,-8.6094,-8.6978,-8.7401,-8.744,-8.8286,-8.9133,-8.9979,-9.0825,-9.121,-9.121,-9.121,-9.121,-9.11,-9.0037,-8.9601,-8.9477,-8.8458,-8.8115,-8.8171,0.0,0.0,0.0,0.0,0.0,0.0,0.0,0.0,0.0,0.0,0.0,0.0,0.0,0.0,0.0,0.0,0.0,0.0,-5.0898,-5.2531,-5.3498,-5.3498,-5.6205,-5.7985,-5.8613,-6.0228,-6.1118,-6.1118,-6.1118,-6.1118,-6.1118,-6.1118,-6.0538,-5.9493,-5.8874,-5.7812,-5.6393,-5.5216,-5.4003,-5.2906,-5.2271,-5.1501,-5.0693,0.0,0.0,0.0,0.0,0.0,0.0,0.0,0.0,0.0,-5.4126,-5.5626,-5.7176,-5.805,-5.9319,-6.0781,-6.2474,-6.4205,-6.6128,-6.8667,-7.1475,-7.4168,-7.6399,-7.6245,-7.6284,-7.8592,-7.9939,-8.0708,-8.0708,-8.0939,-8.1093,-8.1093,-8.1093,-8.1093,-8.1093,-8.1093,-8.1093,-8.1093,-8.1093,-8.1747,-8.3439,-8.3593,-8.4286,-8.5978,-8.6094,-8.6094,-8.6094,-8.6094,-8.6094,-8.6094,-8.6094,-8.6094,-8.6094,-8.6094,-8.6094,-8.6094,-8.6978,-8.7709,-8.8325,-8.9171,-9.0017,-9.0825,-9.1095,-9.121,-9.121,-9.121,-9.121,-9.11,-9.0037,-8.9601,-8.9527,-8.8832,-8.8596,-8.8644,0.0,0.0,0.0,0.0,0.0,0.0,0.0,0.0,-5.0898,-5.0898,-5.0898,-5.0898,0.0,0.0,0.0,-5.0898,-5.0898,-5.0898,-5.0898,-5.2221,-5.3149,-5.3459,-5.5625,-5.7366,-5.8574,-5.9571,-6.0267,-6.0615,-6.0925,-6.1118,-6.1118,-6.1118,-6.0499,-5.9339,-5.8818,-5.7871,-5.6636,-5.5595,-5.442,-5.3244,-5.2685,-5.177,-5.0712,0.0,0.0,0.0,0.0,0.0,0.0,0.0,0.0,0.0,-5.3549,-5.5357,-5.7176,-5.805,-5.9473,-6.1166,-6.2858,-6.4589,-6.659,-6.9475,-7.2476,-7.5322,-7.7746,-7.8169,-7.8477,-8.0015,-8.0746,-8.1093,-8.1093,-8.1093,-8.1093,-8.1093,-8.1093,-8.1093,-8.1093,-8.1093,-8.1093,-8.1093,-8.1093,-8.1747,-8.3439,-8.3593,-8.4286,-8.5978,-8.6094,-8.6094,-8.6094,-8.6094,-8.6094,-8.6094,-8.6094,-8.6094,-8.6094,-8.6094,-8.6286,-8.6632,-8.7517,-8.8363,-8.9171,-8.9671,-9.0402,-9.121,-9.121,-9.121,-9.121,-9.121,-9.121,-9.11,-9.0236,-8.9908,-8.9839,-8.9326,-8.9118,-8.9197,0.0,0.0,0.0,0.0,0.0,0.0,0.0,-5.0898,-5.0898,-5.0898,-5.0898,-5.0898,0.0,0.0,0.0,-5.0898,-5.0898,-5.0898,-5.0898,-5.1718,-5.2539,-5.3343,-5.5006,-5.667,-5.8333,-5.8449,-5.8913,-5.9764,-6.0576,-6.1041,-6.1118,-6.1118,-6.019,-5.8604,-5.8519,-5.7564,-5.5961,-5.5827,-5.4823,-5.3273,-5.3223,-5.2202,-5.0712,-5.0712,0.0,0.0,0.0,0.0,0.0,0.0,0.0,0.0,-5.2895,-5.4857,-5.6983,-5.8011,-5.9435,-6.105,-6.282,-6.4589,-6.6705,-7.0052,-7.2976,-7.5899,-7.9169,-8.0516,-8.1093,-8.1093,-8.1093,-8.1093,-8.1093,-8.1093,-8.1093,-8.1093,-8.1093,-8.1093,-8.1093,-8.1093,-8.1093,-8.1093,-8.1093,-8.1747,-8.3439,-8.3593,-8.4286,-8.5978,-8.6094,-8.6094,-8.6094,-8.6094,-8.6094,-8.6094,-8.6094,-8.6094,-8.6094,-8.6094,-8.6555,-8.7401,-8.8286,-8.9133,-8.9902,-8.9979,-9.0441,-9.121,-9.121,-9.121,-9.121,-9.121,-9.121,-9.1175,-9.0605,-9.0402,-9.036,-8.9839,-8.9673,-8.9745,0.0,0.0,0.0,0.0,0.0,0.0,-5.0898,-5.0898,-5.0898,-5.0898,-5.0898,-5.0898,-5.0898,-5.0898,0.0,-5.0898,-5.0898,-5.0898,-5.0898,-5.1718,-5.2268,-5.2461,-5.4155,-5.5548,-5.6553,-5.725,-5.8023,-5.8874,-5.9725,-6.046,-6.1118,-6.1118,-6.0171,-5.851,-5.85,-5.7526,-5.5827,-5.5807,-5.4803,-5.3213,-5.3203,-5.2202,-5.0712,-5.0712,-5.0712,0.0,0.0,0.0,0.0,0.0,0.0,0.0,-5.2741,-5.4049,-5.5472,-5.7665,-5.9011,-6.0281,-6.2666,-6.4589,-6.6705,-7.0052,-7.4322,-7.8207,-8.0323,-8.0977,-8.1093,-8.1093,-8.1093,-8.1093,-8.1093,-8.1093,-8.1093,-8.1093,-8.1093,-8.1093,-8.1093,-8.1093,-8.1093,-8.1093,-8.1093,-8.1747,-8.3439,-8.3593,-8.4286,-8.5978,-8.6094,-8.6094,-8.6094,-8.6094,-8.6094,-8.6094,-8.6094,-8.6094,-8.6094,-8.6094,-8.6555,-8.7401,-8.8286,-8.9133,-8.994,-9.0633,-9.1018,-9.121,-9.121,-9.121,-9.121,-9.121,-9.121,-9.1175,-9.0605,-9.0402,-9.0402,-9.0258,-9.0215,-9.0236,0.0,0.0,0.0,0.0,0.0,0.0,0.0,0.0,-5.0898,-5.0898,-5.0898,-5.0898,-5.0898,-5.0898,0.0,0.0,-5.0898,-5.0898,-5.0898,-5.1331,-5.1757,-5.219,-5.3459,-5.4387,-5.4774,-5.5238,-5.6089,-5.7366,-5.7791,-5.8681,-5.988,-5.9862,-5.9138,-5.7873,-5.7825,-5.7081,-5.5787,-5.5766,-5.5004,-5.378,-5.3356,-5.2433,-5.1241,-5.0866,-5.0712,-5.0712,-5.0712,0.0,0.0,0.0,0.0,0.0,0.0,0.0,-5.4934,-5.7049,-5.855,-6.005,-6.2627,-6.4589,-6.709,-7.2091,-7.5938,-7.8938,-8.0708,-8.1093,-8.1093,-8.1093,-8.1093,-8.1093,-8.1093,-8.1093,-8.1093,-8.1093,-8.1093,-8.1093,-8.1093,-8.1093,-8.1093,-8.1093,-8.1093,-8.1747,-8.3439,-8.3593,-8.4286,-8.5978,-8.6094,-8.6094,-8.6094,-8.6094,-8.6094,-8.6094,-8.6094,-8.6094,-8.6094,-8.6517,-8.7171,-8.8017,-8.8863,-8.971,-9.0556,-9.0979,-9.121,-9.121,-9.121,-9.121,-9.121,-9.121,-9.121,-9.1192,-9.0915,-9.0781,-9.0781,-9.0781,-9.0781,-9.0781,0.0,0.0,0.0,0.0,0.0,0.0,0.0,0.0,0.0,-5.0898,-5.0898,-5.0898,-5.0898,-5.0898,-5.0898,0.0,0.0,0.0,-5.0898,-5.0898,-5.1215,-5.195,-5.2685,-5.3111,-5.3265,-5.3265,-5.4116,-5.578,-5.578,-5.6583,-5.8169,-5.8403,-5.8027,-5.7207,-5.7109,-5.6596,-5.5776,-5.5724,-5.5241,-5.4434,-5.3703,-5.2895,-5.2038,-5.1395,-5.1135,-5.1135,-5.1135,-5.101,-5.0894,-5.0894,0.0,0.0,0.0,0.0,-5.4626,-5.6445,-5.8088,-5.9858,-6.2397,-6.4782,-6.8052,-7.4245,-7.713,-7.89,-8.0516,-8.0977,-8.1093,-8.1093,-8.1093,-8.1093,-8.1093,-8.1093,-8.1093,-8.1093,-8.1093,-8.1093,-8.1093,-8.1093,-8.1093,-8.1093,-8.1093,-8.1747,-8.3439,-8.3593,-8.4286,-8.5978,-8.6094,-8.6094,-8.6094,-8.6094,-8.6094,-8.6094,-8.6094,-8.6094,-8.6094,-8.6978,-8.7825,-8.8709,-8.9671,-9.0517,-9.121,-9.121,-9.121,-9.121,-9.121,-9.121,-9.121,-9.121,-9.121,-9.121,-9.121,-9.121,-9.121,-9.121,-9.121,-9.1192,0.0,0.0,0.0,0.0,0.0,0.0,0.0,0.0,0.0,0.0,-5.0898,-5.0898,-5.0898,-5.0898,-5.0898,-5.0898,-5.0898,-5.0898,-5.0898,0.0,0.0,-5.1053,-5.1169,-5.1602,-5.2345,-5.2384,-5.3227,-5.4967,-5.4967,-5.5445,-5.6375,-5.7805,-5.8008,-5.7197,-5.7138,-5.6575,-5.5714,-5.5714,-5.5241,-5.4472,-5.4357,-5.3818,-5.301,-5.2895,-5.2856,-5.2856,-5.2856,-5.2395,-5.1731,-5.1731,-5.1279,0.0,0.0,0.0,-5.3857,-5.6291,-5.7703,-5.9011,-6.155,-6.5628,-7.0129,-7.3937,-7.6707,-7.8746,-7.9746,-8.0554,-8.1093,-8.1093,-8.1093,-8.1093,-8.1093,-8.1093,-8.1093,-8.1093,-8.1093,-8.1093,-8.1093,-8.1093,-8.1093,-8.1093,-8.1093,-8.1747,-8.3439,-8.3593,-8.4286,-8.5978,-8.6094,-8.6094,-8.6094,-8.6094,-8.6094,-8.6094,-8.6094,-8.6094,-8.6094,-8.6978,-8.7825,-8.8709,-9.0287,-9.1095,-9.121,-9.121,-9.121,-9.121,-9.121,-9.121,-9.121,-9.121,-9.121,-9.121,-9.121,-9.121,-9.121,-9.121,-9.121,-9.1118,0.0,0.0,0.0,0.0,0.0,0.0,0.0,0.0,0.0,0.0,0.0,-5.0898,-5.0898,-5.0898,-5.0898,-5.0898,-5.0898,-5.0898,-5.0898,-5.0898,-5.0898,-5.0898,-5.0898,-5.1091,-5.1447,-5.1486,-5.2105,-5.3343,-5.3782,-5.4452,-5.5314,-5.6464,-5.6782,-5.6405,-5.6354,-5.6081,-5.5703,-5.5703,-5.5511,-5.5126,-5.4664,-5.428,-5.3895,-5.3395,-5.351,-5.3857,-5.3395,-5.328,-5.328,-5.2779,-5.2087,-5.1433,-5.1769,0.0,0.0,0.0,-5.6896,-5.905,-6.2551,-6.6167,-6.9783,-7.3168,-7.5938,-7.8169,-7.9515,-8.0477,-8.1093,-8.1093,-8.1093,-8.1093,-8.1093,-8.1093,-8.1093,-8.1093,-8.1093,-8.1093,-8.1093,-8.1093,-8.1093,-8.1093,-8.1516,-8.2247,-8.3478,-8.4055,-8.4824,-8.6017,-8.6094,-8.6094,-8.6094,-8.6094,-8.6094,-8.6094,-8.6094,-8.6324,-8.6824,-8.7671,-8.8786,-9.0094,-9.0864,-9.121,-9.121,-9.121,-9.121,-9.121,-9.121,-9.121,-9.121,-9.121,-9.121,-9.121,-9.121,-9.121,-9.121,-9.121,-9.121,-9.1195,0.0,0.0,0.0,0.0,0.0,0.0,0.0,0.0,0.0,0.0,0.0,-5.0898,-5.0898,0.0,0.0,0.0,-5.0898,-5.0898,-5.0898,-5.0898,-5.0821,-5.0589,-5.0589,-5.0473,-5.0279,-5.0473,-5.1022,-5.1873,-5.2674,-5.3498,-5.4378,-5.5104,-5.5478,-5.5458,-5.5609,-5.5703,-5.5703,-5.5703,-5.5703,-5.5665,-5.528,-5.5126,-5.5088,-5.4664,-5.4895,-5.5395,-5.4741,-5.478,-5.5011,-5.4126,-5.328,-5.25,-5.2308,-5.2818,0.0,0.0,0.0,-5.9396,-6.2974,-6.582,-6.8552,-7.1745,-7.4591,-7.7015,-7.8515,-7.9823,-8.0785,-8.0785,-8.0939,-8.1093,-8.1093,-8.1093,-8.1093,-8.1093,-8.1093,-8.1093,-8.1093,-8.1093,-8.1093,-8.1093,-8.1823,-8.2631,-8.3516,-8.4401,-8.5247,-8.6055,-8.6094,-8.6094,-8.6094,-8.6094,-8.6094,-8.6094,-8.6094,-8.6517,-8.7401,-8.8479,-8.9748,-9.121,-9.121,-9.121,-9.121,-9.121,-9.121,-9.121,-9.121,-9.121,-9.121,-9.121,-9.121,-9.121,-9.121,-9.121,-9.121,-9.121,-9.1254,-9.1317,0.0,0.0,0.0,0.0,0.0,0.0,0.0,0.0,0.0,0.0,0.0,-5.0898,-5.0898,-5.0898,-5.0898,-5.0898,-5.0898,-5.0898,-5.0898,-5.0898,-5.055,-4.9784,-4.9745,0.0,-4.8546,-4.9359,-5.0171,-5.0975,-5.1785,-5.2593,-5.3406,-5.4198,-5.4572,-5.4598,-5.5357,-5.5703,-5.5703,-5.5703,-5.5703,-5.578,-5.656,-5.6868,-5.6945,-5.7742,-5.805,-5.8088,-5.805,-5.7511,-5.6753,-5.5857,-5.5011,-5.4203,-5.3395,-5.3741,-5.4587,0.0,0.0,0.0,-6.1704,-6.4089,-6.6667,-6.9244,-7.2399,-7.5091,-7.5976,-7.8092,-7.9862,-7.9862,-8.0516,-8.1093,-8.1093,-8.1093,-8.1093,-8.1093,-8.1093,-8.1093,-8.1093,-8.1093,-8.1093,-8.1093,-8.1823,-8.2631,-8.3516,-8.4401,-8.5247,-8.6055,-8.6094,-8.6094,-8.6094,-8.6094,-8.6094,-8.6094,-8.6094,-8.6517,-8.7401,-8.9017,-9.0325,-9.121,-9.121,-9.121,-9.121,-9.121,-9.121,-9.121,-9.121,-9.121,-9.121,-9.121,-9.121,-9.121,-9.121,-9.121,-9.121,-9.121,-9.1337,-9.1586,0.0,0.0,0.0,0.0,0.0,0.0,0.0,0.0,0.0,0.0,0.0,0.0,0.0,-5.0898,-5.0898,-5.0898,-5.0898,-5.0898,-5.0898,-5.0434,-5.0016,-4.9707,-4.9165,-4.8701,-4.8392,-4.8701,-4.9266,-5.0054,-5.0855,-5.1699,-5.2463,-5.3291,-5.3685,-5.3741,-5.5088,-5.5703,-5.5742,-5.6291,-5.6522,-5.6599,-5.7473,-5.7819,-5.7857,-5.8165,-5.8973,-5.9819,-5.9281,-5.9242,-5.9319,-5.8434,-5.7242,-5.5945,-5.5088,-5.5011,-5.5434,-5.6291,-5.7176,-5.8396,-6.0639,-6.232,-6.4217,-6.7282,-7.0167,-7.2783,-7.4707,-7.713,-7.9131,-7.9669,-8.0477,-8.1093,-8.1093,-8.1093,-8.1093,-8.1093,-8.1093,-8.1093,-8.1093,-8.1093,-8.1093,-8.1093,-8.2285,-8.3247,-8.3555,-8.4863,-8.5786,-8.6094,-8.6094,-8.6094,-8.6094,-8.6094,-8.6094,-8.6094,-8.6094,-8.6786,-8.8209,-8.9902,-9.0902,-9.121,-9.121,-9.121,-9.121,-9.121,-9.121,-9.121,-9.121,-9.121,-9.121,-9.121,-9.121,-9.121,-9.121,-9.1556,-9.1982,-9.1606,-9.1865,-9.2395,0.0,0.0,0.0,0.0,0.0,0.0,0.0,0.0,-5.1757,-5.1757,0.0,0.0,0.0,0.0,-5.1641,-5.137,-5.1053,-5.0898,-5.0898,-5.0171,-4.9591,-4.9281,-4.843,-4.7843,-4.7526,-4.7796,-4.8199,-4.8739,-4.9847,-5.0652,-5.1163,-5.2261,-5.2769,-5.2856,-5.4549,-5.528,-5.5357,-5.6522,-5.6983,-5.7099,-5.8242,-5.8896,-5.9165,-5.9473,-6.0627,-6.2012,-6.1435,-6.1589,-6.1897,-6.0742,-5.9435,-5.8099,-5.6934,-5.6357,-5.6252,-5.683,-5.6983,-5.7445,-5.9435,-6.0781,-6.2397,-6.5474,-6.7975,-7.0283,-7.286,-7.5399,-7.7476,-7.8361,-7.9669,-8.0669,-8.0669,-8.09,-8.1093,-8.1093,-8.1093,-8.1093,-8.1093,-8.1093,-8.1093,-8.1093,-8.2593,-8.3593,-8.3593,-8.5132,-8.6094,-8.6094,-8.6094,0.0,-8.6094,-8.6094,-8.6247,-8.6517,-8.6824,-8.7671,-8.9094,-9.0517,-9.121,-9.121,-9.121,-9.121,-9.121,-9.121,-9.121,-9.121,-9.121,-9.121,-9.121,-9.121,-9.121,-9.1248,-9.1518,-9.1851,-9.2162,-9.2053,-9.236,-9.2719,0.0,0.0,0.0,0.0,0.0,0.0,-5.3382,-5.3536,-5.3536,-5.3536,0.0,0.0,0.0,0.0,0.0,-5.2306,-5.1447,-5.0937,-5.0937,-5.0171,-4.932,-4.843,0.0,0.0,-4.5827,-4.6638,-4.704,-4.7,-4.8647,-4.943,-4.9498,-5.1068,-5.1846,-5.1885,-5.3664,-5.4434,-5.4549,-5.6329,-5.706,-5.7176,-5.8896,-6.0089,-6.0973,-6.187,-6.3243,-6.4705,-6.4743,-6.4743,-6.4474,-6.2781,-6.1639,-6.0589,-5.8896,-5.7742,-5.7022,-5.7022,-5.7022,-5.7214,0.0,0.0,0.0,-6.3897,-6.5782,-6.7667,-7.0206,-7.2783,-7.4861,-7.5745,-7.7938,-7.9746,-7.9746,-8.0477,-8.1054,-8.1054,-8.1093,-8.1093,-8.1093,-8.1093,-8.1093,-8.1093,-8.2593,-8.3593,-8.3593,-8.5132,-8.6094,-8.6094,-8.6094,-8.6094,-8.6094,-8.6094,-8.6517,-8.7363,-8.8248,-8.9094,-8.9902,-9.0748,-9.121,-9.121,-9.121,-9.121,-9.121,-9.121,-9.121,-9.121,-9.121,-9.121,-9.121,-9.121,-9.121,-9.1325,-9.2172,-9.2162,-9.1816,-9.2597,-9.2771,-9.2567,0.0,0.0,0.0,0.0,0.0,-5.3227,-5.3459,-5.4039,-5.4426,0.0,0.0,0.0,-5.4503,-5.3884,-5.3382,-5.3149,-5.2337,-5.1834,-5.1834,-5.0519,-4.932,-4.843,-4.7557,-4.6684,-4.5827,-4.599,-4.6375,-4.6943,-4.7388,-4.7901,-4.8528,-4.9596,-5.0087,-5.0164,-5.1856,-5.2972,-5.3741,-5.6703,-5.7934,-5.8127,-6.0435,-6.1858,-6.2781,-6.4282,-6.5897,-6.7436,-6.8052,-6.7898,-6.7167,-6.609,-6.4743,-6.3166,-6.0819,-5.9127,-5.7819,-5.7176,-5.7434,-5.7973,-5.8242,0.0,0.0,0.0,0.0,0.0,-6.7705,-7.0591,-7.3129,-7.4014,-7.6207,-7.7977,-7.7977,-7.9169,-8.0169,-8.0169,-8.0708,-8.1093,-8.1093,-8.1093,-8.1093,-8.1093,-8.2593,-8.3593,-8.3593,-8.5132,-8.6094,0.0,-8.6094,-8.6094,-8.6094,-8.6094,-8.6517,-8.7363,-8.8248,-8.9094,-8.9902,-9.0748,-9.121,-9.121,-9.121,-9.121,-9.121,-9.121,-9.121,-9.121,-9.121,-9.121,-9.121,-9.121,-9.1556,-9.2172,-9.2402,-9.3156,-9.3965,-9.3396,-9.3542,-9.3893,0.0,0.0,-5.3033,-5.3884,-5.431,-5.4658,-5.5045,-5.5818,-5.6399,0.0,0.0,0.0,-5.6437,-5.5625,-5.4929,-5.4581,-5.3768,-5.2995,-5.2268,-5.0967,-4.98,-4.8949,-4.7712,-4.6831,-4.6267,-4.5904,-4.5902,-4.6352,-4.6737,-4.7142,-4.7625,-4.8471,-4.9048,-4.9471,-5.0818,-5.2087,-5.3395,-5.6472,-5.7973,-5.8511,-6.105,-6.2781,-6.4051,-6.5743,-6.7898,-7.0052,-7.0552,-7.0667,-7.0283,-6.8706,-6.659,-6.4282,-6.2435,-6.0704,-5.9165,-5.828,-5.8165,-5.8357,-5.8704,-5.9127,-5.9935,-6.1678,0.0,0.0,-6.5667,-6.8129,-7.0321,-7.1206,-7.3707,-7.5707,-7.5707,-7.74,-7.8746,-7.8746,-7.9477,-8.0285,-8.1016,-8.1093,-8.1093,-8.1093,-8.2247,-8.3054,-8.3054,-8.4593,-8.5593,-8.5593,-8.5901,-8.6094,-8.6094,-8.6094,-8.6671,-8.7902,-8.844,-8.9248,-9.0441,-9.0941,-9.121,-9.121,-9.121,-9.121,-9.121,-9.121,-9.121,-9.121,-9.121,-9.121,-9.1248,-9.1595,-9.2056,-9.2538,-9.3025,-9.3792,-9.4574,-9.3783,-9.3817,-9.416,0.0,0.0,-5.3962,-5.5045,-5.5741,-5.6429,-5.7318,-5.8178,-5.8729,0.0,-5.8729,-5.8729,-5.8729,-5.7985,-5.7125,-5.636,-5.5539,-5.4379,-5.2724,-5.1708,-5.0756,-4.979,-4.805,-4.7075,-4.6917,-4.6116,-4.5676,-4.5594,-4.6394,-4.6778,-4.6778,-4.7586,-4.8432,-4.9279,-5.0173,-5.1587,-5.351,-5.5846,-5.7511,-5.8781,-6.1243,-6.3243,-6.4936,-6.6821,-6.959,-7.2514,-7.2706,-7.3245,-7.3553,-7.0975,-6.7859,-6.4859,-6.4012,-6.2589,-6.1012,-5.9935,-5.9204,-5.8858,-5.9358,-5.9588,-6.0012,-6.1562,-6.2024,0.0,-6.3974,-6.5628,-6.7051,-6.7821,-7.0629,-7.2937,-7.2937,-7.5091,-7.6861,-7.6861,-7.763,-7.8861,-8.0708,-8.0977,-8.0977,-8.1093,-8.1823,-8.2285,-8.2285,-8.3785,-8.4747,-8.4747,-8.5517,-8.6017,-8.6094,-8.6209,-8.7017,-8.8632,-8.8786,-8.9594,-9.1171,-9.121,-9.121,-9.121,-9.121,-9.121,-9.121,-9.121,-9.121,-9.121,-9.121,-9.1248,-9.1402,-9.2287,-9.2633,-9.2751,-9.3782,-9.4239,-9.4281,-9.3951,-9.3856,-9.3798,-5.4,-5.4426,-5.5238,-5.7482,-5.7404,-5.7327,-5.8217,-5.9068,-5.9648,-5.9648,-5.9648,-5.9648,-5.9648,-5.8874,-5.8294,-5.8101,-5.7253,-5.6298,-5.5332,-5.3742,-5.2171,-5.0628,-4.8896,-4.7628,-4.6917,-4.6044,-4.5603,-4.5594,-4.5787,-4.5855,-4.5855,-4.674,-4.7586,-4.8394,-4.924,-5.1356,-5.4318,-5.5472,-5.7627,-6.0473,-6.232,-6.4089,-6.5974,-6.9013,-7.186,-7.4399,-7.5784,-7.6399,-7.6169,-7.363,-7.0514,-6.7513,-6.6628,-6.5205,-6.3435,-6.1204,-6.0935,-6.1089,-5.9858,-6.0012,-6.0627,-6.0973,-6.1601,0.0,-6.2524,-6.3858,-6.5128,-6.532,-6.7513,-6.9385,-6.9385,-7.2052,-7.4245,-7.4245,-7.5515,-7.7323,-7.9708,-8.0054,-8.0323,-8.1016,-8.1823,-8.2285,-8.2285,-8.3247,-8.3862,-8.3862,-8.4632,-8.544,-8.6055,-8.6786,-8.7632,-8.8671,-8.9325,-9.0171,-9.121,-9.121,-9.121,-9.121,-9.121,-9.121,-9.121,-9.121,-9.121,-9.121,-9.121,-9.1595,-9.2326,-9.3133,-9.348,-9.352,-9.4011,-9.4583,-9.5066,-9.414,-9.4076,-9.4367,-5.4542,-5.5122,-5.6089,-5.8217,-5.8255,-5.8255,-5.9106,-6.0344,-6.1157,-6.1157,-6.1543,-6.1785,-6.1785,-6.1398,-6.076,-5.9891,-5.936,-5.8365,-5.6667,-5.5278,-5.3783,-5.2126,-5.0384,-4.8854,-4.7536,-4.6672,-4.6047,-4.5594,-4.5594,-4.5594,-4.5633,-4.6509,-4.7317,-4.8163,-4.9471,-5.1702,-5.4587,-5.5818,-5.805,-6.0973,-6.3089,-6.5243,-6.7513,-7.0898,-7.3783,-7.6169,-7.7438,-7.763,-7.7053,-7.5322,-7.3053,-7.0667,-6.8936,-6.7513,-6.6013,-6.3435,-6.3012,-6.2974,-6.1243,-6.1127,-6.1331,-6.0896,-6.1127,0.0,0.0,-6.2435,-6.3358,-6.3358,-6.5013,-6.6628,-6.709,-6.9244,-7.1091,-7.1552,-7.2668,-7.4053,-7.5784,-7.7476,-7.9015,-8.0285,-8.04,-8.0746,-8.1631,-8.2093,-8.2708,-8.3516,-8.4401,-8.5093,-8.5478,-8.6709,-8.7786,-8.8671,-8.9479,-9.0325,-9.121,-9.121,-9.121,-9.121,-9.121,-9.121,-9.121,-9.121,-9.121,-9.121,-9.1672,-9.2095,-9.2595,-9.3826,-9.4177,-9.3981,-9.4273,-9.4799,-9.5295,-9.4215,-9.4287,-9.4929,-5.5122,-5.5935,-5.7056,-5.8758,-5.8952,-5.9145,-5.9996,-6.1427,-6.2511,-6.2859,-6.3516,-6.4029,-6.4145,-6.4184,-6.3535,-6.1901,-6.1726,-6.0614,-5.8006,-5.6991,-5.5699,-5.385,-5.1924,-5.0202,-4.8625,-4.7625,-4.6701,-4.5864,-4.5864,-4.5748,-4.5633,-4.6509,-4.7432,-4.8432,-5.0164,-5.2433,-5.5088,-5.6791,-5.905,-6.1743,-6.432,-6.6551,-6.8769,-7.2206,-7.5091,-7.7438,-7.8592,-7.8477,-7.7669,-7.6976,-7.563,-7.3822,-7.1437,-7.009,-6.8846,-6.6128,-6.532,-6.4936,-6.3089,-6.2435,-6.2127,-6.1243,-6.0935,-6.0781,0.0,0.0,0.0,-6.187,-6.3051,-6.432,-6.5051,-6.6551,-6.7782,-6.8167,-6.9206,-7.0129,-7.0667,-7.3553,0.0,-7.8554,-7.8323,0.0,-8.0208,-8.0669,-8.1554,-8.3208,-8.4016,-8.4555,-8.4901,-8.6478,-8.7786,-8.8671,-8.9633,-9.0479,-9.121,-9.121,-9.121,-9.121,-9.121,-9.121,-9.121,-9.121,-9.121,-9.1248,-9.2133,-9.2595,-9.2826,-9.4252,-9.4612,-9.4289,-9.449,-9.4855,-9.5119,-9.416,-9.4474,-9.5341,-5.7009,-5.7714,-5.8836,-6.0538,-6.0228,-6.0035,-6.0847,-6.1776,-6.2936,-6.4483,-6.4793,-6.5102,-6.5837,-6.5915,-6.5507,-6.4518,-6.4398,-6.3263,-6.0652,-5.9595,-5.7984,-5.5521,-5.3087,-5.1356,-5.0442,-4.8817,-4.7586,-4.674,-4.674,-4.6355,-4.5633,-4.6509,-4.774,-4.9317,-5.101,-5.3626,-5.683,-5.8511,-6.1127,-6.4397,-6.6936,-6.8129,-6.8769,-7.2206,-7.5091,-7.7592,-7.9977,-8.0246,-7.9515,-7.94,-7.8246,-7.6553,-7.4707,-7.3591,-7.2283,-6.8936,-6.7975,-6.7436,-6.4974,-6.3743,-6.2974,-6.2166,-6.1358,-6.0781,-6.0781,0.0,-6.0935,-6.0935,0.0,-6.2409,-6.2524,0.0,0.0,-6.3178,-6.4936,-6.6244,-6.5551,-6.7744,-7.086,-7.4822,-7.5861,0.0,0.0,-7.9092,-8.0631,-8.2324,-8.2554,-8.3285,-8.4824,-8.6478,-8.7786,-8.8671,-9.0248,-9.1095,-9.121,-9.121,-9.121,-9.121,-9.121,-9.121,-9.121,-9.121,-9.121,-9.1248,-9.2133,-9.2903,-9.3615,-9.4073,-9.4403,-9.4567,-9.4591,-9.4629,-9.4629,-9.402,-9.4474,-9.5385,-5.8139,-5.8333,-5.9145,-6.0809,-6.0422,-6.0344,-6.166,-6.3439,-6.5054,-6.626,-6.7255,-6.7989,-6.8298,-6.8337,-6.8006,-6.71,-6.6576,-6.5323,-6.3176,-6.1755,-6.0089,-5.8011,-5.5472,-5.3472,-5.2164,-5.0471,-4.9202,-4.8355,-4.7855,-4.7394,-4.7086,-4.8471,-4.9471,-5.0279,-5.2933,-5.5164,-5.7176,-5.9869,-6.2704,-6.559,-6.8129,-7.0321,-7.2322,-7.4784,-7.7284,-7.9631,-8.0708,-8.0862,-8.0477,-7.9977,-7.9323,-7.8438,-7.6746,-7.5976,-7.513,-7.2206,-7.136,-7.0706,-6.7628,-6.6167,-6.5205,-6.3858,-6.2551,-6.155,-6.155,-6.1166,-6.0781,-6.0781,0.0,0.0,0.0,0.0,0.0,0.0,-6.3705,-6.4282,-6.3897,-6.5205,-6.7782,0.0,0.0,0.0,0.0,0.0,0.0,0.0,-8.1747,-8.2824,-8.4093,-8.6209,-8.7786,-8.8671,-9.0325,-9.121,-9.121,-9.121,-9.121,-9.121,-9.121,-9.121,-9.121,-9.121,-9.1479,-9.2018,-9.2826,-9.3505,-9.4017,-9.4632,-9.4767,-9.4604,-9.4604,-9.4604,-9.4604,-9.4706,-9.5001,-9.5407,-5.9106,-5.9145,-5.9687,-6.0886,-6.0615,-6.0809,-6.2511,-6.4715,-6.6678,-6.795,-6.9369,-7.049,-7.0954,-7.0969,-7.0599,-6.9729,-6.9049,-6.7793,-6.5782,-6.4282,-6.2512,-6.0319,-5.7973,-5.5972,-5.428,-5.2587,-5.1202,-5.0087,-4.924,-4.8586,-4.8125,-4.9894,-5.0943,-5.151,-5.4664,-5.678,-5.8253,-6.1435,-6.4243,-6.6821,-6.9629,-7.2899,-7.6245,-7.7515,-7.9285,-8.1093,-8.1093,-8.1093,-8.1016,-8.0362,-8.0169,-7.99,-7.8438,-7.7977,-7.7515,-7.5207,-7.4553,-7.386,-7.0654,-6.8975,-6.7744,-6.6051,-6.4205,-6.2781,-6.2781,-6.1935,-6.1166,-6.1166,-6.0973,0.0,0.0,0.0,-6.1781,-6.1897,0.0,-6.2474,-6.2012,-6.3089,-6.5205,-6.8744,0.0,0.0,0.0,0.0,0.0,0.0,0.0,-8.2208,-8.3516,-8.5593,-8.7325,-8.8671,-9.0094,-9.0979,-9.121,-9.121,-9.121,-9.121,-9.121,-9.121,-9.121,-9.1441,-9.1902,-9.2556,-9.3595,-9.41,-9.4239,-9.5064,-9.5072,-9.4604,-9.4756,-9.4831,-9.488,-9.5273,-9.5407,-9.5407,-6.0035,-6.0499,-6.1041,-6.1079,-6.1079,-6.166,-6.341,-6.5102,-6.7075,-6.9589,-7.0711,-7.191,-7.3612,-7.3709,-7.3302,-7.2353,-7.2212,-7.1056,-6.8436,-6.7436,-6.5474,-6.2178,-6.0319,-5.8588,-5.6907,-5.5241,-5.3549,-5.1808,-5.101,-4.974,-4.8125,-4.9894,-5.1548,-5.3241,-5.5808,-5.8357,-6.0858,-6.3435,-6.5974,-6.8615,-7.2,-7.5899,-7.9631,-7.9708,-8.0285,-8.1093,-8.1093,-8.1093,0.0,-8.1054,-8.1054,0.0,0.0,-7.9708,-7.94,-7.7669,-7.7169,-7.663,-7.4053,-7.2091,-7.0398,-6.8706,-6.6397,-6.4512,-6.4512,-6.3243,-6.2062,-6.2062,-6.1408,-6.0819,-6.0819,-6.0819,-6.0319,-5.8704,-5.9819,0.0,0.0,-6.0589,-6.282,-6.4589,-6.7705,0.0,0.0,0.0,0.0,0.0,0.0,0.0,-8.3478,-8.4478,-8.6132,-8.8632,-8.9517,-9.0364,-9.121,-9.121,-9.121,-9.121,-9.121,-9.121,-9.1248,-9.2056,-9.2479,-9.2595,-9.4249,-9.4676,-9.4239,-9.5064,-9.5072,-9.4655,-9.5166,-9.5385,-9.5385,-9.5407,-9.5407,-9.5407,-6.0654,-6.0925,-6.1118,-6.1118,-6.1118,-6.1892,-6.4222,-6.6456,-6.8612,-7.0551,-7.2511,-7.4188,-7.5298,-7.5929,-7.6083,-7.5746,-7.5179,-7.393,-7.1898,-7.0975,-6.9206,-6.6397,-6.4089,-6.2089,-6.0408,-5.8165,-5.6165,-5.4395,-5.3049,-5.2049,-5.151,-5.2087,-5.3241,-5.4934,-5.6973,-5.8934,-6.105,-6.4705,-6.7744,-7.0514,-7.563,-7.8515,-7.9823,-7.9823,-8.0323,-8.1093,-8.1093,-8.1093,0.0,-8.1093,-8.1093,-8.1054,-8.0746,-8.0669,-8.0439,-7.9285,-7.8938,-7.8515,0.0,0.0,-7.3168,-7.2052,-6.9436,-6.7128,-6.7128,-6.5359,-6.3743,-6.3743,-6.2627,-6.1678,-6.1678,-6.1166,-6.0589,-6.005,-5.9935,-5.9742,0.0,-5.9858,-6.0589,-6.1166,-6.4743,-6.7744,-6.9129,0.0,0.0,0.0,0.0,0.0,0.0,-8.4093,-8.5555,-8.694,-8.8902,-9.0056,-9.0364,-9.0902,-9.121,-9.121,-9.121,-9.1518,-9.2056,-9.2364,-9.3095,-9.4172,-9.4386,-9.4446,-9.4475,-9.4766,-9.4756,-9.4655,-9.5166,-9.5407,-9.5451,-9.5862,-9.5511,-9.4781,-6.0692,-6.0886,-6.1118,-6.1118,-6.1621,-6.2781,-6.5064,-6.7578,-6.9811,-7.1479,-7.3879,-7.5786,-7.6624,-7.742,-7.7866,-7.7824,-7.7295,-7.6366,-7.4938,-7.3745,-7.2091,-6.986,-6.7321,-6.5166,-6.3474,-6.0973,-5.8781,-5.7049,-5.5049,-5.3933,-5.3664,-5.3664,-5.4549,-5.6203,-5.7665,-5.9742,-6.2358,-6.5705,-6.8936,-7.2283,-7.7669,-7.9977,-8.0285,-8.0592,-8.1054,-8.1516,0.0,-8.1747,-8.1977,-8.1977,-8.1977,-8.1939,-8.1631,-8.1516,-8.1362,-8.0516,-8.0246,-7.9977,-7.8554,-7.713,0.0,-7.4668,-7.2283,-7.0129,-6.9821,-6.7782,-6.5936,-6.5936,-6.4359,-6.2974,-6.2974,-6.205,-6.1243,-6.1243,-6.0512,-5.9973,0.0,-5.9973,-5.9973,-5.9973,-6.2935,-6.5513,-6.6898,0.0,0.0,0.0,0.0,0.0,0.0,0.0,-8.4939,-8.6055,-8.8286,-8.9633,-8.9902,-9.0748,-9.121,-9.121,-9.121,-9.1672,-9.2518,-9.2787,-9.3599,-9.4714,-9.4658,-9.4615,-9.4604,-9.4806,-9.488,-9.4929,-9.5273,-9.5407,-9.5429,-9.5841,-9.525,-9.4215,-6.0383,-6.0692,-6.1234,-6.135,-6.2704,-6.4377,-6.6069,-6.8429,-7.0711,-7.2529,-7.4869,-7.6726,-7.7602,-7.8332,-7.8734,-7.8734,-7.8676,-7.8284,-7.7476,-7.5861,-7.4207,-7.2514,-7.0052,-6.7898,-6.6167,-6.364,-6.1435,-5.9627,-5.7088,-5.5434,-5.4626,-5.4549,-5.5434,-5.7099,-5.7973,-6.0666,-6.4705,-6.6474,-6.9744,-7.413,-7.8207,-8.04,-8.1246,-8.2016,-8.2362,-8.2401,-8.2362,-8.2901,-8.3593,-8.3593,-8.3593,-8.3439,-8.2631,-8.2362,-8.2208,-8.1439,-8.1208,-8.0977,-8.0169,-7.9246,-7.8169,-7.6592,-7.4938,0.0,-7.2629,-7.0475,-6.8667,-6.8667,-6.659,-6.4782,-6.4782,-6.3358,-6.2216,-6.2216,-6.1396,-6.0781,-6.0704,-6.0704,-6.0742,-6.0742,-6.2166,-6.3551,0.0,0.0,0.0,0.0,0.0,0.0,0.0,-8.267,-8.4324,-8.594,-8.7748,-8.9056,-8.9825,-9.0748,-9.121,-9.121,-9.121,-9.1672,-9.2595,-9.3308,-9.3889,-9.4277,-9.4997,-9.5048,-9.4629,-9.5142,-9.5385,-9.5407,-9.5407,-9.5385,-9.5341,-9.5341,-9.468,-9.3709,-6.283,-6.2907,-6.3439,-6.4677,-6.5257,-6.6147,-6.7887,-6.9744,-7.2015,-7.4985,-7.6468,-7.7808,-7.9166,-8.0034,-8.0491,-8.0469,-8.0454,-8.0054,-7.9208,-7.8746,-7.7746,-7.6053,-7.413,-7.1975,-6.9667,-6.7128,-6.4359,-6.1435,-5.8896,-5.7203,-5.6329,-5.5088,-5.5742,-5.8011,-5.8819,-6.1204,-6.4782,-6.7782,-7.2206,-7.74,-7.9823,-8.1246,-8.2016,0.0,-8.3093,-8.417,-8.3478,-8.3401,-8.3593,-8.3593,-8.3593,-8.3555,-8.3324,-8.3247,-8.3208,-8.3016,-8.2516,-8.1939,-8.1708,-8.0592,-7.9361,-7.8938,-7.7553,-7.6284,0.0,0.0,0.0,-7.2192,-6.9667,-6.7436,-6.7436,-6.5513,-6.3974,-6.3974,-6.2166,-6.0358,-5.9127,-5.9473,-5.9819,-5.9819,-6.0781,0.0,0.0,0.0,0.0,0.0,0.0,0.0,0.0,0.0,-8.3785,-8.4209,-8.7132,-8.8786,-8.9017,-9.0479,-9.121,-9.121,-9.121,-9.1979,-9.3403,-9.3196,-9.3833,-9.5057,-9.4476,-9.4341,-9.4604,-9.4756,-9.5025,-9.5407,-9.5407,-9.4904,-9.4215,-9.4215,-9.402,-9.3709,-6.487,-6.5412,-6.6224,-6.7152,-6.8584,-6.9628,-6.986,-7.164,-7.3794,-7.6041,-7.7679,-7.8965,-7.9846,-8.066,-8.1139,-8.1093,-8.1093,-8.09,-8.04,-8.0015,-7.94,-7.8438,-7.6746,-7.4822,-7.2629,-6.9706,-6.6782,-6.3743,-6.0819,-5.8934,-5.805,-5.678,-5.7126,-5.8858,-5.9704,-6.1973,-6.5474,-7.0398,-7.4784,-7.8669,-8.0785,-8.19,0.0,-8.3131,-8.4055,-8.4901,-8.4747,-8.467,-8.467,-8.467,-8.467,-8.4632,-8.4286,-8.417,-8.4093,-8.3708,-8.3247,-8.2862,-8.2862,-8.19,-8.0823,-8.0477,-7.9361,-7.8284,-7.79,-7.6438,-7.5168,0.0,-7.2745,-7.0629,0.0,-6.8244,-6.5897,-6.4782,-6.3397,-6.2012,-6.0666,-6.0896,-6.1166,-6.1166,-6.1589,0.0,0.0,0.0,0.0,0.0,0.0,0.0,0.0,0.0,-8.2824,-8.3555,-8.6555,-8.8286,-8.8709,-9.0364,-9.121,-9.121,-9.1336,-9.2066,-9.3351,-9.3158,-9.365,-9.468,-9.4287,-9.4314,-9.4604,-9.4604,-9.4904,-9.5363,-9.488,-9.4188,-9.3451,-9.3451,-9.3451,-9.3389,-6.7036,-6.8197,-6.9319,-6.9435,-7.2104,-7.3767,-7.2336,-7.4038,-7.5767,-7.6761,-7.8709,-8.0043,-8.0144,-8.0707,-8.1093,-8.1093,-8.1093,-8.1093,-8.1093,-8.04,-7.9977,-7.9977,-7.8477,-7.6823,-7.5091,-7.186,-6.8898,-6.6244,-6.2781,-6.0627,-5.9665,-5.8742,-5.8742,-5.955,-6.0512,-6.3089,-6.7128,-7.3476,-7.713,-7.8861,-8.1323,-8.2362,-8.2631,-8.4286,-8.4978,-8.517,-8.5863,-8.6094,-8.6094,-8.6094,-8.6094,-8.5978,-8.5286,-8.5055,-8.4901,-8.4132,-8.3862,-8.3747,-8.3747,-8.3131,-8.2285,-8.1593,-8.0862,-8.0092,-7.9323,-7.8438,-7.7784,-7.7784,-7.5784,-7.4014,0.0,0.0,-6.8205,-6.5551,-6.5089,-6.4782,-6.3782,-6.3628,-6.3589,-6.3462,-6.3462,0.0,0.0,0.0,0.0,0.0,0.0,0.0,0.0,0.0,-8.1862,-8.3555,-8.6055,-8.7825,-8.8671,0.0,-9.121,-9.121,-9.1467,-9.2062,-9.2902,-9.3124,-9.3412,-9.3827,-9.4287,-9.4526,-9.4604,-9.4604,-9.4831,-9.5096,-9.416,-9.3482,-9.2988,-9.2988,-9.2988,-9.2988,-7.044,-7.1214,-7.2142,-7.2877,-7.4657,-7.6088,-7.6514,-7.6939,-7.7754,-7.9185,-7.9723,-8.0232,-8.0846,-8.1031,-8.1093,-8.1093,-8.1093,-8.1093,-8.1093,-8.0977,-8.0862,-8.0862,-7.99,-7.8554,-7.6861,-7.4207,-7.1245,-6.7975,-6.4551,-6.2089,-6.055,-5.9011,-5.8742,-5.9588,-6.1166,-6.532,-7.136,-7.5361,-7.8054,-7.9746,-8.1554,-8.2708,-8.3478,-8.4516,-8.5324,-8.5901,-8.6055,-8.6094,-8.6094,-8.6094,-8.6094,-8.6094,-8.594,-8.5901,-8.5863,-8.5709,-8.5209,-8.467,-8.467,-8.4055,-8.3324,-8.3208,-8.3054,-8.2901,-8.2747,-8.1516,-8.0439,-8.0439,-7.84,-7.663,-7.663,0.0,0.0,-6.8282,-6.7744,-6.7205,-6.5667,-6.5436,-6.5166,-6.4474,-6.4359,-6.4359,0.0,0.0,0.0,0.0,0.0,0.0,0.0,0.0,-8.1862,0.0,-8.6055,0.0,0.0,0.0,-9.121,-9.121,-9.1467,-9.2062,-9.2881,-9.2715,-9.3059,-9.3798,-9.3914,-9.4215,-9.4604,-9.4604,-9.4394,-9.4048,-9.3885,-9.3482,-9.2988,-9.2988,-9.2988,-9.2988,-7.396,-7.4657,-7.5392,-7.5817,-7.7248,-7.8525,-7.8912,-7.9726,-8.0229,-8.0073,-8.0737,-8.1398,-8.1747,-8.2163,-8.2401,-8.2401,-8.2401,-8.2401,-8.2401,-8.2401,-8.217,-8.1747,-8.1323,-8.0323,-7.8631,-7.6092,-7.336,-7.036,-6.6936,-6.4397,-6.2743,-6.1473,-6.1089,-6.1589,-6.4205,-6.8167,-7.3053,-7.6053,0.0,-8.0631,-8.2285,-8.3478,-8.4362,-8.5209,-8.5747,-8.6094,-8.6094,-8.6094,-8.6094,-8.6094,-8.6094,-8.6094,-8.6094,-8.6094,-8.6094,-8.6094,-8.5824,-8.5517,-8.5517,-8.4901,-8.4286,-8.4286,-8.3939,-8.3593,-8.3593,-8.2978,-8.2285,-8.1823,-8.04,-7.8861,-7.7553,-7.6284,0.0,-7.1552,-7.1038,-7.0437,-6.8744,-6.8475,-6.8167,-6.7359,-6.7244,-6.709,0.0,0.0,0.0,0.0,0.0,0.0,0.0,0.0,-8.0554,0.0,0.0,0.0,-8.8017,0.0,0.0,-9.1864,-9.1849,-9.229,-9.3103,-9.2879,-9.3132,-9.3798,-9.3798,-9.4104,-9.4578,-9.4287,-9.3885,-9.3358,-9.3358,-9.3205,-9.2988,-9.2988,-9.2988,-9.2988,-7.6939,-7.7635,-7.8293,-7.8486,-7.9763,-8.0795,-8.0976,-8.2122,-8.2391,-8.0833,-8.1841,-8.2678,-8.2648,-8.3217,-8.3593,-8.3593,-8.3593,-8.3593,-8.3593,-8.3593,-8.3285,-8.2593,-8.2401,-8.1593,-8.0131,-7.7592,-7.5091,-7.2745,-6.9321,-6.6436,-6.4051,-6.3935,-6.4051,-6.4538,-6.7782,-7.1014,0.0,0.0,-7.9208,-8.1477,-8.2978,-8.4132,-8.4978,-8.5786,-8.6094,-8.6094,-8.6094,-8.6094,-8.6094,-8.6094,-8.6094,-8.6094,-8.6094,-8.6094,-8.6094,-8.6094,-8.6094,-8.6094,-8.6094,-8.5632,-8.517,-8.517,-8.4632,-8.4132,-8.4132,-8.3978,-8.367,-8.2978,-8.2054,-8.0631,-7.8284,-7.7823,0.0,0.0,-7.4322,-7.3745,-7.2206,-7.1975,-7.1629,-7.0629,-7.0514,0.0,-6.8821,0.0,0.0,0.0,0.0,0.0,-7.613,-7.7669,-7.9438,0.0,0.0,-8.6594,-8.7671,0.0,-9.1559,-9.2314,-9.2169,-9.2455,-9.312,-9.3162,-9.3364,-9.3657,-9.3885,-9.416,-9.4394,-9.3963,-9.3482,-9.2988,-9.2988,-9.2988,-9.2988,-9.2988,-9.2988,-9.2988,-7.8757,-7.9415,-8.0227,-8.1001,-8.1929,-8.2793,-8.3462,-8.368,-8.3473,-8.2501,-8.3085,-8.3572,-8.351,-8.3571,-8.3593,-8.3593,-8.3593,-8.3593,-8.3593,-8.3593,-8.3555,-8.3478,-8.2708,-8.19,-8.1016,-7.8477,-7.6284,-7.4476,-7.1091,-6.7013,-6.237,-6.4589,-6.6474,-6.8052,0.0,0.0,0.0,-7.8477,-8.0592,-8.2285,-8.3208,-8.4132,-8.4978,-8.5786,-8.6094,-8.6094,-8.6094,-8.6094,-8.6094,-8.6094,-8.6094,-8.6094,-8.6094,-8.6094,-8.6094,-8.6094,-8.6094,-8.6094,-8.6094,-8.6055,-8.5978,-8.5978,-8.594,-8.5863,-8.5863,-8.5286,-8.4747,-8.467,-8.3324,-8.1631,-7.99,-7.9592,-7.8977,0.0,-7.6938,-7.6592,-7.5668,-7.5515,-7.4938,-7.3322,0.0,0.0,0.0,-6.959,0.0,0.0,-7.1668,0.0,-7.6976,-7.8015,-7.9977,-8.3247,-8.5132,-8.6901,-8.8556,-9.0325,-9.1375,-9.1705,-9.1967,-9.2247,-9.2588,-9.3364,-9.3513,-9.3114,-9.4104,-9.4297,-9.3885,-9.3827,-9.3482,-9.2988,-9.2988,-9.2988,-9.2988,-9.2988,-9.2988,-9.2988,-8.1194,-8.1542,-8.2045,-8.2896,-8.336,-8.3657,-8.3979,-8.4403,-8.4568,-8.4218,-8.4334,-8.4474,-8.4442,-8.4856,-8.5093,-8.5093,-8.5093,-8.5093,-8.5093,-8.5093,-8.4901,-8.4401,-8.3555,-8.267,-8.1823,-7.9823,-7.8207,-7.6976,-7.413,-7.1398,-6.8936,-6.8898,-6.9821,-7.1552,0.0,-7.513,-7.763,-7.9708,-8.1554,-8.317,-8.4016,-8.4901,-8.567,-8.5978,-8.6094,-8.6094,-8.6094,-8.6094,-8.6094,-8.6094,-8.6094,-8.6094,-8.6094,-8.6094,-8.6094,-8.6094,-8.6094,-8.6094,-8.6094,-8.6094,-8.6094,-8.6094,-8.6094,-8.6094,-8.6094,-8.5863,-8.5478,-8.5016,-8.3939,-8.2862,-8.2208,-8.2093,-8.1516,-7.9862,0.0,-7.9092,-7.7707,-7.7476,-7.7053,-7.5938,0.0,-7.4976,0.0,0.0,0.0,0.0,0.0,-7.3437,-7.6361,-7.7784,0.0,-8.2016,0.0,-8.6709,-8.7902,-9.0094,-9.1625,-9.2367,-9.2171,-9.2669,-9.3742,-9.3784,-9.3687,-9.3513,-9.3906,-9.3827,-9.3332,-9.3332,-9.3211,-9.2988,-9.2988,-9.2988,-9.2988,-9.2988,-9.2988,-9.2988,-8.3051,-8.3167,-8.3438,-8.4289,-8.4443,-8.4521,-8.4765,-8.528,-8.5601,-8.5587,-8.5458,-8.5406,-8.5337,-8.5796,-8.6094,-8.6094,-8.6094,-8.6094,-8.6094,-8.6094,-8.5863,-8.5286,-8.4439,-8.3555,-8.2708,-8.1054,-7.9746,-7.8861,-7.6592,-7.4514,-7.2706,-7.1245,-7.2014,0.0,-7.5476,-7.7092,-7.9361,-8.0823,-8.2439,-8.4055,-8.467,-8.5401,-8.6094,-8.6094,-8.6094,-8.6132,-8.6401,-8.6478,-8.6517,-8.6786,-8.6863,-8.6786,-8.6247,-8.6094,-8.6094,-8.6094,-8.6094,-8.6094,-8.6094,-8.6094,-8.6094,-8.6094,-8.6094,-8.6094,-8.6094,-8.6094,-8.5863,-8.5093,-8.4401,-8.3901,-8.3632,-8.3593,-8.3208,-8.2016,0.0,-8.1323,-7.9823,-7.9823,-7.9515,-7.8169,-7.8246,-7.763,-7.5668,-7.5476,0.0,0.0,-7.4707,-7.4707,-7.6976,-7.8246,-7.9785,0.0,0.0,0.0,-8.7786,-9.0325,-9.1951,-9.2665,-9.2516,-9.3033,-9.4132,-9.3709,-9.3657,-9.3798,-9.3627,-9.3364,-9.2988,-9.2988,-9.2988,-9.2988,-9.2988,-9.2988,-9.2988,-9.2988,-9.2988,-9.2988,-8.4095,-8.4095,-8.4327,-8.514,-8.5294,-8.5539,-8.636,-8.6517,-8.6544,-8.6475,-8.6428,-8.6315,-8.62,-8.6143,-8.6094,-8.6094,-8.6094,-8.6094,-8.6094,-8.6094,-8.6094,0.0,-8.5324,-8.4478,-8.3593,-8.1939,-8.0669,-7.9785,0.0,0.0,-7.0898,-7.009,-7.2399,-7.7284,-7.8092,-7.9438,-8.1131,-8.1939,-8.3285,-8.4901,-8.4901,-8.5401,-8.6094,-8.6094,-8.6094,-8.6209,-8.7094,-8.7363,-8.7517,-8.8363,-8.8671,-8.8363,-8.6632,-8.6094,-8.6094,-8.6094,-8.6094,-8.6094,-8.6094,-8.6094,-8.6094,-8.6094,-8.6094,-8.6094,-8.6094,-8.6094,-8.5863,-8.5093,-8.4901,-8.4632,-8.3747,-8.3593,-8.3593,-8.3555,0.0,0.0,-8.2362,-8.2978,-8.2593,-8.0092,-8.0516,-8.0054,-7.7515,-7.7284,0.0,-7.7284,-7.7246,-7.7977,-7.9669,-7.9785,-8.0939,-8.3478,-8.5209,0.0,-8.8671,-9.121,-9.2368,-9.2115,-9.2911,-9.3191,-9.3021,-9.3021,-9.3301,-9.3769,-9.3237,-9.2988,-9.2988,-9.2988,-9.2988,-9.2988,-9.2988,-9.2988,-9.2988,-9.2988,-9.2988,-9.2988,-8.4792,-8.541,-8.6068,-8.6919,-8.7577,-8.8041,-8.8284,-8.8375,-8.8323,-8.8214,-8.8127,-8.7858,-8.7147,-8.6489,-8.6094,-8.6094,-8.6094,-8.6094,0.0,-8.6094,-8.6094,-8.6094,-8.5324,-8.4786,-8.4478,-8.2785,-8.1785,-8.1516,0.0,0.0,0.0,-7.5822,-7.7207,-7.99,-8.0169,-8.1208,-8.2862,-8.3708,-8.4401,-8.4939,-8.5517,-8.5863,-8.617,-8.6748,-8.6978,-8.7094,-8.7979,-8.8286,-8.8325,-8.8594,-8.8709,-8.8594,-8.8055,-8.744,-8.6978,-8.6978,-8.6555,-8.6094,-8.6094,-8.6094,-8.6094,-8.6094,-8.6094,-8.6094,-8.6094,-8.6094,-8.6017,-8.5786,-8.5709,-8.5632,-8.5363,-8.5286,-8.5132,-8.4593,-8.4478,0.0,-8.3324,-8.3439,-8.3285,-8.2477,-8.2093,-8.1362,0.0,-7.9361,0.0,0.0,-7.9554,-7.9862,-7.9823,-8.0362,-8.1862,0.0,-8.6094,0.0,-8.9517,-9.1088,-9.1975,-9.2115,-9.2911,-9.36,-9.4076,-9.368,-9.3657,-9.3769,-9.3205,-9.2988,-9.2988,-9.2988,-9.2988,-9.2988,-9.2988,-9.2988,-9.2988,-9.2988,-9.2988,-9.2988,-8.6687,-8.719,-8.777,-8.8273,-8.8853,-8.9201,-8.9201,-8.9201,-8.9135,-8.9026,-8.8937,-8.8668,-8.8033,-8.7451,0.0,-8.617,-8.6094,-8.6094,-8.6094,-8.6094,-8.6094,-8.6094,-8.5632,-8.5209,-8.4901,-8.3824,0.0,-8.2785,-8.1747,-8.0939,-8.04,-8.04,-8.0977,-8.2054,-8.2054,-8.2785,-8.4132,-8.467,-8.5093,-8.544,-8.6247,-8.6594,-8.6671,-8.7555,-8.7902,-8.7979,-8.8863,-8.9133,-8.921,-8.9517,-8.9633,-8.9633,-8.9633,-8.9056,-8.8209,-8.7594,-8.7017,-8.6517,-8.6209,-8.6094,-8.6094,-8.6094,-8.6094,-8.6094,-8.6094,-8.6094,-8.6094,-8.6094,-8.6094,-8.6094,-8.6094,-8.6094,-8.594,-8.544,-8.5363,-8.5055,-8.4209,-8.4362,-8.4324,-8.367,0.0,0.0,0.0,-8.1554,-8.1246,0.0,-8.2016,-8.2285,-8.1747,-8.1939,-8.3054,-8.5286,-8.6671,0.0,-9.0052,-9.1444,-9.2146,-9.2231,-9.2908,-9.3577,-9.426,-9.3739,-9.3513,-9.3482,-9.3146,-9.2988,-9.2988,-9.2988,-9.2988,-9.2988,-9.2988,-9.2988,-9.2988,-9.2988,-9.2988,-9.2988,-8.9201,-8.924,-8.9279,0.0,-8.9317,-8.9356,-8.9356,-8.9356,-8.9328,-8.9166,-8.913,-8.8999,-8.8881,-8.8837,-8.8094,-8.644,0.0,0.0,0.0,-8.6094,-8.6094,-8.6094,-8.6094,-8.5747,-8.5016,-8.4939,-8.4478,-8.3593,-8.3593,-8.3593,-8.3593,-8.3593,-8.3632,-8.367,-8.367,-8.417,-8.4978,-8.5055,-8.5517,-8.6286,-8.7132,-8.7478,-8.7594,-8.844,-8.8786,-8.8902,-8.971,-8.9979,-9.0133,-9.0941,-9.121,-9.121,-9.121,-9.0633,-8.9671,-8.8055,-8.7517,-8.7286,-8.644,-8.6209,-8.617,-8.6132,-8.6094,-8.6094,-8.6094,-8.6094,-8.6094,-8.6094,-8.6094,-8.6094,-8.6094,-8.6094,-8.6094,-8.6094,-8.6094,-8.5863,-8.5093,-8.5632,-8.5517,-8.3939,0.0,0.0,0.0,-8.367,-8.367,0.0,0.0,-8.5093,-8.5093,0.0,-8.467,-8.6247,-8.7171,-8.8554,-9.0436,-9.2117,-9.2793,-9.2576,-9.2865,-9.3269,-9.3769,-9.3237,-9.2988,-9.2988,-9.2988,-9.2988,-9.2988,-9.2988,-9.2988,-9.2988,-9.2988,-9.2988,-9.2988,-9.2988,-9.2988,-9.2988,0.0,0.0,-9.013,-9.013,-9.0671,-9.1097,-9.1097,-9.1054,-9.0982,-9.0852,-9.0773,-9.0461,-8.9705,-8.9633,-8.921,-8.8171,-8.7478,-8.6824,-8.6132,-8.6094,-8.6094,-8.6094,-8.6094,-8.6017,-8.5824,-8.5209,-8.4478,-8.3593,-8.3593,-8.3593,-8.3593,-8.3593,-8.3939,-8.4593,-8.4593,-8.5055,-8.5863,-8.6517,-8.6901,-8.7171,-8.8017,-8.8402,-8.8479,-8.9286,-8.9633,-8.9748,-9.0594,-9.0902,-9.0941,-9.1133,-9.121,-9.121,-9.121,-9.1056,-9.0671,-8.9633,-8.8863,-8.8209,-8.7325,-8.7094,-8.694,-8.6286,-8.6094,-8.6094,-8.6094,-8.6094,-8.6094,-8.6094,-8.6094,-8.6094,-8.6094,-8.6094,-8.6094,-8.6094,-8.6094,-8.6017,-8.5863,-8.5978,-8.594,0.0,-8.517,-8.4824,-8.4593,-8.4593,-8.4593,0.0,0.0,-8.6824,-8.6824,-8.7248,-8.7671,-8.8055,-8.9517,-9.0627,-9.1298,-9.2556,-9.3286,-9.3468,-9.3163,-9.3269,-9.3769,-9.3237,-9.2988,-9.2988,-9.2988,-9.2988,-9.2988,-9.2988,-9.2988,-9.2988,-9.2988,-9.2988,-9.2988,-9.2988,-9.2988,-9.2988,-9.0323,-9.0671,-9.0981,-9.0981,-9.1406,-9.1716,-9.1716,-9.1644,-9.157,-9.14,-9.1358,-9.1082,-9.0556,-9.0479,-9.0171,-8.9325,-8.8479,-8.7786,-8.7325,-8.7286,-8.7094,-8.6709,-8.6709,-8.6517,-8.6094,-8.567,-8.5209,-8.4747,-8.4747,-8.4747,-8.4747,-8.4747,-8.5209,-8.6055,-8.6055,-8.6517,-8.7325,-8.7786,-8.7979,-8.8055,-8.8902,-8.9248,-8.9325,-9.0171,-9.0479,-9.0556,-9.1018,-9.121,-9.121,-9.121,-9.121,-9.121,-9.121,-9.121,-9.1133,-9.0633,-8.9902,-8.8979,-8.7748,-8.7401,-8.7171,-8.6324,-8.6094,-8.6094,-8.6094,-8.6094,-8.6094,-8.6094,-8.6094,-8.6094,-8.6094,-8.6094,-8.6094,-8.6094,-8.644,-8.6709,-8.6709,-8.7055,-8.7286,-8.7286,-8.6901,-8.6632,-8.6632,-8.6632,-8.6632,-8.6632,-8.7825,0.0,-8.8556,-8.9363,-8.9825,-8.9825,-9.0492,-9.1329,-9.2375,-9.3149,-9.3624,-9.3798,-9.3513,-9.3543,-9.3769,-9.3237,-9.2988,-9.2988,-9.2988,-9.2988,-9.2988,-9.2988,-9.2988,-9.2988,-9.2988,-9.2988,-9.2988,-9.2988,-9.2988,-9.2988,-9.1716,-9.1716,-9.1716,-9.1716,-9.1716,-9.1716,-9.1716,-9.1644,-9.1516,-9.14,-9.1341,-9.1258,-9.121,-9.121,-9.0902,-9.0171,-8.9479,-8.8979,-8.8709,-8.8709,-8.8363,-8.7632,-8.7594,-8.7248,-8.6517,-8.6478,-8.6478,-8.6478,-8.6478,-8.6478,-8.6478,-8.6478,-8.6901,-8.7594,-8.7594,-8.8017,-8.8709,-8.8825,-8.8863,-8.894,-8.9787,-9.0094,-9.0171,-9.0941,-9.121,-9.121,-9.121,-9.121,-9.121,-9.121,-9.121,-9.121,-9.121,-9.121,-9.121,-9.121,-9.0671,-8.9748,-8.8209,-8.7594,-8.7171,-8.6324,-8.6094,-8.6094,-8.6094,-8.6094,-8.6094,-8.6094,-8.6094,-8.6094,-8.6094,-8.6094,-8.6132,-8.6286,-8.6901,-8.744,-8.7594,-8.8209,-8.8709,-8.8709,-8.8709,-8.8709,-8.8709,-8.8786,-8.8863,-8.8863,-8.9748,-9.0287,-9.0287,-9.1133,-9.1598,-9.1659,-9.1064,-9.1583,-9.335,-9.3681,-9.3739,-9.3687,-9.3739,-9.3739,-9.3687,-9.3211,-9.2988,-9.2988,-9.2988,-9.2988,-9.2988,-9.2988,-9.2988,-9.2988,-9.2988,-9.2988,-9.2988,-9.2988,-9.2988,-9.2988,-9.1716,-9.1716,-9.1716,-9.1716,-9.1716,-9.1716,-9.1716,-9.1546,-9.1415,-9.14,-9.1292,-9.1227,-9.121,-9.121,-9.1171,-9.1018,-9.0864,-9.021,-8.8786,-8.8709,-8.8632,-8.8479,-8.8479,-8.844,-8.8286,-8.8286,-8.8286,-8.8286,-8.8286,-8.8286,-8.8286,-8.8286,-8.8363,-8.8479,-8.8479,-8.8556,-8.8748,-8.944,-8.971,-8.9787,-9.0671,-9.1018,-9.1018,-9.1171,-9.121,-9.121,-9.121,-9.121,-9.121,-9.121,-9.121,-9.121,-9.121,-9.121,-9.121,-9.121,-9.1095,-9.0787,-8.9787,-8.8479,-8.7171,-8.6324,-8.6094,-8.6094,-8.6094,-8.6094,-8.6094,-8.6094,-8.6094,-8.6094,-8.6094,-8.6094,-8.6324,-8.7094,-8.7325,-8.7671,-8.8402,-8.8594,-8.8709,-8.8709,-8.8709,-8.8709,-8.8709,-8.9325,-8.971,-8.971,-9.121,-9.2095,-9.2095,-9.2864,-9.3447,-9.3719,-9.2945,-9.2889,-9.3718,-9.3781,-9.3567,-9.3114,-9.3567,-9.3567,-9.3114,-9.3054,-9.2988,-9.2988,-9.2988,-9.2988,-9.2988,-9.2988,-9.2988,-9.2988,-9.2988,-9.2988,-9.2988,-9.2988,-9.2988,-9.2988,-9.1716,-9.1716,-9.1716,-9.1716,-9.1716,-9.1702,-9.1659,-9.1516,-9.1384,-9.1336,-9.1258,-9.121,-9.121,-9.121,-9.121,-9.121,-9.121,-9.0864,-9.0094,-9.0056,-8.9825,-8.9363,-8.9363,-8.9133,-8.8709,-8.8709,-8.8709,-8.8709,-8.8709,-8.8709,-8.8709,-8.8709,-8.894,-8.9363,-8.9363,-8.9594,-9.0056,-9.0441,-9.0594,-9.0633,-9.1056,-9.121,-9.121,-9.121,-9.121,-9.121,-9.121,-9.121,-9.121,-9.121,-9.121,-9.121,-9.121,-9.121,-9.121,-9.121,-9.0864,-9.0325,-8.9479,-8.8363,-8.7171,-8.6324,-8.6094,-8.6094,-8.6094,-8.6094,-8.6094,-8.6094,-8.6094,-8.6094,-8.6094,-8.6478,-8.694,-8.7325,-8.8171,-8.8902,-8.9286,-8.9748,-9.0056,-9.0056,-9.0056,-9.0056,-9.0056,-9.0364,-9.0787,-9.1287,-9.2056,-9.2672,-9.3133,-9.348,-9.3832,-9.4185,-9.3691,-9.3504,-9.3798,-9.4076,-9.3934,-9.3451,-9.3963,-9.3798,-9.2988,-9.2988,-9.2988,-9.2988,-9.2988,-9.2988,-9.2988,-9.2988,-9.2988,-9.2988,-9.2988,-9.2988,-9.2988,-9.2988,-9.2988,-9.2988,-9.1716,-9.1716,-9.1716,-9.1716,-9.1702,-9.1673,-9.1615,-9.147,-9.1336,-9.1308,-9.1224,-9.121,-9.121,-9.121,-9.121,-9.121,-9.121,-9.121,-9.121,-9.121,-9.0902,-9.0248,-9.021,-8.9902,-8.9286,-8.9286,-8.9286,-8.9286,-8.9286,-8.9286,-8.9286,-8.9286,-8.9594,-9.021,-9.021,-9.0556,-9.121,-9.121,-9.121,-9.121,-9.121,-9.121,-9.121,-9.121,-9.121,-9.121,-9.121,-9.121,-9.121,-9.121,-9.121,-9.121,-9.121,-9.121,-9.121,-9.121,-9.0748,-9.0017,-8.921,-8.8363,-8.7478,-8.6632,-8.6247,-8.6094,-8.6094,-8.6247,-8.6401,-8.6401,-8.6401,-8.6478,-8.6671,-8.7094,-8.7517,-8.7902,-8.9056,-8.9979,-9.0171,-9.0787,-9.121,-9.121,-9.121,-9.121,-9.121,-9.121,-9.1556,-9.2441,-9.2672,-9.3133,-9.3941,-9.4172,-9.4292,-9.4296,-9.3958,-9.3739,-9.3627,-9.416,-9.416,-9.3627,-9.416,-9.3943,-9.2988,-9.2988,-9.2988,-9.2988,-9.2988,-9.2988,-9.2988,-9.2988,-9.2988,-9.2988,-9.2988,-9.2988,-9.2988,-9.2988,-9.2988,-9.2988,-9.1716,-9.1716,-9.1716,-9.1716,-9.1659,-9.16,-9.16,-9.1422,-9.1308,-9.1308,-9.1224,-9.121,-9.121,-9.121,-9.121,-9.121,-9.121,-9.121,-9.121,-9.121,-9.1171,-9.1133,-9.1095,-9.1095,-9.1018,-9.1018,-9.1018,-9.1018,-9.1018,-9.1018,-9.1018,-9.1018,-9.1056,-9.1095,-9.1095,-9.1133,-9.121,-9.121,-9.121,-9.121,-9.121,-9.121,-9.121,-9.121,-9.121,-9.121,-9.121,-9.121,-9.121,-9.121,-9.121,-9.121,-9.121,-9.121,-9.121,-9.121,-9.1171,-9.0941,-9.0056,-8.921,-8.8402,-8.7517,-8.6709,-8.6094,-8.6094,-8.6709,-8.7286,-8.7286,-8.7286,-8.7555,-8.8363,-8.7902,-8.7902,-8.9479,-8.9825,-9.0171,-9.0979,-9.1171,-9.121,-9.121,-9.121,-9.121,-9.121,-9.121,-9.1556,-9.2441,-9.3172,-9.398,-9.4864,-9.5672,-9.5647,-9.4604,-9.4067,-9.3567,-9.3086,-9.3597,-9.3597,-9.3086,-9.3597,-9.3536,-9.2988,-9.2988,-9.2988,-9.2988,-9.2988,-9.2988,-9.2988,-9.2988,-9.2988,-9.2988,-9.2988,-9.2988,-9.2988,-9.2988,-9.2988,-9.2988,-9.1716,-9.1716,-9.1716,-9.1716,-9.1644,-9.1585,-9.1485,-9.139,-9.1292,-9.1224,-9.1227,-9.121,-9.121,-9.121,-9.121,-9.121,-9.121,-9.121,-9.121,-9.121,-9.121,-9.121,-9.121,-9.121,-9.121,-9.121,-9.121,-9.121,-9.121,-9.121,-9.121,-9.121,-9.121,-9.121,-9.121,-9.121,-9.121,-9.121,-9.121,-9.121,-9.121,-9.121,-9.121,-9.121,-9.121,-9.121,-9.121,-9.121,-9.121,-9.121,-9.121,-9.121,-9.121,-9.121,-9.121,-9.121,-9.121,-9.1133,-9.0787,-9.0094,-8.9248,-8.8402,-8.794,-8.7709,-8.7709,-8.7979,-8.8209,-8.8209,-8.7786,-8.7671,-8.8517,-8.844,-8.8594,-8.971,-9.0364,-9.0825,-9.1171,-9.121,-9.121,-9.121,-9.121,-9.121,-9.121,-9.171,-9.2364,-9.3172,-9.4018,-9.4903,-9.5749,-9.5445,-9.488,-9.4132,-9.3914,-9.3856,-9.3991,-9.4215,-9.4215,-9.3991,-9.3856,-9.3543,-9.2988,-9.2988,-9.2988,-9.2988,-9.2988,-9.2988,-9.2988,-9.2988,-9.2988,-9.2988,-9.2988,-9.2988,-9.2988,-9.2988,-9.2988,-9.2988,-9.2102,-9.1909,-9.1716,-9.1716,-9.1591,-9.15,-9.14,-9.1341,-9.1241,-9.121,-9.121,-9.121,-9.121,-9.121,-9.121,-9.121,-9.121,-9.121,-9.121,-9.121,-9.121,-9.121,-9.121,-9.121,-9.121,-9.121,-9.121,-9.121,-9.121,-9.121,-9.121,-9.121,-9.121,-9.121,-9.121,-9.121,-9.121,-9.121,-9.121,-9.121,-9.121,-9.121,-9.121,-9.121,-9.121,-9.121,-9.121,-9.121,-9.121,-9.121,-9.121,-9.121,-9.121,-9.121,-9.121,-9.121,-9.121,-9.121,-9.121,-9.0748,-9.0133,-8.9286,-8.8902,-8.8709,-8.8709,-8.8902,-8.9094,-8.9094,-8.8594,-8.844,-8.9325,-8.9248,-8.9363,-9.0171,-9.0825,-9.121,-9.121,-9.121,-9.121,-9.121,-9.121,-9.121,-9.121,-9.1979,-9.2826,-9.3633,-9.4518,-9.5309,-9.5982,-9.5134,-9.4421,-9.4048,-9.3885,-9.4048,-9.4604,-9.4421,-9.426,-9.4104,-9.3709,-9.3364,-9.2988,-9.2988,-9.2988,-9.2988,-9.2988,-9.2988,-9.2988,-9.2988,-9.2988,-9.2988,-9.2988,-9.2988,-9.2988,-9.2988,-9.2988,-9.2988,-9.3031,-9.2296,-9.1716,-9.1716,-9.1546,-9.14,-9.14,-9.1292,-9.121,-9.121,-9.121,-9.121,-9.121,-9.121,-9.121,-9.121,-9.121,-9.121,-9.121,-9.121,-9.121,-9.121,-9.121,-9.121,-9.121,-9.121,-9.121,-9.121,-9.121,-9.121,-9.121,-9.121,-9.121,-9.121,-9.121,-9.121,-9.121,-9.121,-9.121,-9.121,-9.121,-9.121,-9.121,-9.121,-9.121,-9.121,-9.121,-9.121,-9.121,-9.121,-9.121,-9.121,-9.121,-9.121,-9.121,-9.121,-9.121,-9.121,-9.121,-9.121,-9.0979,-9.0133,-8.9325,-8.8709,-8.8709,-8.9325,-8.9902,-8.9902,-8.9902,-9.0171,-9.1056,-9.0479,-9.021,-9.1056,-9.121,-9.121,-9.121,-9.121,-9.121,-9.121,-9.121,-9.121,-9.121,-9.2018,-9.2826,-9.3633,-9.4518,-9.5118,-9.5391,-9.488,-9.4604,-9.4578,-9.4076,-9.4048,-9.4578,-9.4048,-9.3506,-9.2988,-9.2988,-9.2988,-9.2988,-9.2988,-9.2988,-9.2988,-9.2988,-9.2988,-9.2988,-9.2988,-9.2988,-9.2988,-9.2988,-9.2988,-9.2988,-9.2988,-9.2988,-9.2988,-9.3843,-9.3186,-9.2591,-9.2494,-9.1887,-9.1368,-9.1358,-9.1241,-9.121,-9.121,-9.121,-9.121,-9.121,-9.121,-9.121,-9.121,-9.121,-9.121,-9.121,-9.121,-9.121,-9.121,-9.121,-9.121,-9.121,-9.121,-9.121,-9.121,-9.121,-9.121,-9.121,-9.121,-9.121,-9.121,-9.121,-9.121,-9.121,-9.121,-9.121,-9.121,-9.121,-9.121,-9.121,-9.121,-9.121,-9.121,-9.121,-9.121,-9.121,-9.121,-9.121,-9.121,-9.121,-9.121,-9.121,-9.121,-9.121,-9.121,-9.121,-9.121,-9.1133,-9.0902,-9.0633,-9.0441,-9.0441,-9.0633,-9.0825,-9.0825,-9.0325,-9.0171,-9.1056,-9.0479,-9.021,-9.1056,-9.121,-9.121,-9.121,-9.121,-9.121,-9.121,-9.121,-9.1441,-9.2056,-9.2864,-9.371,-9.4557,-9.5403,-9.5593,-9.488,-9.468,-9.427,-9.3513,-9.3687,-9.3717,-9.3482,-9.3717,-9.3709,-9.3536,-9.3179,-9.2988,-9.2988,-9.2988,-9.2988,-9.2988,-9.2988,-9.2988,-9.2988,-9.2988,-9.2988,-9.2988,-9.2988,-9.2988,-9.2988,-9.2988,-9.2988,-9.2988,-9.4694,-9.4008,-9.3422,-9.3338,-9.2512,-9.1875,-9.1809,-9.1455,-9.121,-9.121,-9.121,-9.121,-9.121,-9.121,-9.121,-9.121,-9.121,-9.121,-9.121,-9.121,-9.121,-9.121,-9.121,-9.121,-9.121,-9.121,-9.121,-9.121,-9.121,-9.121,-9.121,-9.121,-9.121,-9.121,-9.121,-9.121,-9.121,-9.121,-9.121,-9.121,-9.121,-9.121,-9.121,-9.121,-9.121,-9.121,-9.121,-9.121,-9.121,-9.121,-9.121,-9.121,-9.121,-9.121,-9.121,-9.121,-9.121,-9.121,-9.121,-9.121,-9.121,-9.121,-9.121,-9.121,-9.121,-9.121,-9.121,-9.121,-9.0787,-9.0594,-9.1095,-9.0787,-9.0594,-9.1133,-9.121,-9.121,-9.121,-9.121,-9.121,-9.121,-9.121,-9.1556,-9.2402,-9.321,-9.421,-9.5403,-9.579,-9.5533,-9.4655,-9.4394,-9.3963,-9.3364,-9.342,-9.342,-9.3332,-9.342,-9.3482,-9.3482,-9.3146,-9.2988,-9.2988,-9.2988,-9.2988,-9.2988,-9.2988,-9.2988,-9.2988,-9.2988,-9.2988,-9.2988,-9.2988,-9.2988,-9.2988,-9.2988,-9.2988,-9.2988,-9.5623,-9.4867,-9.4227,-9.4211,-9.339,-9.2695,-9.2678,-9.1916,-9.1325,-9.1325,-9.1248,-9.121,-9.121,-9.121,-9.121,-9.121,-9.121,-9.121,-9.121,-9.121,-9.121,-9.121,-9.121,-9.121,-9.121,-9.121,-9.121,-9.121,-9.121,-9.121,-9.121,-9.121,-9.121,-9.121,-9.121,-9.121,-9.121,-9.121,-9.121,-9.121,-9.121,-9.121,-9.121,-9.121,-9.121,-9.121,-9.121,-9.121,-9.121,-9.121,-9.121,-9.121,-9.121,-9.121,-9.121,-9.121,-9.121,-9.121,-9.121,-9.121,-9.121,-9.121,-9.121,-9.121,-9.121,-9.121,-9.121,-9.121,-9.121,-9.121,-9.121,-9.121,-9.121,-9.121,-9.121,-9.121,-9.121,-9.121,-9.121,-9.121,-9.1287,-9.1672,-9.2518,-9.3403,-9.4595,-9.6172,-9.5741,-9.5142,-9.4629,-9.4104,-9.3769,-9.3709,-9.3237,-9.3205,-9.3709,-9.3237,-9.2988,-9.2988,-9.2988,-9.2988,-9.2988,-9.2988,-9.2988,-9.2988,-9.2988,-9.2988,-9.2988,-9.2988,-9.2988,-9.2988,-9.2988,-9.2988,-9.2988,-9.2988,-9.2988,-9.2988,-9.6512,-9.5756,-9.5084,-9.5059,-9.4227,-9.3603,-9.3495,-9.2766,-9.221,-9.221,-9.1633,-9.121,-9.121,-9.121,-9.121,-9.121,-9.121,-9.121,-9.121,-9.121,-9.121,-9.121,-9.121,-9.121,-9.121,-9.121,-9.121,-9.121,-9.121,-9.121,-9.121,-9.121,-9.121,-9.121,-9.121,-9.121,-9.121,-9.121,-9.121,-9.121,-9.121,-9.121,-9.121,-9.121,-9.121,-9.121,-9.121,-9.121,-9.121,-9.121,-9.121,-9.121,-9.121,-9.121,-9.121,-9.121,-9.121,-9.121,-9.121,-9.121,-9.121,-9.121,-9.121,-9.121,-9.121,-9.121,-9.121,-9.121,-9.121,-9.121,-9.121,-9.121,-9.121,-9.121,-9.121,-9.121,-9.121,-9.121,-9.121,-9.121,-9.1787,-9.2556,-9.3364,-9.4826,-9.5903,-9.6288,-9.5741,-9.5142,-9.4629,-9.4104,-9.3597,-9.3211,-9.3086,-9.3054,-9.3179,-9.3054,-9.2988,-9.2988,-9.2988,-9.2988,-9.2988,-9.2988,-9.2988,-9.2988,-9.2988,-9.2988,-9.2988,-9.2988,-9.2988,-9.2988,-9.2988,-9.2988,-9.2988,-9.2988,-9.2988,-9.2988,-9.6777,-9.6313,-9.5908,-9.5825,-9.5045,-9.4398,-9.4344,-9.3595,-9.3056,-9.3056,-9.2672,-9.2249,-9.1864,-9.1825,-9.1633,-9.1248,-9.121,-9.121,-9.121,-9.121,-9.121,-9.121,-9.121,-9.121,-9.121,-9.121,-9.121,-9.121,-9.121,-9.121,-9.121,-9.121,-9.121,-9.121,-9.121,-9.121,-9.121,-9.121,-9.121,-9.121,-9.121,-9.121,-9.121,-9.121,-9.121,-9.121,-9.121,-9.121,-9.121,-9.121,-9.121,-9.121,-9.121,-9.121,-9.121,-9.121,-9.121,-9.121,-9.121,-9.121,-9.121,-9.121,-9.121,-9.121,-9.121,-9.121,-9.121,-9.121,-9.121,-9.121,-9.121,-9.121,-9.121,-9.121,-9.121,-9.121,-9.121,-9.121,-9.121,-9.121,-9.1979,-9.2979,-9.421,-9.5518,-9.6288,-9.6288,-9.549,-9.4904,-9.4604,-9.3856,-9.3301,-9.3021,-9.2988,-9.2988,-9.2988,-9.2988,-9.2988,-9.2988,-9.2988,-9.2988,-9.2988,-9.2988,-9.2988,-9.2988,-9.2988,-9.2988,-9.2988,-9.2988,-9.2988,-9.2988,-9.2988,-9.2988,-9.2988,-9.2988,-9.2988,-9.2988,-9.6715,-9.658,-9.648,-9.6411,-9.5745,-9.5211,-9.5211,-9.448,-9.3903,-9.3903,-9.3787,-9.3441,-9.2787,-9.2595,-9.221,-9.1479,-9.1287,-9.121,-9.121,-9.121,-9.121,-9.121,-9.121,-9.121,-9.121,-9.121,-9.121,-9.121,-9.121,-9.121,-9.121,-9.121,-9.121,-9.121,-9.121,-9.121,-9.121,-9.121,-9.121,-9.121,-9.121,-9.121,-9.121,-9.121,-9.121,-9.121,-9.121,-9.121,-9.121,-9.121,-9.121,-9.121,-9.121,-9.121,-9.121,-9.121,-9.121,-9.121,-9.121,-9.121,-9.121,-9.121,-9.121,-9.121,-9.121,-9.121,-9.121,-9.121,-9.121,-9.121,-9.121,-9.121,-9.121,-9.121,-9.121,-9.121,-9.121,-9.121,-9.1248,-9.1402,-9.2326,-9.3518,-9.5057,-9.5865,-9.6288,-9.6288,-9.5227,-9.4655,-9.4731,-9.3627,-9.3054,-9.3114,-9.3054,-9.2988,-9.2988,-9.2988,-9.2988,-9.2988,-9.2988,-9.2988,-9.2988,-9.2988,-9.2988,-9.2988,-9.2988,-9.2988,-9.2988,-9.2988,-9.2988,-9.2988,-9.2988,-9.2988,-9.2988,-9.2988,-9.2988,-9.2988,-9.6715,-9.6531,-9.6411,-9.6394,-9.6245,-9.6134,-9.6134,-9.5365,-9.4826,-9.4826,-9.4172,-9.3672,-9.3557,-9.2903,-9.2441,-9.2326,-9.1633,-9.121,-9.121,-9.121,-9.121,-9.121,-9.121,-9.121,-9.121,-9.121,-9.121,-9.121,-9.121,-9.121,-9.121,-9.121,-9.121,-9.121,-9.121,-9.121,-9.121,-9.121,-9.121,-9.121,-9.121,-9.121,-9.121,-9.121,-9.121,-9.121,-9.121,-9.121,-9.121,-9.121,-9.121,-9.121,-9.121,-9.121,-9.121,-9.121,-9.121,-9.121,-9.121,-9.121,-9.121,-9.121,-9.121,-9.121,-9.121,-9.121,-9.121,-9.121,-9.121,-9.121,-9.121,-9.121,-9.121,-9.121,-9.121,-9.121,-9.121,-9.121,-9.1479,-9.221,-9.371,-9.5057,-9.6019,-9.6249,-9.6288,-9.6288,-9.5227,-9.4806,-9.5273,-9.3827,-9.3205,-9.3687,-9.3237,-9.2988,-9.2988,-9.2988,-9.2988,-9.2988,-9.2988,-9.2988,-9.2988,-9.2988,-9.2988,-9.2988,-9.2988,-9.2988,-9.2988,-9.2988,-9.2988,-9.2988,-9.2988,-9.2988,-9.2988,-9.2988,-9.2988,-9.2988,-9.6597,-9.6497,-9.6376,-9.6361,-9.6325,-9.6288,-9.6288,-9.598,-9.5711,-9.5711,-9.5403,-9.498,-9.448,-9.3672,-9.2979,-9.2556,-9.2133,-9.171,-9.1248,-9.121,-9.121,-9.121,-9.121,-9.121,-9.121,-9.121,-9.121,-9.121,-9.121,-9.121,-9.121,-9.121,-9.121,-9.121,-9.121,-9.121,-9.121,-9.121,-9.121,-9.121,-9.121,-9.121,-9.121,-9.121,-9.121,-9.121,-9.121,-9.121,-9.121,-9.121,-9.121,-9.121,-9.121,-9.121,-9.121,-9.121,-9.121,-9.121,-9.121,-9.121,-9.121,-9.121,-9.121,-9.121,-9.121,-9.121,-9.121,-9.121,-9.121,-9.121,-9.121,-9.121,-9.121,-9.121,-9.121,-9.121,-9.121,-9.121,-9.171,-9.3018,-9.4249,-9.5326,-9.6211,-9.6288,-9.6288,-9.6288,-9.5227,-9.4706,-9.4929,-9.368,-9.3082,-9.3364,-9.3114,-9.2988,-9.2988,-9.2988,-9.2988,-9.2988,-9.2988,-9.2988,-9.2988,-9.2988,-9.2988,-9.2988,-9.2988,-9.2988,-9.2988,-9.2988,-9.2988,-9.2988,-9.2988,-9.2988,-9.2988,-9.2988,-9.2988,-9.2988]},{"header":{"parameterUnit":"m.s-1","parameterCategory":1,"la1":30.6,"la2":28.766,"lo1":-90.7593,"lo2":-88.6598,"dx":0.0162,"dy":0.0183,"nx":116,"ny":114,"refTime":"2022-12-30T18:00:00:Z","depth":0,"parameterNumber":3,"parameterNumberName":"V-component_of_WINDS"},"data":[0.0,0.0,0.0,0.0,0.0,0.0,0.0,0.0,0.0,0.0,0.0,0.0,0.0,0.0,0.0,0.0,0.0,0.0,0.0,0.0,0.0,0.0,0.0,0.0,0.0,0.0,0.0,0.0,0.0,0.0,0.0,0.0,0.0,0.0,0.0,0.0,0.0,0.0,0.0,0.0,0.0,0.0,0.0,0.0,0.0,0.0,0.0,0.0,0.0,0.0,0.0,0.0,0.0,0.0,0.0,0.0,0.0,0.0,0.0,0.0,0.0,0.0,0.0,0.0,0.0,0.0,0.0,0.0,0.0,0.0,0.0,0.0,0.0,0.0,0.0,0.0,0.0,0.0,0.0,0.0,0.0,0.0,0.0,0.0,0.0,0.0,0.0,0.0,0.0,0.0,0.0,0.0,0.0,0.0,0.0,0.0,0.0,0.0,0.0,0.0,0.0,0.0,0.0,0.0,0.0,0.0,0.0,0.0,0.0,0.0,0.0,0.0,0.0,0.0,0.0,0.0,0.0,0.0,0.0,0.0,0.0,0.0,0.0,0.0,0.0,0.0,0.0,0.0,0.0,0.0,0.0,0.0,0.0,0.0,0.0,0.0,0.0,0.0,0.0,0.0,0.0,0.0,0.0,0.0,0.0,0.0,0.0,0.0,0.0,0.0,0.0,0.0,0.0,0.0,0.0,0.0,0.0,0.0,0.0,0.0,0.0,0.0,0.0,0.0,0.0,0.0,0.0,0.0,0.0,0.0,0.0,0.0,0.0,0.0,0.0,0.0,0.0,0.0,0.0,0.0,0.0,0.0,0.0,0.0,0.0,0.0,0.0,0.0,0.0,0.0,0.0,0.0,0.0,0.0,0.0,0.0,0.0,0.0,0.0,0.0,0.0,0.0,0.0,0.0,0.0,0.0,0.0,0.0,0.0,0.0,0.0,0.0,0.0,0.0,0.0,0.0,0.0,0.0,0.0,0.0,0.0,0.0,0.0,0.0,0.0,0.0,0.0,0.0,0.0,0.0,0.0,0.0,0.0,0.0,0.0,0.0,0.0,0.0,0.0,0.0,0.0,0.0,0.0,0.0,0.0,0.0,0.0,0.0,0.0,0.0,0.0,0.0,0.0,0.0,0.0,0.0,0.0,0.0,0.0,0.0,0.0,0.0,0.0,0.0,0.0,0.0,0.0,0.0,0.0,0.0,0.0,0.0,0.0,0.0,0.0,0.0,0.0,0.0,0.0,0.0,0.0,0.0,0.0,0.0,0.0,0.0,0.0,0.0,0.0,0.0,0.0,0.0,0.0,0.0,0.0,0.0,0.0,0.0,0.0,0.0,0.0,0.0,0.0,0.0,0.0,0.0,0.0,0.0,0.0,0.0,0.0,0.0,0.0,0.0,0.0,0.0,0.0,0.0,0.0,0.0,0.0,0.0,0.0,0.0,0.0,0.0,0.0,0.0,0.0,0.0,0.0,0.0,0.0,0.0,0.0,0.0,0.0,0.0,0.0,0.0,0.0,0.0,0.0,0.0,0.0,0.0,0.0,0.0,0.0,0.0,0.0,0.0,0.0,0.0,0.0,0.0,0.0,0.0,0.0,0.0,0.0,0.0,0.0,0.0,0.0,0.0,0.0,0.0,0.0,0.0,0.0,0.0,0.0,0.0,0.0,0.0,0.0,0.0,0.0,0.0,0.0,0.0,0.0,0.0,0.0,0.0,0.0,0.0,0.0,0.0,0.0,0.0,0.0,0.0,0.0,0.0,0.0,0.0,0.0,0.0,0.0,0.0,0.0,0.0,0.0,0.0,0.0,0.0,0.0,0.0,0.0,0.0,0.0,0.0,0.0,0.0,0.0,0.0,0.0,0.0,0.0,0.0,0.0,0.0,0.0,0.0,0.0,0.0,0.0,0.0,0.0,0.0,0.0,0.0,0.0,0.0,0.0,0.0,0.0,0.0,0.0,0.0,0.0,0.0,0.0,0.0,0.0,0.0,0.0,0.0,0.0,0.0,0.0,0.0,0.0,0.0,0.0,0.0,0.0,0.0,0.0,0.0,0.0,0.0,0.0,0.0,0.0,0.0,0.0,0.0,0.0,0.0,0.0,0.0,0.0,0.0,0.0,0.0,0.0,0.0,0.0,0.0,0.0,0.0,0.0,0.0,0.0,0.0,0.0,0.0,0.0,0.0,0.0,0.0,0.0,0.0,0.0,0.0,0.0,0.0,0.0,0.0,0.0,0.0,0.0,0.0,0.0,0.0,0.0,0.0,0.0,0.0,0.0,0.0,0.0,0.0,0.0,0.0,0.0,0.0,0.0,0.0,0.0,0.0,0.0,0.0,0.0,0.0,0.0,0.0,0.0,0.0,0.0,0.0,0.0,0.0,0.0,0.0,0.0,0.0,0.0,0.0,0.0,0.0,0.0,0.0,0.0,0.0,0.0,0.0,0.0,0.0,0.0,0.0,0.0,0.0,0.0,0.0,0.0,0.0,0.0,0.0,0.0,0.0,0.0,0.0,0.0,0.0,0.0,0.0,0.0,0.0,0.0,0.0,0.0,0.0,0.0,0.0,0.0,0.0,0.0,0.0,0.0,0.0,0.0,0.0,0.0,0.0,0.0,0.0,0.0,0.0,0.0,0.0,0.0,0.0,0.0,0.0,0.0,0.0,0.0,0.0,0.0,0.0,0.0,0.0,0.0,0.0,0.0,0.0,0.0,0.0,0.0,0.0,0.0,0.0,0.0,0.0,0.0,0.0,0.0,0.0,0.0,0.0,0.0,0.0,0.0,0.0,0.0,0.0,0.0,0.0,0.0,0.0,0.0,0.0,0.0,0.0,0.0,0.0,0.0,0.0,0.0,0.0,0.0,0.0,0.0,0.0,0.0,0.0,0.0,0.0,0.0,0.0,0.0,0.0,0.0,0.0,0.0,0.0,0.0,0.0,0.0,0.0,0.0,0.0,0.0,0.0,0.0,0.0,0.0,0.0,0.0,0.0,0.0,0.0,0.0,0.0,0.0,0.0,0.0,0.0,0.0,0.0,0.0,0.0,0.0,0.0,0.0,0.0,0.0,0.0,0.0,0.0,0.0,0.0,0.0,0.0,0.0,0.0,0.0,0.0,0.0,0.0,0.0,0.0,0.0,0.0,0.0,0.0,0.0,0.0,0.0,0.0,0.0,0.0,0.0,0.0,0.0,0.0,0.0,0.0,0.0,0.0,0.0,0.0,0.0,0.0,0.0,0.0,0.0,0.0,0.0,0.0,0.0,0.0,0.0,0.0,0.0,0.0,0.0,0.0,0.0,0.0,0.0,0.0,0.0,0.0,0.0,0.0,0.0,0.0,0.0,0.0,0.0,0.0,0.0,0.0,0.0,0.0,0.0,0.0,0.0,0.0,0.0,0.0,0.0,0.0,0.0,0.0,0.0,0.0,0.0,0.0,0.0,0.0,0.0,0.0,0.0,0.0,0.0,0.0,0.0,0.0,0.0,0.0,0.0,0.0,0.0,0.0,0.0,0.0,0.0,0.0,0.0,0.0,0.0,0.0,0.0,0.0,0.0,0.0,0.0,0.0,0.0,0.0,0.0,0.0,0.0,0.0,0.0,0.0,0.0,0.0,0.0,0.0,0.0,0.0,0.0,0.0,0.0,0.0,0.0,0.0,0.0,0.0,0.0,0.0,0.0,0.0,0.0,0.0,0.0,0.0,0.0,0.0,0.0,0.0,0.0,0.0,0.0,0.0,0.0,0.0,0.0,0.0,0.0,0.0,0.0,0.0,0.0,0.0,0.0,0.0,0.0,0.0,0.0,0.0,0.0,0.0,0.0,0.0,0.0,0.0,0.0,0.0,0.0,0.0,0.0,0.0,0.0,0.0,0.0,0.0,0.0,0.0,0.0,0.0,0.0,0.0,0.0,0.0,0.0,0.0,0.0,0.0,0.0,0.0,0.0,0.0,0.0,0.0,0.0,0.0,0.0,0.0,0.0,0.0,0.0,0.0,0.0,0.0,0.0,0.0,0.0,0.0,0.0,0.0,0.0,0.0,0.0,0.0,0.0,0.0,0.0,0.0,0.0,0.0,0.0,0.0,0.0,0.0,0.0,0.0,0.0,0.0,0.0,0.0,0.0,0.0,0.0,0.0,0.0,0.0,0.0,0.0,0.0,0.0,0.0,0.0,0.0,0.0,0.0,0.0,0.0,0.0,0.0,0.0,0.0,0.0,0.0,0.0,0.0,0.0,0.0,0.0,0.0,0.0,0.0,0.0,0.0,0.0,0.0,0.0,0.0,0.0,0.0,0.0,0.0,0.0,0.0,0.0,0.0,0.0,0.0,0.0,0.0,0.0,0.0,0.0,0.0,0.0,0.0,0.0,0.0,0.0,0.0,0.0,0.0,0.0,0.0,0.0,0.0,0.0,0.0,0.0,0.0,0.0,0.0,0.0,0.0,0.0,0.0,0.0,0.0,0.0,0.0,0.0,0.0,0.0,0.0,0.0,0.0,0.0,0.0,0.0,0.0,0.0,0.0,0.0,0.0,0.0,0.0,0.0,0.0,0.0,0.0,0.0,0.0,0.0,0.0,0.0,0.0,0.0,0.0,0.0,0.0,0.0,0.0,0.0,0.0,0.0,0.0,0.0,0.0,0.0,0.0,0.0,0.0,0.0,0.0,0.0,0.0,0.0,0.0,0.0,0.0,0.0,0.0,0.0,0.0,0.0,0.0,0.0,0.0,0.0,0.0,0.0,0.0,0.0,0.0,0.0,0.0,0.0,0.0,0.0,0.0,0.0,0.0,0.0,0.0,0.0,0.0,0.0,0.0,0.0,0.0,0.0,0.0,0.0,0.0,0.0,0.0,0.0,0.0,0.0,0.0,0.0,0.0,0.0,0.0,0.0,0.0,0.0,0.0,0.0,0.0,0.0,0.0,0.0,0.0,0.0,0.0,0.0,0.0,0.0,0.0,0.0,0.0,0.0,0.0,0.0,0.0,0.0,0.0,0.0,0.0,0.0,0.0,0.0,0.0,0.0,0.0,0.0,0.0,0.0,0.0,0.0,0.0,0.0,0.0,0.0,0.0,0.0,0.0,0.0,0.0,0.0,0.0,0.0,0.0,0.0,0.0,0.0,0.0,0.0,0.0,0.0,0.0,0.0,0.0,0.0,0.0,0.0,0.0,0.0,0.0,0.0,0.0,0.0,0.0,0.0,0.0,0.0,0.0,0.0,0.0,0.0,0.0,0.0,0.0,0.0,0.0,0.0,0.0,0.0,0.0,0.0,0.0,0.0,0.0,0.0,0.0,0.0,0.0,0.0,0.0,0.0,0.0,0.0,0.0,0.0,0.0,0.0,0.0,0.0,0.0,0.0,0.0,0.0,0.0,0.0,0.0,0.0,0.0,0.0,0.0,0.0,0.0,0.0,0.0,0.0,0.0,0.0,0.0,0.0,0.0,0.0,0.0,0.0,0.0,0.0,0.0,0.0,0.0,0.0,0.0,0.0,0.0,0.0,0.0,0.0,0.0,0.0,0.0,0.0,0.0,0.0,0.0,0.0,0.0,0.0,0.0,0.0,0.0,0.0,0.0,0.0,0.0,0.0,0.0,0.0,0.0,0.0,0.0,0.0,0.0,0.0,0.0,0.0,0.0,0.0,0.0,0.0,0.0,0.0,0.0,0.0,0.0,0.0,0.0,0.0,0.0,0.0,0.0,0.0,0.0,0.0,0.0,0.0,0.0,0.0,0.0,0.0,0.0,0.0,0.0,0.0,0.0,0.0,0.0,0.0,0.0,0.0,0.0,0.0,0.0,0.0,0.0,0.0,0.0,0.0,0.0,0.0,0.0,0.0,0.0,0.0,0.0,0.0,0.0,0.0,0.0,0.0,0.0,0.0,0.0,0.0,0.0,0.0,0.0,0.0,0.0,0.0,0.0,0.0,0.0,0.0,0.0,0.0,0.0,0.0,0.0,0.0,0.0,0.0,0.0,0.0,0.0,0.0,0.0,0.0,0.0,0.0,0.0,0.0,0.0,0.0,0.0,0.0,0.0,0.0,0.0,0.0,0.0,0.0,0.0,0.0,0.0,0.0,0.0,0.0,0.0,0.0,0.0,0.0,0.0,0.0,0.0,0.0,0.9178,0.8757,0.0,0.0,0.0,0.0,0.0,0.0,0.0,0.0,0.0,0.0,0.0,0.0,0.0,0.0,0.0,0.0,0.0,0.0,0.0,0.0,0.0,0.0,0.0,0.0,0.0,0.0,0.0,0.0,0.0,0.0,0.0,0.0,0.0,0.0,0.0,0.0,0.4915,0.5094,0.5173,0.5393,0.5621,0.5496,0.5409,0.5319,0.0,0.0,0.0,0.0,0.0,0.0,0.0,0.0,0.0,0.0,0.0,0.0,0.0,0.0,0.0,0.0,0.0,0.0,0.0,0.0,0.0,0.0,0.0,0.0,0.0,0.0,0.0,0.0,0.0,0.0,0.0,0.0,0.0,0.0,0.0,0.0,0.0,0.0,0.0,0.0,0.0,0.0,0.0,0.0,0.0,0.0,0.0,0.0,0.0,0.0,0.0,0.0,0.0,0.0,0.0,0.0,0.0,0.0,0.0,0.0,0.0,0.0,0.0,0.0,0.0,0.0,0.0,0.0,0.0,0.0,0.9659,0.9279,0.0,0.0,0.0,0.0,0.0,0.0,0.0,0.0,0.0,0.0,0.0,0.0,0.0,0.0,0.0,0.0,0.0,0.0,0.0,0.0,0.0,0.0,0.0,0.5404,0.5409,0.5431,0.5431,0.5339,0.0,0.0,0.0,0.0,0.0,0.0,0.4887,0.5011,0.5224,0.5506,0.5583,0.5772,0.6029,0.6154,0.6105,0.5869,0.5788,0.0,0.0,0.0,0.0,0.0,0.0,0.0,0.0,0.0,0.0,0.0,0.0,0.0,0.0,0.0,0.0,0.0,0.0,0.0,0.0,0.0,0.0,0.0,0.0,0.0,0.0,0.0,0.0,0.0,0.0,0.0,0.0,0.0,0.0,0.0,0.0,0.0,0.0,0.0,0.0,0.0,0.0,0.0,0.0,0.0,0.0,0.0,0.0,0.0,0.0,0.0,0.0,0.0,0.0,0.0,0.0,0.0,0.0,0.0,0.0,0.0,0.0,0.0,1.0152,1.0371,1.0609,1.0609,1.074,1.0981,1.0594,1.0278,1.0151,1.1294,0.0,0.0,0.0,0.0,0.0,0.0,0.0,0.0,0.0,0.0,0.0,0.0,0.0,0.0,0.0,0.0,0.0,0.0,0.0,0.0,0.0,0.5486,0.5524,0.5632,0.5642,0.5583,0.5448,0.0,0.0,0.0,0.0,0.0,0.5342,0.5373,0.5551,0.5833,0.6112,0.6338,0.6529,0.6649,0.6692,0.6643,0.6225,0.5964,0.5833,0.0,0.0,0.0,0.0,0.0,0.0,0.0,0.0,0.0,0.0,0.0,0.0,0.0,0.0,0.0,0.0,0.0,0.0,0.0,0.0,0.0,0.0,0.0,0.0,0.0,0.0,0.0,0.0,0.0,0.0,0.0,0.0,0.0,0.0,0.0,0.0,0.0,0.0,0.0,0.0,0.0,0.9335,0.8721,0.0,0.0,0.0,0.0,0.0,0.0,0.0,0.0,0.0,0.0,0.0,0.0,0.0,0.9909,0.993,1.0399,1.0616,1.0636,1.0894,1.1036,1.1145,1.1145,1.1823,1.3042,1.297,0.0,1.1885,1.3256,0.0,0.0,0.0,0.0,0.0,0.0,0.0,0.0,0.0,0.0,0.0,0.0,0.0,0.0,0.0,0.0,0.0,0.0,0.0,0.0,0.0,0.585,0.5871,0.5926,0.5931,0.5882,0.5757,0.5707,0.0,0.0,0.0,0.5605,0.567,0.5719,0.5853,0.616,0.6567,0.6774,0.6828,0.6942,0.7002,0.6991,0.6832,0.6507,0.6203,0.6203,0.0,0.0,0.0,0.0,0.0,0.0,0.0,0.0,0.0,0.0,0.0,0.0,0.0,0.0,0.0,0.0,0.0,0.0,0.0,0.0,0.0,0.0,0.0,0.0,0.0,0.0,0.0,0.0,0.0,0.0,0.0,0.0,0.0,0.0,0.0,0.0,0.0,0.0,0.0,0.9448,0.9137,0.9098,0.9089,0.9178,0.0,0.0,0.0,0.0,0.0,0.0,0.0,0.0,0.0,1.0317,1.0392,1.0507,1.067,1.0955,1.1097,1.1097,1.1314,1.1463,1.1538,1.1538,1.2386,1.394,1.4709,1.5303,1.5754,1.5917,1.5958,1.5971,0.0,0.0,0.0,0.0,1.7503,1.7692,0.0,0.0,0.0,0.0,0.0,0.0,0.0,0.0,0.0,0.0,0.0,0.0,0.6149,0.6176,0.6203,0.6263,0.6268,0.6203,0.6051,0.604,0.5975,0.5828,0.5822,0.5893,0.6034,0.6132,0.6328,0.6632,0.6926,0.7105,0.7171,0.7258,0.7369,0.7396,0.7363,0.7029,0.6578,0.6578,0.6372,0.6034,0.0,0.0,0.0,0.0,0.0,0.0,0.0,0.0,0.0,0.0,0.0,0.0,0.0,0.0,0.0,0.0,0.0,0.0,0.0,0.0,0.0,0.0,0.0,0.0,0.0,0.0,0.0,0.0,0.0,0.0,0.0,0.0,0.0,0.0,0.0,0.0,0.0,0.932,0.9049,0.9496,0.9551,0.9652,0.0,0.0,0.0,0.0,0.0,0.0,1.0152,1.0226,1.0507,1.088,1.0928,1.1056,1.1274,1.143,1.1525,1.1565,1.1721,1.2084,1.2667,1.2667,1.3761,1.5811,1.6835,1.8197,1.9495,1.8619,1.8228,1.8328,1.8948,1.9314,1.9458,1.9265,1.9314,1.9483,0.0,0.0,0.0,0.0,0.0,0.0,0.0,0.0,0.0,0.0,0.0,0.6159,0.6344,0.6371,0.6513,0.6747,0.6763,0.6665,0.6376,0.636,0.6306,0.6078,0.6067,0.6176,0.6354,0.6752,0.6991,0.7177,0.7252,0.7437,0.7665,0.7671,0.7731,0.7828,0.772,0.7404,0.6959,0.6959,0.6752,0.636,0.6528,0.0,0.0,0.0,0.0,0.0,0.0,0.0,0.0,0.0,0.0,0.0,0.0,0.0,0.0,0.0,0.0,0.0,0.0,0.0,0.0,0.0,0.0,0.0,0.0,0.0,0.0,0.0,0.0,0.0,0.0,0.0,0.0,0.0,0.0,0.0,0.0,0.0,0.0,0.9903,0.9957,0.0,0.0,0.0,0.0,1.0256,1.0385,1.0527,1.0677,1.0955,1.1185,1.1355,1.1497,1.1579,1.1599,1.1735,1.1884,1.2108,1.2182,1.3239,1.4911,1.4911,1.6657,1.9693,1.9768,2.068,2.2028,2.0969,2.0536,2.0536,2.0581,2.0581,2.0593,2.0569,2.0581,2.0593,0.0,0.0,0.0,0.0,0.0,0.5486,0.5605,0.5723,0.5915,0.6111,0.6241,0.6372,0.6535,0.6627,0.6709,0.6796,0.6801,0.6763,0.6676,0.6671,0.6632,0.6551,0.6545,0.6622,0.6785,0.6991,0.7154,0.7274,0.7546,0.7725,0.7812,0.797,0.8068,0.8106,0.8062,0.7905,0.7714,0.7339,0.7051,0.6785,0.6763,0.6765,0.0,0.0,0.0,0.0,0.0,0.0,0.0,0.0,0.0,0.0,0.0,0.0,0.0,0.0,0.0,0.0,0.0,0.0,0.0,0.0,0.0,0.0,0.0,0.0,0.0,0.0,0.0,0.0,0.0,0.0,0.0,0.0,0.0,0.0,0.0,0.0,0.0,1.029,1.0419,0.0,1.0697,1.0792,1.0846,1.0846,1.0989,1.1097,1.1151,1.1348,1.1525,1.1667,1.1823,1.1952,1.2047,1.3408,1.4099,1.4168,1.4338,1.4767,1.545,1.545,1.6616,1.8795,1.9888,2.1286,2.2806,2.243,2.2067,2.1679,2.151,2.1547,2.174,2.1571,2.1547,2.1764,0.0,0.0,0.0,0.5567,0.5567,0.561,0.5729,0.5888,0.6051,0.6295,0.6426,0.6578,0.6779,0.6872,0.6953,0.7035,0.7046,0.7029,0.6986,0.698,0.6964,0.6921,0.6959,0.7018,0.71,0.7296,0.7437,0.7513,0.7834,0.8013,0.8057,0.822,0.8318,0.835,0.8312,0.8253,0.8155,0.779,0.7453,0.7154,0.7029,0.6993,0.7004,0.0,0.0,0.0,0.0,0.0,0.0,0.0,0.0,0.0,0.0,0.0,0.0,0.0,0.0,0.0,0.0,0.0,0.0,0.0,0.0,0.0,0.0,0.0,0.0,0.0,0.0,0.0,0.0,0.0,0.0,0.0,0.0,0.0,0.0,1.0523,1.0365,1.0616,1.0778,1.0928,1.1084,1.1185,1.126,1.1314,1.1457,1.1558,1.1613,1.1809,1.2201,1.2938,1.2581,1.2713,1.3428,1.418,1.4861,1.5469,1.5592,1.6321,1.7492,1.7565,1.8554,2.0162,2.1373,2.2611,2.3575,2.3575,2.3369,2.3007,2.2476,2.2428,2.2645,2.2464,2.2573,2.279,0.0,0.5691,0.5691,0.5691,0.5691,0.5734,0.5893,0.6013,0.6176,0.636,0.65,0.6757,0.7172,0.7215,0.7258,0.7497,0.7519,0.747,0.7293,0.7282,0.729,0.7226,0.7279,0.7288,0.7293,0.7693,0.7877,0.7883,0.8122,0.8301,0.8416,0.8421,0.8481,0.8584,0.8475,0.8421,0.8416,0.8291,0.797,0.7535,0.7347,0.765,0.8164,0.0,0.0,0.0,0.0,0.0,0.0,0.0,0.0,0.0,0.0,0.0,0.0,0.0,0.0,0.0,0.0,0.0,0.0,0.0,0.0,0.0,0.0,0.0,0.0,0.0,0.0,0.0,0.0,0.0,0.0,0.0,0.0,0.0,1.0481,1.0541,1.0785,1.0941,1.109,1.1309,1.1459,1.148,1.1477,1.1626,1.1769,1.1918,1.2074,1.2359,1.3346,1.5204,1.375,1.3836,1.5575,1.4004,1.4092,1.6023,1.5942,1.7719,2.1163,2.1409,2.243,2.41,2.4434,2.4625,2.4625,2.4625,2.4625,2.4528,2.349,2.3261,2.3411,2.3411,2.3568,2.3784,0.5691,0.5691,0.5691,0.5691,0.5801,0.5899,0.6018,0.6138,0.6301,0.654,0.6676,0.6855,0.7182,0.723,0.735,0.7502,0.7519,0.7502,0.747,0.747,0.7453,0.7421,0.7448,0.7546,0.772,0.7818,0.7959,0.8133,0.8291,0.8383,0.8421,0.8503,0.8557,0.8584,0.8557,0.8541,0.8535,0.8416,0.8291,0.8144,0.7845,0.7696,0.7698,0.0,0.0,0.0,0.0,0.0,0.0,0.0,0.0,0.0,0.0,0.0,0.0,0.0,0.0,0.0,0.0,0.0,0.0,0.0,0.0,0.0,0.0,0.0,0.0,0.0,0.0,0.0,0.0,0.0,0.0,0.0,1.0692,1.1047,1.0661,1.0765,1.1382,1.2812,1.21,1.2044,1.3339,1.2532,1.1938,1.2094,1.2237,1.2386,1.2535,1.2732,1.3092,1.3605,1.336,1.4054,1.6032,1.6893,1.8375,2.0321,1.8911,1.8773,1.9737,1.9805,2.0086,2.0754,2.3419,2.4625,2.4625,2.4625,2.4625,2.4601,2.4311,2.4238,2.4299,2.4299,2.4347,2.4407,0.5691,0.5691,0.5691,0.5691,0.5828,0.5942,0.6067,0.624,0.6372,0.666,0.6757,0.691,0.7198,0.7339,0.7464,0.7584,0.7638,0.7665,0.7665,0.7714,0.7741,0.7741,0.779,0.7883,0.8019,0.8073,0.8171,0.8312,0.8432,0.8486,0.8492,0.8557,0.859,0.859,0.859,0.859,0.8584,0.8519,0.8486,0.8465,0.8204,0.7954,0.7736,0.7665,0.7916,0.8307,0.8307,0.894,0.9915,1.0587,0.0,0.0,0.0,0.0,0.0,0.0,0.0,0.0,0.0,0.0,0.0,0.0,0.0,0.0,0.0,0.0,0.0,0.0,0.0,0.0,0.0,0.0,0.0,0.0,1.1224,1.1697,1.1159,1.1172,1.1657,1.2813,1.2344,1.2321,1.3431,1.2849,1.2406,1.2562,1.2644,1.2759,1.2908,1.3057,1.3492,1.4282,1.3783,1.4401,1.6326,1.6676,1.7785,1.9671,1.8575,1.8828,2.0343,2.0433,2.0905,2.1758,2.3981,2.4963,2.4963,2.4963,2.4963,2.4939,0.0,0.0,0.0,0.0,2.4963,2.4963,0.5691,0.5691,0.5691,0.5691,0.5839,0.5958,0.6067,0.6203,0.641,0.6757,0.6801,0.6937,0.7239,0.7448,0.7568,0.7693,0.7807,0.7877,0.7949,0.8054,0.8119,0.8136,0.8176,0.8178,0.8188,0.8361,0.8421,0.8437,0.8535,0.859,0.859,0.859,0.859,0.859,0.859,0.859,0.859,0.859,0.859,0.8579,0.8475,0.8301,0.8158,0.8141,0.7867,0.7578,0.7578,0.8175,0.9008,0.9106,0.0,0.0,0.0,0.0,0.0,0.0,0.0,0.0,0.0,0.0,0.0,0.0,0.0,0.0,0.0,0.0,0.0,0.0,0.0,0.0,0.0,0.0,0.0,0.0,1.23,1.2887,1.1811,1.1708,1.1835,1.2111,1.2237,1.2469,1.2768,1.2756,1.282,1.2976,1.3003,1.3071,1.3214,1.337,0.0,0.0,0.0,1.47,1.6499,1.4971,1.5064,1.6872,1.6702,1.8385,2.1683,2.1906,2.3032,2.4758,2.5167,2.5433,2.5433,2.5433,2.5433,2.5385,2.4902,2.4866,2.5035,2.5349,2.5433,2.5433,0.5707,0.5691,0.5691,0.5691,0.5909,0.6062,0.6083,0.6268,0.6502,0.6768,0.6801,0.6937,0.7239,0.7448,0.7568,0.7693,0.7807,0.7977,0.8075,0.8103,0.8095,0.8198,0.822,0.828,0.8378,0.8405,0.8465,0.8557,0.8579,0.859,0.859,0.859,0.859,0.859,0.859,0.859,0.859,0.859,0.859,0.8584,0.8562,0.847,0.8334,0.8236,0.8095,0.8015,0.8015,0.8039,0.8253,0.9255,0.9694,0.9937,1.0922,1.1037,0.0,0.0,0.0,0.0,0.0,0.0,0.0,0.0,0.0,0.0,0.0,0.0,0.0,0.0,0.0,0.0,0.0,0.0,0.0,1.3109,1.2481,1.1997,1.2183,1.2257,1.2796,1.4106,1.3296,1.3248,1.4663,1.3684,1.2976,1.3119,1.3247,1.3383,1.3532,1.3675,1.3848,1.4216,1.3995,1.475,1.6763,1.6513,1.7268,1.9232,1.7679,0.0,2.0269,2.0317,2.1373,2.319,2.4714,2.5433,2.5433,2.5433,2.5433,2.5421,2.5325,2.5313,2.5373,2.5421,2.5433,2.5433,0.5712,0.5691,0.5691,0.5691,0.5931,0.6083,0.6083,0.6285,0.6473,0.6768,0.6801,0.6915,0.7214,0.7355,0.7453,0.7513,0.7682,0.7839,0.8015,0.8079,0.8171,0.8167,0.835,0.8437,0.8503,0.8503,0.853,0.859,0.859,0.859,0.859,0.859,0.859,0.859,0.859,0.859,0.859,0.859,0.859,0.859,0.859,0.8552,0.8497,0.8437,0.8339,0.8236,0.8236,0.8155,0.8165,0.8717,0.8909,0.8894,0.9458,0.9609,0.9906,0.0,0.0,0.0,0.0,0.0,0.0,0.0,0.0,0.0,0.0,0.0,0.0,0.0,0.0,1.635,1.5231,0.0,1.4018,1.2899,1.3094,1.3402,1.3649,1.3964,1.4065,1.3983,1.3331,1.3297,1.4172,1.369,1.3322,1.3397,1.3539,1.3654,1.3729,1.3878,1.3953,1.3953,1.4027,1.4538,1.557,1.557,1.6133,1.7088,1.7088,1.8042,1.996,2.0828,2.2309,2.4041,2.5006,2.5433,2.5433,2.5433,2.5433,2.5433,2.5433,2.5433,2.5433,2.5433,2.5433,2.5433,0.5822,0.5756,0.575,0.5723,0.5942,0.6094,0.6116,0.6301,0.6462,0.6736,0.6785,0.6883,0.7155,0.7247,0.7288,0.7315,0.7573,0.7747,0.7861,0.81,0.8183,0.8205,0.8475,0.859,0.859,0.859,0.859,0.859,0.859,0.859,0.859,0.859,0.859,0.859,0.859,0.859,0.859,0.859,0.859,0.859,0.859,0.859,0.859,0.859,0.853,0.8448,0.8448,0.8388,0.8301,0.8301,0.8225,0.8169,0.8008,0.8164,0.8623,0.9652,1.0239,0.0,0.0,0.0,0.0,0.0,0.0,0.0,0.0,1.6402,1.7518,1.8019,1.8517,1.8125,1.5846,1.556,1.4914,1.2735,1.3642,1.4639,1.471,1.5082,1.4761,1.326,1.3193,1.3261,1.3261,1.3512,1.3668,1.3668,1.3804,1.3885,1.3885,1.4034,1.4116,1.4116,1.4238,1.4299,1.4299,1.4299,1.4299,1.4299,1.6217,1.7876,1.9438,2.1262,2.317,2.4921,2.5263,2.5433,2.5433,2.5433,2.5433,2.5433,2.5433,2.5433,2.5433,2.5433,2.5433,2.5433,0.6072,0.6045,0.6013,0.5904,0.5996,0.6121,0.6279,0.6355,0.6435,0.6622,0.6736,0.6855,0.6991,0.7203,0.732,0.7491,0.7622,0.7747,0.7861,0.81,0.8285,0.8394,0.8519,0.859,0.859,0.859,0.859,0.859,0.859,0.859,0.859,0.859,0.859,0.859,0.859,0.859,0.859,0.859,0.859,0.859,0.859,0.859,0.859,0.859,0.8579,0.8568,0.8568,0.8557,0.8546,0.8546,0.847,0.8372,0.8361,0.8374,0.8684,1.0042,1.0636,1.1211,1.2834,1.2619,1.1663,1.0577,1.0512,1.1495,0.0,1.5277,1.5814,1.7366,1.7812,1.7523,1.6177,1.5047,1.4324,1.4433,1.3586,1.303,1.338,1.3464,1.3514,1.3526,1.3566,1.358,1.358,1.3722,1.3817,1.3817,1.396,1.4048,1.4048,1.419,1.4272,1.4272,1.4292,1.4299,1.4299,1.4299,1.4299,1.4299,1.6217,1.7175,1.7438,1.9351,2.1262,2.3095,2.4738,2.5433,2.5433,2.5433,2.5433,2.5433,2.5433,2.5433,2.5433,2.5433,2.5433,2.5433,0.6111,0.6083,0.6094,0.6111,0.6159,0.6257,0.6311,0.6366,0.643,0.6605,0.6665,0.6741,0.6866,0.7029,0.7209,0.7394,0.7459,0.7568,0.7758,0.7932,0.8111,0.8301,0.8426,0.8519,0.8584,0.859,0.859,0.859,0.859,0.859,0.859,0.859,0.859,0.859,0.859,0.859,0.859,0.859,0.859,0.859,0.859,0.859,0.859,0.859,0.859,0.859,0.859,0.859,0.0,0.859,0.8557,0.8508,0.8437,0.8699,0.9064,0.9669,1.0156,1.0725,1.1402,1.1819,1.2001,1.1716,1.2162,1.3195,1.4965,1.5383,1.5632,1.6599,1.6826,1.6544,1.5467,1.5667,1.5523,1.3968,1.5019,1.577,1.4972,1.493,1.4999,1.524,1.4422,1.3851,1.3763,1.3885,1.3973,1.3973,1.4116,1.4204,1.4204,1.4265,1.4299,1.4299,1.4299,1.4299,1.4299,1.4299,1.4299,1.4299,1.6217,1.7088,1.7175,1.9003,2.0915,2.274,2.4566,2.5433,2.5433,2.5433,2.5433,2.5433,2.5433,2.5433,2.5433,2.5433,2.5433,2.5433,0.6198,0.6181,0.6208,0.6301,0.6317,0.6317,0.6317,0.6382,0.6419,0.6556,0.66,0.6665,0.679,0.691,0.7056,0.7225,0.7239,0.7352,0.7589,0.7769,0.7948,0.8127,0.8318,0.8454,0.8541,0.8573,0.859,0.859,0.859,0.859,0.859,0.859,0.859,0.859,0.859,0.859,0.859,0.859,0.859,0.859,0.859,0.859,0.8584,0.8552,0.8541,0.8546,0.8579,0.8656,0.8717,0.8717,0.879,0.8906,0.8755,0.9163,0.9565,0.953,1.0203,1.0863,1.0568,1.1421,1.2394,1.2422,1.3102,1.4033,1.498,1.5176,1.5265,1.5587,1.5749,1.5519,1.4352,1.5297,1.5565,1.3377,1.5343,1.667,1.5495,1.5409,1.5586,1.5841,1.4779,1.4048,1.3973,1.4068,1.4136,1.4136,1.4238,1.4299,1.4299,1.4299,1.4299,1.4299,1.4299,1.4299,1.4299,1.4299,1.4299,1.4299,1.6217,1.6833,1.6393,1.8828,2.0915,2.2729,2.4566,2.5482,2.5542,2.5542,2.559,2.5651,2.5651,2.5651,2.5651,2.5651,2.5566,2.5433,0.6376,0.6376,0.6376,0.6381,0.6381,0.6381,0.6381,0.6381,0.6387,0.6392,0.6495,0.6665,0.679,0.691,0.6986,0.6997,0.7203,0.7282,0.7288,0.7676,0.7872,0.7883,0.8225,0.8421,0.8421,0.853,0.859,0.859,0.859,0.859,0.859,0.859,0.859,0.859,0.859,0.859,0.859,0.859,0.859,0.859,0.859,0.859,0.8573,0.8465,0.8421,0.8437,0.8546,0.8784,0.9117,0.9117,0.9322,0.9661,0.9655,0.9827,0.9974,0.9967,1.1192,1.2289,1.1182,1.1918,1.2728,1.1706,1.1439,1.1938,1.377,1.414,1.4188,1.4359,1.4608,1.4399,1.2881,1.3013,1.3315,1.3247,1.35,1.3698,1.3705,1.3828,1.3978,1.4135,1.4155,1.4129,1.4272,1.4292,1.4292,1.4292,1.4299,1.4299,1.4299,1.4299,1.4299,1.4299,1.4299,1.4299,1.4299,1.4299,1.4299,1.4299,1.6217,1.613,1.4476,1.8217,2.0915,2.2729,2.4566,2.5578,2.582,2.582,2.5965,2.6194,2.6194,2.6194,2.6194,2.6194,2.5868,2.5433,0.6387,0.6387,0.6387,0.6387,0.6387,0.6387,0.6387,0.6387,0.6387,0.6387,0.6425,0.0,0.0,0.0,0.0,0.0,0.7056,0.7171,0.7271,0.7448,0.7622,0.7861,0.7986,0.8133,0.8291,0.8334,0.8394,0.8475,0.8475,0.8513,0.859,0.859,0.859,0.859,0.859,0.859,0.859,0.859,0.859,0.859,0.859,0.8541,0.847,0.8432,0.8367,0.8301,0.0,0.8545,0.8804,0.8545,0.8796,0.9198,0.9198,0.9491,0.9858,1.0313,1.0909,1.1414,1.0988,1.1426,1.1838,1.1633,1.1613,1.1907,1.2731,1.2878,1.2921,1.3072,1.3195,1.3184,1.2924,1.3873,1.4451,1.3453,1.4477,1.4989,1.3841,1.3899,1.4055,1.4204,1.4224,1.4245,1.4292,1.4299,1.4299,1.4299,1.4299,1.4299,1.4299,1.4299,1.4299,1.4299,1.4299,1.4299,1.4299,1.4299,1.4299,1.4299,1.501,1.5116,1.4681,1.8509,2.0635,2.1353,2.4532,2.6013,2.6085,2.6085,2.6146,2.6218,2.6218,2.6218,2.6218,2.6218,2.6109,2.5953,0.0,0.6387,0.6387,0.6387,0.6387,0.0,0.0,0.0,0.0,0.0,0.0,0.0,0.0,0.0,0.0,0.0,0.0,0.7051,0.7203,0.7234,0.7437,0.7671,0.7801,0.7943,0.81,0.8193,0.8274,0.8356,0.8356,0.8388,0.8465,0.8465,0.8465,0.8465,0.8465,0.8465,0.8465,0.8465,0.8486,0.8524,0.8481,0.8443,0.8405,0.8274,0.8176,0.0,0.8062,0.8228,0.85,0.8447,0.8699,0.9133,0.9133,0.9485,1.0,1.0585,1.0806,1.0914,1.1076,1.1328,1.1538,1.1796,1.1925,1.206,1.2311,1.2366,1.2393,1.2481,1.2549,1.2644,1.284,1.3909,1.4451,1.3453,1.4445,1.4986,1.391,1.4021,1.419,1.4285,1.4299,1.4299,1.4299,1.4299,1.4299,1.4299,1.4299,1.4299,1.4299,1.4299,1.4299,1.4299,1.4299,1.4299,1.4299,1.4353,1.4407,1.4462,1.455,1.5362,1.69,1.9329,2.1214,2.2642,2.5148,2.6278,2.6363,2.6363,2.6423,2.6508,2.6508,2.6508,2.6508,2.6508,2.6508,2.6484,0.0,0.0,0.6387,0.0,0.0,0.0,0.0,0.0,0.0,0.0,0.0,0.0,0.0,0.0,0.0,0.0,0.0,0.0,0.6986,0.7198,0.7271,0.7277,0.766,0.7845,0.785,0.8079,0.814,0.8145,0.8151,0.822,0.8225,0.8167,0.8172,0.8172,0.8172,0.8172,0.8172,0.8172,0.8301,0.8399,0.8274,0.8291,0.835,0.7997,0.7856,0.7839,0.7731,0.7872,0.8233,0.8597,0.9074,0.9447,0.9459,0.9827,1.0292,1.0772,1.0894,1.1008,1.1504,1.164,1.1755,1.2182,1.2298,1.2338,1.2474,1.2494,1.2488,1.2488,1.2603,1.2698,1.2718,1.2949,1.3146,1.3166,1.3539,1.3831,1.3838,1.4109,1.4299,1.4299,1.4299,1.4299,1.4299,1.4299,1.4299,1.4299,1.4299,1.4299,1.4299,1.4299,1.4299,1.4299,1.4306,1.4312,1.4312,1.4448,1.4597,1.4753,1.4753,1.6651,2.0256,2.0346,2.2406,2.5901,2.6078,2.6323,2.6665,2.6665,2.681,2.7027,2.7027,2.7027,2.7027,2.7027,2.7027,2.6954,0.0,0.0,0.0,0.0,0.0,0.0,0.0,0.0,0.0,0.0,0.0,0.0,0.0,0.0,0.0,0.0,0.0,0.0,0.698,0.7122,0.7241,0.7277,0.7421,0.7513,0.7606,0.7671,0.7747,0.7839,0.7921,0.8013,0.81,0.8193,0.8172,0.8172,0.8172,0.8172,0.8172,0.8172,0.8188,0.8274,0.8149,0.8062,0.7992,0.7812,0.7687,0.7606,0.7578,0.7681,0.7851,0.8089,0.8483,0.9015,0.9144,0.9758,1.0348,1.0522,1.0971,1.147,1.1586,1.1864,1.2149,1.2264,1.2372,1.2461,1.2494,1.242,1.2345,1.2345,1.2284,1.2298,1.2522,1.2623,1.2779,1.3119,1.3458,1.3722,1.3824,1.4109,1.4299,1.4299,1.4299,1.4299,1.4299,1.4299,1.4299,1.4299,1.4299,1.4299,1.4299,1.4299,1.4299,1.4299,1.4401,1.4455,1.4455,1.4604,1.476,1.4909,1.4909,1.5519,1.6632,1.8014,2.0033,2.2515,2.3972,2.5479,2.693,2.693,2.6966,2.7027,2.7027,2.7027,2.7027,2.7027,2.7027,2.7015,0.0,0.0,0.0,0.0,0.0,0.0,0.0,0.0,0.0,0.0,0.0,0.0,0.0,0.0,0.0,0.0,0.0,0.0,0.0,0.6937,0.7056,0.7176,0.723,0.7312,0.7437,0.7491,0.7524,0.754,0.766,0.7725,0.7741,0.7861,0.7921,0.7921,0.7921,0.7921,0.7921,0.7921,0.7954,0.0,0.0,0.7812,0.778,0.7606,0.7497,0.7437,0.7437,0.7584,0.7801,0.7975,0.8248,0.8607,0.9039,0.9654,1.0227,1.0549,1.1133,1.166,1.1857,1.2101,1.2305,1.2366,1.244,1.2488,1.242,1.2345,1.2271,1.2203,1.2121,1.2115,1.2277,1.2413,1.2603,1.2929,1.3288,1.36,1.381,1.4048,1.4224,1.4292,1.4299,1.4299,1.4299,1.4299,1.4299,1.4299,1.4299,1.4299,1.4299,1.436,1.4394,1.4394,1.4536,1.4645,1.4713,1.4801,1.4916,1.5065,1.5065,1.5566,1.6479,1.7592,1.9166,2.1213,2.3229,2.4704,2.5822,2.6652,2.7027,2.7027,2.7027,2.7027,2.7027,2.7027,2.7027,2.7027,0.0,0.0,0.0,0.0,0.0,0.0,0.0,0.0,0.0,0.0,0.6823,0.6801,0.6801,0.6709,0.0,0.0,0.0,0.0,0.0,0.0,0.685,0.6953,0.7111,0.7154,0.7207,0.7372,0.7372,0.7207,0.7388,0.7394,0.7234,0.7432,0.7486,0.747,0.7486,0.7486,0.747,0.747,0.7529,0.7616,0.7497,0.7513,0.7584,0.0,0.7217,0.7239,0.7288,0.7573,0.7888,0.8149,0.8183,0.8318,0.8996,0.9541,1.0048,1.0714,1.1299,1.1796,1.221,1.2318,1.2352,1.2494,1.2515,1.2467,1.2325,1.2257,1.2189,1.2033,1.2046,1.1952,1.1999,1.221,1.2454,1.2664,1.3064,1.3451,1.377,1.396,1.4129,1.4285,1.4299,1.4299,1.4299,1.4299,1.4299,1.4299,1.4319,1.4326,1.4326,1.4441,1.4529,1.457,1.4699,1.4841,1.4997,1.4997,1.5059,1.5181,1.5181,1.6112,1.7686,1.7686,1.8803,2.0834,2.2862,2.3881,2.4247,2.6197,2.7027,2.7027,2.7027,2.7027,2.7027,2.7027,2.7027,2.7027,0.0,0.0,0.0,0.0,0.0,0.0,0.0,0.0,0.0,0.0,0.6926,0.6801,0.0,0.0,0.0,0.0,0.0,0.0,0.0,0.0,0.0,0.6834,0.6855,0.6872,0.6893,0.6915,0.6915,0.6893,0.7018,0.7067,0.7051,0.7269,0.7312,0.7276,0.7323,0.7312,0.7276,0.7276,0.7287,0.7298,0.7122,0.7089,0.7095,0.6948,0.6959,0.0,0.7383,0.7589,0.7785,0.8122,0.8301,0.8432,0.8755,0.9526,1.03,1.055,1.1363,1.2216,1.2413,1.2467,1.2501,1.2651,1.2596,1.2467,1.2325,1.2094,1.187,1.1728,1.1497,1.1396,1.1647,1.1735,1.1938,1.2461,1.282,1.3186,1.3607,1.3899,1.4129,1.4285,1.4299,1.4299,1.4299,1.4299,1.4299,1.4299,1.4407,1.4475,1.4475,1.4496,1.4631,1.4882,1.4916,1.4997,1.5147,1.5147,1.516,1.5181,1.5181,1.5368,1.5737,1.5737,1.6759,1.8702,2.0742,2.2586,2.4247,2.6197,2.7027,2.7027,2.7027,2.7027,2.7027,2.7027,2.7027,2.7027,0.0,0.0,0.0,0.0,0.0,0.0,0.0,0.7176,0.7247,0.7247,0.7203,0.7127,0.6997,0.6931,0.6872,0.0,0.0,0.0,0.0,0.0,0.0,0.6703,0.6709,0.6736,0.6801,0.6801,0.6774,0.6709,0.0,0.6855,0.6796,0.6975,0.7029,0.6975,0.7035,0.7024,0.697,0.697,0.697,0.697,0.691,0.6888,0.6893,0.6893,0.697,0.0,0.741,0.7638,0.7834,0.8133,0.8356,0.8546,0.8995,0.9683,1.0386,1.0881,1.1606,1.2338,1.2562,1.2562,1.2535,1.2691,1.2562,1.2352,1.2203,1.1938,1.1681,1.1531,1.1321,1.1206,1.1355,1.1511,1.1762,1.2203,1.2589,1.3024,1.3553,1.3817,1.4041,1.4272,1.4299,1.4299,1.4299,1.4299,1.4333,1.4407,1.4475,1.4509,1.4509,1.4665,1.4855,1.5072,1.5079,1.5113,1.5181,1.5181,1.5181,1.5181,1.5181,1.5181,1.5181,1.5181,1.5744,1.6759,1.9816,2.1665,2.277,2.573,2.7027,2.7027,2.7027,2.7027,2.7027,2.7027,2.7027,2.7027,0.0,0.0,0.0,0.0,0.0,0.0,0.0,0.7258,0.7277,0.7277,0.7442,0.7437,0.722,0.7111,0.704,0.0,0.0,0.0,0.0,0.0,0.0,0.0,0.0,0.0,0.6719,0.0,0.0,0.6578,0.6676,0.0,0.0,0.0,0.0,0.0,0.6752,0.6747,0.6725,0.6725,0.6725,0.0,0.0,0.6725,0.6741,0.0,0.0,0.0,0.0,0.7655,0.7877,0.8144,0.8378,0.8662,0.9382,0.9922,1.0417,1.1193,1.1792,1.2352,1.2651,1.2617,1.2528,1.2651,1.2481,1.2237,1.2013,1.1762,1.1518,1.1335,1.1172,1.1077,1.1111,1.1335,1.1626,1.1959,1.2359,1.2847,1.3444,1.3682,1.3905,1.4217,1.4278,1.4299,1.4299,1.4299,1.436,1.4502,1.457,1.4611,1.4611,1.4869,1.5065,1.5181,1.5181,1.5181,1.5181,1.5181,1.5181,1.5181,1.5181,1.5181,1.5181,1.5181,1.5181,1.5462,1.9361,2.1121,2.1398,2.5366,2.7027,2.7027,2.7027,2.7027,2.7027,2.7027,2.7027,2.7027,0.0,0.0,0.0,0.0,0.0,0.0,0.0,0.7258,0.7277,0.7277,0.7442,0.747,0.7334,0.725,0.722,0.0,0.0,0.0,0.0,0.0,0.0,0.0,0.0,0.0,0.0,0.0,0.0,0.6403,0.6414,0.0,0.0,0.0,0.0,0.0,0.0,0.6573,0.6419,0.6419,0.0,0.0,0.0,0.0,0.0,0.0,0.0,0.0,0.0,0.7606,0.7769,0.8117,0.8323,0.8607,0.9587,1.0052,1.0417,1.0823,1.1566,1.2352,1.2651,1.2617,1.2508,1.2522,1.2406,1.2182,1.1755,1.1531,1.1328,1.0981,1.0867,1.0806,1.0941,1.1097,1.1348,1.1782,1.2121,1.2535,1.3132,1.3464,1.3756,1.4055,1.4217,1.4299,1.4299,1.4299,1.436,1.4502,1.4774,1.493,1.493,1.5079,1.5167,1.5181,1.5181,1.5181,1.5181,1.5181,1.5181,1.5181,1.5181,1.5181,1.5181,1.5181,1.5181,1.5462,1.9361,2.1121,2.1398,2.5366,2.7027,2.7027,2.7027,2.7027,2.7027,2.7027,2.7027,2.7027,0.0,0.0,0.0,0.0,0.0,0.0,0.7252,0.7366,0.747,0.7546,0.766,0.766,0.7464,0.7448,0.735,0.7161,0.0,0.0,0.0,0.0,0.0,0.0,0.0,0.0,0.0,0.0,0.6584,0.6654,0.6654,0.0,0.0,0.0,0.0,0.0,0.0,0.65,0.6387,0.6387,0.0,0.0,0.0,0.0,0.0,0.0,0.0,0.0,0.0,0.0,0.7758,0.8117,0.8447,0.8782,0.9367,0.993,1.0512,1.1155,1.1743,1.2216,1.2515,1.2488,1.2393,1.2481,1.2325,1.206,1.1701,1.143,1.1192,1.0921,1.0759,1.0738,1.0799,1.0934,1.1151,1.1511,1.1898,1.2359,1.2963,1.3383,1.3736,1.4034,1.4204,1.4299,1.4299,1.4299,1.4394,1.4631,1.493,1.5099,1.5099,1.5153,1.5181,1.5181,1.5181,1.5181,1.5181,1.5181,1.5181,1.5181,1.5181,1.5181,1.5181,1.5181,1.5181,1.5462,1.9361,2.1121,2.1398,2.5366,2.7027,2.7027,2.7027,2.7027,2.7027,2.7027,2.7135,2.7268,0.0,0.0,0.0,0.0,0.0,0.7237,0.7269,0.7415,0.7551,0.7638,0.778,0.778,0.7546,0.7519,0.7421,0.7232,0.7139,0.0,0.0,0.0,0.0,0.0,0.0,0.0,0.0,0.0,0.6714,0.6801,0.6801,0.6801,0.0,0.0,0.6757,0.6671,0.0,0.0,0.0,0.0,0.0,0.0,0.0,0.0,0.0,0.0,0.0,0.0,0.0,0.0,0.0,0.0,0.0,0.8915,0.9262,0.9857,1.0545,1.12,1.1696,1.1993,1.2291,1.2298,1.2237,1.2291,1.2115,1.185,1.1552,1.1287,1.1056,1.0914,1.0799,1.0717,1.0717,1.0779,1.0975,1.1341,1.1728,1.2203,1.2807,1.3281,1.3675,1.3966,1.4177,1.4299,1.4299,1.438,1.4516,1.4726,1.5011,1.5181,1.5181,1.5181,1.5181,1.5181,1.5181,1.5181,1.5181,1.5181,1.5181,1.5181,1.5181,1.5181,1.5181,1.5181,1.5181,1.5462,1.9361,2.1121,2.1398,2.5366,2.7027,2.7027,2.7027,2.7075,2.7148,2.7148,2.7304,2.7534,0.0,0.0,0.0,0.0,0.0,0.0,0.721,0.7361,0.7519,0.7519,0.7725,0.778,0.7546,0.7519,0.7421,0.7232,0.721,0.0,0.0,0.0,0.0,0.0,0.0,0.0,0.0,0.0,0.6801,0.6801,0.6801,0.6801,0.6801,0.6801,0.6801,0.6796,0.0,0.0,0.0,0.0,0.0,0.0,0.0,0.0,0.6817,0.0,0.0,0.0,0.0,0.0,0.0,0.0,0.0,0.0,0.0,0.9908,1.0477,1.0915,1.126,1.1687,1.1986,1.2067,1.2026,1.1877,1.1728,1.1545,1.124,1.1056,1.084,1.0751,1.0724,1.0717,1.0717,1.0779,1.0975,1.1341,1.164,1.2047,1.2644,1.3119,1.3512,1.3804,1.4116,1.4299,1.4299,1.4563,1.4733,1.474,1.5011,1.5181,1.5181,1.5181,1.5181,1.5181,1.5181,1.5181,1.5181,1.5181,1.5181,1.5181,1.5181,1.5181,1.5181,1.5181,1.5181,1.5462,1.9361,2.1121,2.1398,2.5366,2.7027,2.7027,2.7027,2.7184,2.7413,2.7413,2.7582,2.7811,0.0,0.0,0.0,0.0,0.0,0.0,0.0,0.7345,0.7426,0.7508,0.7584,0.7568,0.741,0.7336,0.7328,0.7226,0.721,0.0,0.0,0.0,0.0,0.0,0.0,0.0,0.0,0.6986,0.7084,0.7165,0.7252,0.729,0.729,0.729,0.7203,0.7095,0.7002,0.6893,0.0,0.0,0.0,0.0,0.0,0.6817,0.6942,0.0,0.0,0.0,0.0,0.0,0.0,0.0,0.0,0.0,0.0,0.0,0.0,1.0851,1.1094,1.1375,1.1674,1.1681,1.1619,1.1674,1.1572,1.1382,1.1084,1.0982,1.084,1.0751,1.0717,1.0717,1.0717,1.0758,1.0887,1.1185,1.1491,1.1898,1.2488,1.3051,1.3512,1.3804,1.4116,1.4299,1.4299,1.457,1.474,1.474,1.5011,1.5181,1.5181,1.5181,1.5181,1.5181,1.5181,1.5181,1.5181,1.5181,1.5181,1.5181,1.5181,1.5181,1.5181,1.5181,1.5181,1.5462,1.9361,2.1121,2.1398,2.5366,2.7027,2.7051,2.7232,2.7353,2.7449,2.7618,2.786,2.8077,0.0,0.0,0.0,0.0,0.0,0.0,0.0,0.7307,0.7304,0.7437,0.7491,0.747,0.7293,0.7277,0.7285,0.7221,0.721,0.0,0.0,0.0,0.0,0.0,0.0,0.0,0.7046,0.7165,0.7285,0.7347,0.7481,0.7519,0.7519,0.7519,0.7437,0.7285,0.7248,0.7128,0.0,0.0,0.0,0.0,0.6774,0.6877,0.6997,0.0,0.0,0.0,0.0,0.0,0.0,0.0,0.0,0.0,0.0,0.0,0.0,0.0,1.088,1.1063,1.1362,1.1375,1.1328,1.1423,1.1335,1.1172,1.0921,1.084,1.0766,1.0738,1.0717,1.0717,1.0717,1.0765,1.09,1.1199,1.1504,1.1904,1.2501,1.3057,1.3553,1.3966,1.4183,1.4299,1.4299,1.457,1.474,1.474,1.5011,1.5181,1.5181,1.5181,1.5181,1.5181,1.5181,1.5181,1.5181,1.5181,1.5181,1.5181,1.5181,1.5181,1.5181,1.5181,1.5181,1.5462,1.9361,2.1121,0.0,2.5366,2.7087,2.7196,2.7353,2.7546,2.7739,2.7896,2.8125,2.8367,0.0,0.0,0.0,0.0,0.0,0.0,0.0,0.7252,0.7266,0.7266,0.7421,0.7448,0.7277,0.7266,0.7279,0.7221,0.0,0.0,0.0,0.0,0.0,0.0,0.0,0.0,0.7221,0.7296,0.7421,0.7546,0.7562,0.7568,0.7568,0.7568,0.7562,0.7535,0.7307,0.7243,0.7188,0.679,0.6709,0.6817,0.6817,0.6888,0.0,0.0,0.0,0.0,0.0,0.0,0.0,0.0,0.0,0.0,0.0,0.0,0.0,0.0,0.0,0.0,0.0,1.1131,1.12,1.1214,1.1036,1.0867,1.0867,1.0819,0.0,1.0717,1.0717,1.0724,1.0731,1.0853,1.0981,1.1355,1.1653,1.206,1.2664,1.3152,1.3661,1.4231,1.4299,1.4299,1.4299,1.457,1.474,1.474,1.5011,1.5181,1.5181,1.5181,1.5181,1.5181,1.5181,1.5181,1.5181,1.5181,1.5181,1.5181,1.5181,1.5181,1.5181,1.5181,1.5181,1.5462,1.9361,2.1121,2.1398,2.5389,2.7208,2.7425,2.7461,2.7775,2.821,2.8222,2.8403,2.862,0.0,0.0,0.0,0.0,0.0,0.0,0.0,0.0,0.0,0.0,0.7276,0.7287,0.7198,0.7198,0.7243,0.0,0.0,0.0,0.0,0.0,0.0,0.0,0.0,0.0,0.729,0.7502,0.7671,0.779,0.7975,0.8005,0.8005,0.8005,0.7964,0.7785,0.7725,0.7555,0.7199,0.697,0.6915,0.6942,0.6942,0.7013,0.0,0.0,0.0,0.0,0.7432,0.7694,0.0,0.0,0.0,0.0,0.0,0.0,0.0,0.0,1.0521,1.0588,1.0772,0.0,1.0853,1.0968,1.0887,1.0772,0.0,1.0744,1.0717,1.0717,1.0717,1.0758,1.0806,1.0853,1.1015,1.1497,1.1816,1.2216,1.282,1.3485,1.4007,1.4272,1.4299,1.4299,1.4299,1.457,1.474,1.474,1.5011,1.5181,1.5181,1.5181,1.5181,1.5181,1.5181,1.5181,1.5181,1.5181,1.5181,1.5181,1.5181,1.5181,1.5181,1.5181,1.5181,1.5462,1.9361,2.1121,2.1408,2.557,2.7365,2.7461,2.786,2.8101,2.8234,2.8439,2.856,2.862,0.0,0.0,0.0,0.0,0.0,0.0,0.0,0.0,0.0,0.0,0.0,0.0,0.0,0.0,0.0,0.0,0.0,0.0,0.0,0.0,0.0,0.0,0.0,0.7258,0.7497,0.7687,0.7867,0.8035,0.8171,0.8172,0.8172,0.8172,0.8166,0.803,0.7867,0.7589,0.7225,0.7056,0.7013,0.7111,0.7008,0.0,0.0,0.0,0.0,0.0,0.7605,0.7921,0.0,0.8883,0.9275,0.9592,0.0,0.0,0.0,0.0,1.0439,1.0527,1.0677,1.0717,1.0738,1.0759,1.0778,1.0717,1.0717,1.0717,1.0717,1.0717,1.0778,1.0786,1.0867,1.1049,1.1382,1.1762,1.2128,1.2603,1.3268,1.3777,1.4129,1.4285,1.4299,1.4326,1.4387,1.4604,1.4767,1.4841,1.5052,1.5181,1.5181,1.5181,1.5181,1.5181,1.5181,1.5181,1.5181,1.5181,1.5181,1.5181,1.5181,1.5181,1.5181,1.5181,1.5181,1.5462,1.9361,2.1168,2.1635,2.5683,2.757,2.7811,2.8089,2.8282,2.8415,2.8572,2.862,2.862,0.0,0.0,0.0,0.0,0.0,0.0,0.0,0.0,0.0,0.0,0.0,0.0,0.0,0.0,0.0,0.0,0.0,0.0,0.0,0.0,0.0,0.0,0.7279,0.7459,0.772,0.7839,0.8019,0.8199,0.828,0.8291,0.8291,0.8291,0.8269,0.8156,0.7861,0.7578,0.7293,0.7111,0.7122,0.7199,0.7051,0.0,0.0,0.0,0.0,0.0,0.0,0.0,0.0,0.9118,0.9518,0.9822,0.9822,0.0,0.0,0.0,0.0,0.0,1.067,1.0717,1.0717,1.0717,1.0717,1.0724,1.0751,1.0758,1.0758,1.0785,1.0907,1.0954,1.0981,1.1396,1.1782,1.2081,1.2542,1.3105,1.3783,1.4007,1.4156,1.4285,1.4299,1.4353,1.4496,1.4652,1.4801,1.4957,1.5106,1.5181,1.5181,1.5181,1.5181,1.5181,1.5181,1.5181,1.5181,1.5181,1.5181,1.5181,1.5181,1.5181,1.5181,1.5181,1.5181,1.5462,1.9387,2.1263,2.1798,2.5901,2.7613,2.7724,2.776,2.7926,2.8128,2.8128,2.8332,2.862,0.0,0.0,0.0,0.0,0.0,0.0,0.0,0.0,0.0,0.0,0.0,0.0,0.0,0.0,0.0,0.0,0.0,0.0,0.0,0.0,0.0,0.7301,0.7271,0.7497,0.7839,0.8026,0.8144,0.8388,0.8486,0.8535,0.8535,0.8535,0.8426,0.8156,0.7861,0.7622,0.7475,0.723,0.7193,0.721,0.7193,0.0,0.0,0.0,0.0,0.0,0.0,0.0,0.0,0.9179,0.9518,0.9822,0.9822,0.0,0.0,0.0,0.0,0.0,1.0643,1.0717,1.0717,1.0717,1.0717,1.0751,1.0813,1.0847,1.0948,1.107,1.1219,1.1362,1.1491,1.1775,1.2088,1.2386,1.303,1.362,1.3987,1.417,1.4272,1.4299,1.4299,1.4353,1.4496,1.4652,1.4801,1.4957,1.5106,1.5181,1.5181,1.5181,1.5181,1.5181,1.5181,1.5181,1.5181,1.5181,1.5181,1.5181,1.5181,1.5181,1.5181,1.5181,1.5181,1.5469,1.9619,2.1489,2.1827,2.6276,2.7073,2.5619,2.5816,2.5926,2.5959,2.5959,2.7044,2.862,0.0,0.0,0.0,0.0,0.0,0.0,0.0,0.0,0.0,0.0,0.0,0.0,0.0,0.0,0.0,0.0,0.0,0.0,0.0,0.0,0.7307,0.7426,0.7557,0.7731,0.8026,0.8155,0.8334,0.8508,0.8562,0.859,0.859,0.859,0.8465,0.8161,0.7992,0.7752,0.7508,0.7328,0.7214,0.721,0.0,0.0,0.0,0.0,0.0,0.0,0.0,0.0,0.0,0.0,0.964,0.9822,0.9822,0.0,0.0,0.0,0.0,0.0,1.0636,1.0717,1.0738,1.0819,1.0846,1.0793,1.0867,1.107,1.1206,1.1274,1.147,1.1674,1.183,1.2101,1.2474,1.3024,1.3539,1.3946,1.4163,1.4258,1.4299,1.4299,1.4299,1.4387,1.4611,1.4699,1.4835,1.5065,1.5147,1.5181,1.5181,1.5181,1.5181,1.5181,1.5181,1.5181,1.5181,1.5181,1.5181,1.5181,1.5181,1.5181,1.5181,1.5181,1.5228,1.5499,0.0,1.9949,2.0428,2.3486,2.4321,2.3565,2.3763,2.4484,2.5658,2.6743,2.7731,2.862,0.0,0.0,0.0,0.0,0.0,0.0,0.0,0.0,0.0,0.0,0.0,0.0,0.0,0.0,0.0,0.0,0.0,0.0,0.0,0.7269,0.7331,0.7513,0.7774,0.8032,0.8095,0.8307,0.8475,0.859,0.859,0.859,0.859,0.859,0.8465,0.8167,0.8106,0.7856,0.7508,0.7331,0.7269,0.721,0.0,0.0,0.0,0.0,0.0,0.0,0.0,0.0,0.0,0.0,0.0,0.0,0.0,0.0,0.0,1.0188,1.0283,1.0344,1.0636,1.0744,1.0812,1.0962,1.0995,1.1016,1.1022,1.1307,1.1511,1.1586,1.1809,1.2047,1.2237,1.2542,1.2976,1.3627,1.3926,1.4122,1.4278,1.4299,1.4299,1.4299,1.4299,1.4414,1.4713,1.474,1.4862,1.516,1.5181,1.5181,1.5181,1.5181,1.5181,1.5181,1.5181,1.5181,1.5181,1.5181,1.5181,1.5181,1.5181,1.5181,1.5181,1.5221,1.5303,1.5507,1.7661,1.8696,1.9142,2.1214,2.1809,2.1557,2.1557,2.2926,2.5076,2.7634,2.862,2.862,0.0,0.0,0.0,0.0,0.0,0.0,0.0,0.0,0.0,0.0,0.0,0.0,0.0,0.0,0.0,0.0,0.0,0.0,0.721,0.7269,0.7331,0.7513,0.7856,0.8095,0.822,0.835,0.8475,0.859,0.859,0.859,0.859,0.859,0.8465,0.8167,0.8106,0.7856,0.7508,0.7331,0.7269,0.721,0.721,0.0,0.0,0.0,0.0,0.0,0.0,0.0,0.0,0.0,0.0,0.0,0.0,0.0,0.9883,1.0188,1.0283,1.0344,1.0636,1.0759,1.09,1.1111,1.1145,1.1219,1.1504,1.1687,1.1877,1.2169,1.2345,1.2542,1.284,1.3254,1.3654,1.3987,1.4055,1.4122,1.4278,1.4299,1.4299,1.4299,1.4299,1.4414,1.4713,1.474,1.4862,1.516,1.5181,1.5181,1.5181,1.5181,1.5181,1.5181,1.5181,1.5181,1.5181,1.5181,1.5181,1.5181,1.5181,1.5181,1.5187,1.533,1.5398,1.552,1.7901,1.9012,1.915,2.1359,2.1156,1.9413,1.9413,2.0675,2.3023,2.7141,2.862,2.862,0.0,0.0,0.0,0.0,0.0,0.0,0.0,0.0,0.0,0.0,0.0,0.0,0.0,0.0,0.0,0.0,0.0,0.0,0.721,0.7339,0.747,0.7519,0.7937,0.8187,0.8172,0.8426,0.8546,0.859,0.859,0.859,0.859,0.859,0.8503,0.8345,0.822,0.8008,0.7725,0.7529,0.7492,0.7539,0.7466,0.7604,0.0,0.0,0.0,0.0,0.0,0.0,0.0,0.0,0.9564,0.9707,0.9795,0.9883,1.0005,1.0215,1.0344,1.048,1.0778,1.0968,1.1138,1.1389,1.166,1.187,1.1891,1.2081,1.2338,1.2644,1.282,1.3017,1.3322,1.3668,1.3939,1.4055,1.415,1.4231,1.4292,1.4299,1.4299,1.4299,1.4299,1.4414,1.4713,1.474,1.4862,1.516,1.5181,1.5181,1.5181,1.5181,1.5181,1.5181,1.5181,1.5181,1.5181,1.5181,1.5181,1.5181,1.5181,1.5228,1.5323,1.5384,1.5513,1.5786,1.667,1.7071,1.7272,1.8114,1.7939,1.7551,2.0094,2.1655,2.2828,2.7044,2.862,2.862,0.0,0.0,0.0,0.0,0.0,0.0,0.0,0.0,0.0,0.0,0.0,0.0,0.0,0.0,0.0,0.0,0.0,0.0,0.721,0.7383,0.7519,0.7519,0.7981,0.8172,0.8172,0.8465,0.859,0.859,0.859,0.859,0.859,0.859,0.8508,0.8356,0.8274,0.8079,0.7807,0.7762,0.7771,0.7777,0.7809,0.7973,0.0,0.0,0.0,0.0,0.0,0.0,0.0,0.0,0.9442,0.9625,0.9727,0.9829,1.0017,1.0236,1.0378,1.0561,1.0799,1.109,1.1321,1.1674,1.206,1.2379,1.2467,1.2603,1.28,1.3112,1.3322,1.3519,1.3729,1.3973,1.4143,1.4143,1.4231,1.4299,1.4299,1.4299,1.4299,1.4299,1.4299,1.4414,1.4713,1.474,1.4862,1.516,1.5181,1.5181,1.5181,1.5181,1.5181,1.5181,1.5181,1.5181,1.5181,1.5181,1.5181,1.5181,1.5228,1.5309,1.5411,1.5459,1.5615,1.5859,1.5906,1.5988,1.6083,1.6083,1.6083,1.6474,2.0683,2.234,2.2828,2.7044,2.862,2.8524,0.0,0.0,0.0,0.0,0.0,0.0,0.0,0.0,0.0,0.0,0.0,0.0,0.0,0.0,0.0,0.0,0.0,0.0,0.721,0.7383,0.7519,0.7519,0.7975,0.8172,0.8172,0.8465,0.859,0.859,0.859,0.859,0.859,0.859,0.8465,0.8172,0.8172,0.8035,0.7703,0.8056,0.8026,0.7846,0.8193,0.8395,0.8484,0.0,0.0,0.0,0.0,0.0,0.0,0.0,0.9354,0.9605,0.9605,0.9808,1.0017,1.0236,1.0385,1.0561,1.0799,1.1165,1.1497,1.1952,1.2284,1.2664,1.3268,1.3288,1.3261,1.3566,1.3871,1.4075,1.4075,1.4197,1.4299,1.4299,1.4299,1.4299,1.4299,1.4299,1.4299,1.4299,1.4299,1.4414,1.4713,1.474,1.4862,1.516,1.5181,1.5181,1.5181,1.5181,1.5181,1.5181,1.5181,1.5181,1.5181,1.5181,1.5181,1.5181,1.5337,1.5411,1.5418,1.5567,1.5716,1.5866,1.6015,1.6083,1.6083,1.6083,1.6083,1.6474,2.0683,2.234,2.2828,2.7044,2.8524,2.8224,0.0,0.0,0.0,0.0,0.0,0.0,0.0,0.0,0.0,0.0,0.0,0.0,0.0,0.0,0.0,0.0,0.0,0.0,0.721,0.7383,0.7519,0.7519,0.7899,0.8149,0.8172,0.8465,0.859,0.859,0.859,0.859,0.859,0.859,0.8508,0.8361,0.8274,0.8254,0.8239,0.8191,0.8372,0.8557,0.8571,0.8676,0.8768,0.0,0.0,0.0,0.0,0.0,0.0,0.0,0.0,0.0,0.9544,0.9808,1.0017,1.0236,1.046,1.0717,1.1016,1.1321,1.166,1.2108,1.2603,1.3078,1.3471,1.3444,1.3451,1.3858,1.4095,1.4231,1.4231,1.4272,1.4299,1.4299,1.4299,1.4299,1.4299,1.4299,1.4299,1.4299,1.4299,1.4414,1.4713,1.474,1.4862,1.516,1.5181,1.5181,1.5181,1.5181,1.5181,1.5181,1.5181,1.5181,1.5181,1.5181,1.5181,1.5181,1.5337,1.5466,1.5574,1.5723,1.5872,1.6015,1.6062,1.6083,1.6083,1.6083,1.6083,1.6474,2.0683,2.234,2.2633,2.5367,2.6454,2.6152,0.0,0.0,0.0,0.0,0.0,0.0,0.0,0.0,0.721,0.721,0.721,0.721,0.0,0.0,0.0,0.721,0.721,0.721,0.721,0.7339,0.747,0.7513,0.7818,0.8062,0.8167,0.8372,0.847,0.8519,0.8562,0.859,0.859,0.859,0.8503,0.8339,0.8397,0.8391,0.8464,0.8557,0.8741,0.891,0.8935,0.8954,0.8885,0.0,0.0,0.0,0.0,0.0,0.0,0.0,0.0,0.0,0.9442,0.9761,1.0017,1.0236,1.0487,1.0785,1.1084,1.1389,1.1742,1.225,1.2779,1.3281,1.3709,1.3783,1.3838,1.4109,1.4238,1.4299,1.4299,1.4299,1.4299,1.4299,1.4299,1.4299,1.4299,1.4299,1.4299,1.4299,1.4299,1.4414,1.4713,1.474,1.4862,1.516,1.5181,1.5181,1.5181,1.5181,1.5181,1.5181,1.5181,1.5181,1.5181,1.5181,1.5215,1.5276,1.5432,1.5581,1.5723,1.5811,1.594,1.6083,1.6083,1.6083,1.6083,1.6083,1.6083,1.6474,1.9798,2.1067,2.1361,2.3413,2.4192,2.39,0.0,0.0,0.0,0.0,0.0,0.0,0.0,0.721,0.721,0.721,0.721,0.721,0.0,0.0,0.0,0.721,0.721,0.721,0.721,0.7269,0.7325,0.7497,0.7731,0.7964,0.8198,0.8214,0.828,0.8399,0.8513,0.8579,0.859,0.859,0.8459,0.8236,0.855,0.8603,0.8488,0.9092,0.9174,0.8975,0.9265,0.9205,0.8885,0.8885,0.0,0.0,0.0,0.0,0.0,0.0,0.0,0.0,0.9327,0.9673,0.9984,1.0229,1.048,1.0765,1.1077,1.1389,1.1762,1.2352,1.2868,1.3383,1.396,1.4197,1.4299,1.4299,1.4299,1.4299,1.4299,1.4299,1.4299,1.4299,1.4299,1.4299,1.4299,1.4299,1.4299,1.4299,1.4299,1.4414,1.4713,1.474,1.4862,1.516,1.5181,1.5181,1.5181,1.5181,1.5181,1.5181,1.5181,1.5181,1.5181,1.5181,1.5262,1.5411,1.5567,1.5716,1.5852,1.5866,1.5947,1.6083,1.6083,1.6083,1.6083,1.6083,1.6083,1.6282,1.8434,1.9216,1.9413,2.1361,2.2047,2.1753,0.0,0.0,0.0,0.0,0.0,0.0,0.721,0.721,0.721,0.721,0.721,0.721,0.721,0.721,0.0,0.721,0.721,0.721,0.721,0.7269,0.7288,0.7315,0.7611,0.7807,0.7948,0.8046,0.8155,0.8274,0.8394,0.8497,0.859,0.859,0.859,0.8614,0.8678,0.8854,0.9092,0.9214,0.9294,0.9323,0.9381,0.9205,0.8885,0.8885,0.8885,0.0,0.0,0.0,0.0,0.0,0.0,0.0,0.93,0.953,0.9781,1.0168,1.0405,1.0629,1.105,1.1389,1.1762,1.2352,1.3105,1.379,1.4163,1.4278,1.4299,1.4299,1.4299,1.4299,1.4299,1.4299,1.4299,1.4299,1.4299,1.4299,1.4299,1.4299,1.4299,1.4299,1.4299,1.4414,1.4713,1.474,1.4862,1.516,1.5181,1.5181,1.5181,1.5181,1.5181,1.5181,1.5181,1.5181,1.5181,1.5181,1.5262,1.5411,1.5567,1.5716,1.5859,1.5981,1.6049,1.6083,1.6083,1.6083,1.6083,1.6083,1.6083,1.6282,1.8434,1.9216,1.9216,1.97,1.9897,1.9798,0.0,0.0,0.0,0.0,0.0,0.0,0.0,0.0,0.721,0.721,0.721,0.721,0.721,0.721,0.0,0.0,0.721,0.721,0.721,0.7214,0.7274,0.7277,0.7513,0.7644,0.7698,0.7763,0.7883,0.8062,0.8122,0.8247,0.8416,0.8546,0.864,0.8649,0.8965,0.9168,0.9335,0.9457,0.9513,0.9483,0.9408,0.9245,0.9035,0.8912,0.8885,0.8885,0.8885,0.0,0.0,0.0,0.0,0.0,0.0,0.0,0.9686,1.0059,1.0324,1.0588,1.1043,1.1389,1.183,1.2712,1.339,1.3919,1.4231,1.4299,1.4299,1.4299,1.4299,1.4299,1.4299,1.4299,1.4299,1.4299,1.4299,1.4299,1.4299,1.4299,1.4299,1.4299,1.4299,1.4414,1.4713,1.474,1.4862,1.516,1.5181,1.5181,1.5181,1.5181,1.5181,1.5181,1.5181,1.5181,1.5181,1.5255,1.5371,1.552,1.5669,1.5818,1.5967,1.6042,1.6083,1.6083,1.6083,1.6083,1.6083,1.6083,1.6083,1.6182,1.7261,1.7749,1.7749,1.7749,1.7749,1.7749,0.0,0.0,0.0,0.0,0.0,0.0,0.0,0.0,0.0,0.721,0.721,0.721,0.721,0.721,0.721,0.0,0.0,0.0,0.721,0.721,0.7198,0.7301,0.7404,0.7464,0.7486,0.7486,0.7606,0.7839,0.7839,0.8015,0.824,0.8533,0.8672,0.8613,0.9237,0.9471,0.9396,0.97,0.9741,0.9598,0.9469,0.9327,0.9234,0.9062,0.8959,0.8959,0.8959,0.8994,0.8974,0.8974,0.0,0.0,0.0,0.0,0.9632,0.9889,1.0243,1.0555,1.1002,1.1423,1.1999,1.3091,1.36,1.3912,1.4197,1.4278,1.4299,1.4299,1.4299,1.4299,1.4299,1.4299,1.4299,1.4299,1.4299,1.4299,1.4299,1.4299,1.4299,1.4299,1.4299,1.4414,1.4713,1.474,1.4862,1.516,1.5181,1.5181,1.5181,1.5181,1.5181,1.5181,1.5181,1.5181,1.5181,1.5337,1.5486,1.5642,1.5811,1.5961,1.6083,1.6083,1.6083,1.6083,1.6083,1.6083,1.6083,1.6083,1.6083,1.6083,1.6083,1.6083,1.6083,1.6083,1.6083,1.6182,0.0,0.0,0.0,0.0,0.0,0.0,0.0,0.0,0.0,0.0,0.721,0.721,0.721,0.721,0.721,0.721,0.721,0.721,0.721,0.0,0.0,0.7232,0.7248,0.7252,0.7298,0.7304,0.7481,0.7725,0.7725,0.7977,0.8362,0.8575,0.8799,0.8931,0.9305,0.9594,0.9761,0.9761,0.9741,0.9605,0.9585,0.949,0.9347,0.9327,0.932,0.932,0.932,0.9239,0.918,0.918,0.9042,0.0,0.0,0.0,0.9496,0.9862,1.0175,1.0405,1.0853,1.1572,1.2366,1.3037,1.3526,1.3885,1.4061,1.4204,1.4299,1.4299,1.4299,1.4299,1.4299,1.4299,1.4299,1.4299,1.4299,1.4299,1.4299,1.4299,1.4299,1.4299,1.4299,1.4414,1.4713,1.474,1.4862,1.516,1.5181,1.5181,1.5181,1.5181,1.5181,1.5181,1.5181,1.5181,1.5181,1.5337,1.5486,1.5642,1.592,1.6062,1.6083,1.6083,1.6083,1.6083,1.6083,1.6083,1.6083,1.6083,1.6083,1.6083,1.6083,1.6083,1.6083,1.6083,1.6083,1.6374,0.0,0.0,0.0,0.0,0.0,0.0,0.0,0.0,0.0,0.0,0.0,0.721,0.721,0.721,0.721,0.721,0.721,0.721,0.721,0.721,0.721,0.721,0.721,0.7237,0.723,0.7236,0.7323,0.7497,0.7738,0.8016,0.8328,0.8817,0.9057,0.9186,0.9494,0.97,0.9822,0.9822,0.9788,0.972,0.9639,0.9571,0.9503,0.9415,0.9435,0.9496,0.9415,0.9395,0.9395,0.9306,0.9184,0.9069,0.9187,0.0,0.0,0.0,1.0032,1.0412,1.1029,1.1667,1.2305,1.2901,1.339,1.3783,1.4021,1.419,1.4299,1.4299,1.4299,1.4299,1.4299,1.4299,1.4299,1.4299,1.4299,1.4299,1.4299,1.4299,1.4299,1.4299,1.4373,1.4502,1.4719,1.4821,1.4957,1.5167,1.5181,1.5181,1.5181,1.5181,1.5181,1.5181,1.5181,1.5221,1.5309,1.5459,1.5655,1.5886,1.6022,1.6083,1.6083,1.6083,1.6083,1.6083,1.6083,1.6083,1.6083,1.6083,1.6083,1.6083,1.6083,1.6083,1.6083,1.6083,1.6083,1.6388,0.0,0.0,0.0,0.0,0.0,0.0,0.0,0.0,0.0,0.0,0.0,0.721,0.721,0.0,0.0,0.0,0.721,0.721,0.721,0.721,0.7199,0.7166,0.7166,0.715,0.7122,0.715,0.7171,0.729,0.7755,0.8055,0.8248,0.8913,0.9284,0.9405,0.968,0.9822,0.9822,0.9822,0.9822,0.9815,0.9747,0.972,0.9713,0.9639,0.968,0.9768,0.9652,0.9659,0.97,0.9544,0.9395,0.9316,0.9282,0.9313,0.0,0.0,0.0,1.0473,1.1104,1.1606,1.2088,1.2651,1.3152,1.358,1.3844,1.4075,1.4245,1.4245,1.4272,1.4299,1.4299,1.4299,1.4299,1.4299,1.4299,1.4299,1.4299,1.4299,1.4299,1.4299,1.4428,1.457,1.4726,1.4882,1.5031,1.5174,1.5181,1.5181,1.5181,1.5181,1.5181,1.5181,1.5181,1.5255,1.5411,1.5601,1.5825,1.6083,1.6083,1.6083,1.6083,1.6083,1.6083,1.6083,1.6083,1.6083,1.6083,1.6083,1.6083,1.6083,1.6083,1.6083,1.6083,1.6083,1.6501,1.7234,0.0,0.0,0.0,0.0,0.0,0.0,0.0,0.0,0.0,0.0,0.0,0.721,0.721,0.721,0.721,0.721,0.721,0.721,0.721,0.721,0.7161,0.6997,0.6991,0.0,0.6823,0.6937,0.7051,0.7221,0.7624,0.8036,0.8399,0.8887,0.9255,0.9566,0.9761,0.9822,0.9822,0.9822,0.9822,0.9836,0.9909,0.9963,0.9977,1.0181,1.0236,1.0243,1.0236,1.0141,0.9943,0.9849,0.97,0.9557,0.9415,0.9476,0.9625,0.0,0.0,0.0,1.088,1.1301,1.1755,1.221,1.2766,1.3241,1.3397,1.377,1.4082,1.4082,1.4197,1.4299,1.4299,1.4299,1.4299,1.4299,1.4299,1.4299,1.4299,1.4299,1.4299,1.4299,1.4428,1.457,1.4726,1.4882,1.5031,1.5174,1.5181,1.5181,1.5181,1.5181,1.5181,1.5181,1.5181,1.5255,1.5411,1.5696,1.5927,1.6083,1.6083,1.6083,1.6083,1.6083,1.6083,1.6083,1.6083,1.6083,1.6083,1.6083,1.6083,1.6083,1.6083,1.6083,1.6083,1.6083,1.7547,1.9467,0.0,0.0,0.0,0.0,0.0,0.0,0.0,0.0,0.0,0.0,0.0,0.0,0.0,0.721,0.721,0.721,0.721,0.721,0.721,0.7144,0.7029,0.6986,0.691,0.6844,0.6801,0.6844,0.7034,0.7313,0.7771,0.8188,0.8603,0.9097,0.9345,0.9476,0.9713,0.9822,0.9829,0.9862,0.9903,0.9916,1.0134,1.0195,1.0202,1.0256,1.0399,1.0548,1.0453,1.0446,1.046,1.0304,1.0093,0.9802,0.9713,0.97,0.9774,0.9862,1.0017,1.0297,1.0624,1.0989,1.1251,1.1864,1.2372,1.2834,1.3173,1.36,1.3953,1.4048,1.419,1.4299,1.4299,1.4299,1.4299,1.4299,1.4299,1.4299,1.4299,1.4299,1.4299,1.4299,1.4509,1.4679,1.4733,1.4964,1.5126,1.5181,1.5181,1.5181,1.5181,1.5181,1.5181,1.5181,1.5181,1.5303,1.5554,1.5852,1.6029,1.6083,1.6083,1.6083,1.6083,1.6083,1.6083,1.6083,1.6083,1.6083,1.6083,1.6083,1.6083,1.6083,1.6083,1.6144,1.6426,1.7806,1.8899,2.0166,0.0,0.0,0.0,0.0,0.0,0.0,0.0,0.0,0.7274,0.7274,0.0,0.0,0.0,0.0,0.7258,0.722,0.7232,0.721,0.721,0.7051,0.697,0.6926,0.6806,0.6777,0.6785,0.6824,0.7042,0.7393,0.7895,0.8306,0.8562,0.9097,0.9364,0.932,0.9618,0.9747,0.9761,0.9903,0.9984,1.0004,1.027,1.0385,1.0432,1.0487,1.069,1.0934,1.0833,1.086,1.0914,1.0711,1.048,1.0179,1.0039,0.9937,0.9856,0.9957,0.9984,1.0065,1.048,1.0717,1.1002,1.1545,1.1986,1.2393,1.2847,1.3295,1.3661,1.3817,1.4048,1.4224,1.4224,1.4265,1.4299,1.4299,1.4299,1.4299,1.4299,1.4299,1.4299,1.4299,1.4563,1.474,1.474,1.5011,1.5181,1.5181,1.5181,0.0,1.5181,1.5181,1.5208,1.5255,1.5309,1.5459,1.571,1.5961,1.6083,1.6083,1.6083,1.6083,1.6083,1.6083,1.6083,1.6083,1.6083,1.6083,1.6083,1.6083,1.6083,1.609,1.6137,1.6713,1.7602,1.9147,2.0687,2.2581,0.0,0.0,0.0,0.0,0.0,0.0,0.7502,0.7524,0.7524,0.7524,0.0,0.0,0.0,0.0,0.0,0.7293,0.723,0.7215,0.7215,0.7051,0.6931,0.6806,0.0,0.0,0.6798,0.6918,0.7135,0.7392,0.7977,0.8272,0.8339,0.889,0.92,0.9207,0.9462,0.9598,0.9618,0.9869,0.9997,1.0017,1.0385,1.0595,1.0751,1.084,1.1151,1.1409,1.1416,1.1416,1.1369,1.107,1.0799,1.0683,1.0385,1.0181,0.999,0.999,0.999,1.0024,0.0,0.0,0.0,1.1267,1.1599,1.1932,1.2379,1.2834,1.32,1.3356,1.3743,1.4061,1.4061,1.419,1.4292,1.4292,1.4299,1.4299,1.4299,1.4299,1.4299,1.4299,1.4563,1.474,1.474,1.5011,1.5181,1.5181,1.5181,1.5181,1.5181,1.5181,1.5255,1.5404,1.556,1.571,1.5852,1.6001,1.6083,1.6083,1.6083,1.6083,1.6083,1.6083,1.6083,1.6083,1.6083,1.6083,1.6083,1.6083,1.6083,1.6103,1.6252,1.7602,1.9516,1.9788,2.2701,2.6653,0.0,0.0,0.0,0.0,0.0,0.7481,0.7513,0.7595,0.7649,0.0,0.0,0.0,0.766,0.7573,0.7502,0.747,0.7355,0.7285,0.7285,0.71,0.6931,0.6806,0.6842,0.6873,0.6798,0.7027,0.7345,0.775,0.793,0.8177,0.8448,0.8689,0.8832,0.8845,0.9144,0.934,0.9476,0.9998,1.0215,1.0249,1.0656,1.0907,1.107,1.1335,1.1619,1.1891,1.1999,1.1972,1.1843,1.1653,1.1416,1.1138,1.0724,1.0426,1.0195,1.0017,1.0127,1.0222,1.027,0.0,0.0,0.0,0.0,0.0,1.1938,1.2447,1.2895,1.3051,1.3437,1.3749,1.3749,1.396,1.4136,1.4136,1.4231,1.4299,1.4299,1.4299,1.4299,1.4299,1.4563,1.474,1.474,1.5011,1.5181,0.0,1.5181,1.5181,1.5181,1.5181,1.5255,1.5404,1.556,1.571,1.5852,1.6001,1.6083,1.6083,1.6083,1.6083,1.6083,1.6083,1.6083,1.6083,1.6083,1.6083,1.6083,1.6083,1.6144,1.6252,1.6293,1.674,1.7946,2.1241,2.3323,2.4939,0.0,0.0,0.7453,0.7573,0.7633,0.7682,0.7736,0.7845,0.7926,0.0,0.0,0.0,0.7932,0.7818,0.772,0.7671,0.7557,0.7448,0.7288,0.7276,0.7165,0.7043,0.7131,0.7208,0.7276,0.7322,0.7578,0.7965,0.8031,0.8206,0.8397,0.8547,0.8648,0.8723,0.896,0.9184,0.9415,0.9958,1.0222,1.0317,1.0765,1.107,1.1294,1.1592,1.1972,1.2352,1.244,1.2461,1.2393,1.2115,1.1742,1.1335,1.1009,1.0704,1.0432,1.0276,1.0256,1.029,1.0351,1.0426,1.0568,1.0806,0.0,0.0,1.1579,1.2013,1.24,1.2556,1.2996,1.3349,1.3349,1.3648,1.3885,1.3885,1.4014,1.4156,1.4285,1.4299,1.4299,1.4299,1.4502,1.4645,1.4645,1.4916,1.5092,1.5092,1.5147,1.5181,1.5181,1.5181,1.5282,1.5499,1.5594,1.5737,1.5947,1.6035,1.6083,1.6083,1.6083,1.6083,1.6083,1.6083,1.6083,1.6083,1.6083,1.6083,1.609,1.6151,1.6232,1.6421,1.7451,1.8019,1.8705,2.3165,2.4919,2.545,0.0,0.0,0.7584,0.7736,0.7834,0.7993,0.8119,0.8176,0.8188,0.0,0.8188,0.8188,0.8188,0.8149,0.8092,0.7921,0.7867,0.7703,0.741,0.7613,0.7642,0.7497,0.7503,0.7667,0.7904,0.7717,0.7746,0.7988,0.818,0.8248,0.8248,0.8391,0.854,0.8689,0.879,0.9096,0.9435,0.991,1.0141,1.0365,1.0799,1.1151,1.145,1.1782,1.2271,1.2786,1.282,1.2915,1.2969,1.2515,1.1965,1.1436,1.1287,1.1036,1.0758,1.0568,1.0439,1.0378,1.0466,1.0507,1.0582,1.0786,1.0867,0.0,1.128,1.1572,1.1823,1.1959,1.2454,1.2861,1.2861,1.3241,1.3553,1.3553,1.3688,1.3905,1.4231,1.4278,1.4278,1.4299,1.4428,1.4509,1.4509,1.4774,1.4943,1.4943,1.5079,1.5167,1.5181,1.5201,1.5343,1.5628,1.5655,1.5798,1.6076,1.6083,1.6083,1.6083,1.6083,1.6083,1.6083,1.6083,1.6083,1.6083,1.6083,1.609,1.6117,1.6273,1.6334,1.6563,1.908,2.0139,2.0686,2.5174,2.6691,2.6896,0.7589,0.7649,0.7763,0.8079,0.8068,0.8057,0.8182,0.8301,0.8383,0.8383,0.8383,0.8383,0.8383,0.8274,0.8193,0.8166,0.8301,0.8351,0.8208,0.8272,0.8205,0.7962,0.7908,0.7917,0.7904,0.7912,0.7939,0.7988,0.8022,0.8085,0.8085,0.8241,0.8391,0.8533,0.8682,0.9055,0.9578,0.9781,1.0161,1.0663,1.0989,1.1301,1.1633,1.2169,1.2671,1.3119,1.3363,1.3471,1.3431,1.2983,1.2433,1.1904,1.1748,1.1497,1.1185,1.0792,1.0744,1.0772,1.0555,1.0582,1.069,1.0751,1.0793,0.0,1.0954,1.126,1.1484,1.1518,1.1904,1.2312,1.2312,1.2705,1.3091,1.3091,1.3315,1.3634,1.4055,1.4116,1.4163,1.4285,1.4428,1.4509,1.4509,1.4679,1.4787,1.4787,1.4923,1.5065,1.5174,1.5303,1.5452,1.5635,1.575,1.59,1.6083,1.6083,1.6083,1.6083,1.6083,1.6083,1.6083,1.6083,1.6083,1.6083,1.6083,1.6151,1.6279,1.6422,1.6483,1.6701,1.9127,2.0212,2.075,2.5225,2.5758,2.4515,0.7665,0.7747,0.7883,0.8182,0.8187,0.8187,0.8307,0.8481,0.8595,0.8595,0.8649,0.8615,0.8615,0.8561,0.8607,0.8617,0.8739,0.8788,0.8785,0.8817,0.8759,0.8489,0.8488,0.8395,0.8222,0.8177,0.8119,0.7988,0.7988,0.7988,0.7995,0.8201,0.8343,0.8492,0.8723,0.9117,0.9625,0.9842,1.0236,1.0751,1.1124,1.1504,1.1904,1.2501,1.301,1.3431,1.3654,1.3688,1.3587,1.3281,1.2881,1.2461,1.2155,1.1904,1.164,1.1185,1.1111,1.1104,1.0799,1.0778,1.0745,1.0738,1.0778,0.0,0.0,1.1009,1.1172,1.1172,1.1463,1.1748,1.183,1.221,1.2535,1.2617,1.2813,1.3057,1.3363,1.3661,1.3933,1.4156,1.4177,1.4238,1.4394,1.4475,1.4584,1.4726,1.4882,1.5004,1.5072,1.5289,1.5479,1.5635,1.5778,1.5927,1.6083,1.6083,1.6083,1.6083,1.6083,1.6083,1.6083,1.6083,1.6083,1.6083,1.6164,1.6239,1.6327,1.6544,1.7242,1.8481,2.09,2.1234,2.08,2.5245,2.4824,2.2243,0.7747,0.7861,0.8019,0.8258,0.8285,0.8312,0.8432,0.8633,0.8785,0.8834,0.8927,0.8927,0.8944,0.8949,0.9071,0.9182,0.9294,0.9329,0.9317,0.9473,0.9383,0.9072,0.8981,0.8852,0.8574,0.8397,0.8235,0.8035,0.8035,0.8015,0.7995,0.8201,0.8364,0.854,0.8845,0.9245,0.9713,0.995,1.0412,1.0887,1.1341,1.1735,1.2203,1.2732,1.3241,1.3654,1.3858,1.3838,1.3695,1.3573,1.3336,1.3017,1.2596,1.2359,1.2217,1.166,1.1518,1.145,1.1124,1.1009,1.0955,1.0799,1.0744,1.0717,0.0,0.0,0.0,1.084,1.1118,1.1341,1.147,1.1735,1.1952,1.202,1.2203,1.2366,1.2461,1.2969,0.0,1.3851,1.381,0.0,1.4143,1.4224,1.438,1.4672,1.4814,1.4909,1.497,1.5248,1.5479,1.5635,1.5805,1.5954,1.6083,1.6083,1.6083,1.6083,1.6083,1.6083,1.6083,1.6083,1.6083,1.609,1.6246,1.6327,1.6368,1.7044,1.8712,2.1011,2.2903,2.2554,2.1414,2.545,2.4103,2.0592,0.8075,0.8111,0.8269,0.8508,0.8465,0.8437,0.8552,0.8682,0.8845,0.9063,0.9106,0.915,0.9253,0.9264,0.9352,0.9642,0.9912,1.0091,1.0082,1.024,1.0159,0.9727,0.9361,0.9055,0.8838,0.8608,0.8391,0.8241,0.8241,0.8174,0.7995,0.8201,0.8418,0.8696,0.8994,0.9456,0.9957,1.0317,1.0778,1.1355,1.1803,1.2013,1.2203,1.2732,1.3241,1.3682,1.4102,1.415,1.4021,1.4,1.3797,1.3498,1.3173,1.2976,1.2745,1.2155,1.1986,1.1891,1.1457,1.124,1.1104,1.0962,1.0819,1.0717,1.0717,0.0,1.0744,1.0744,0.0,1.0934,1.0954,0.0,0.0,1.1069,1.145,1.1681,1.1558,1.1945,1.2494,1.3193,1.3376,0.0,0.0,1.3946,1.4217,1.4516,1.4557,1.4685,1.4957,1.5248,1.5479,1.5635,1.5913,1.6062,1.6083,1.6083,1.6083,1.6083,1.6083,1.6083,1.6083,1.6083,1.6083,1.609,1.6246,1.6381,1.6612,1.8819,2.1037,2.325,2.3475,2.3484,2.3484,2.5964,2.4103,2.0384,0.8171,0.8198,0.8312,0.8546,0.8492,0.8481,0.8666,0.8916,0.9215,0.9607,0.9826,0.9934,0.9979,0.9984,1.0088,1.0328,1.0396,1.0565,1.0856,1.082,1.0595,1.0229,0.9781,0.9429,0.9198,0.8899,0.8676,0.8526,0.8438,0.8357,0.8303,0.8547,0.8723,0.8866,0.9334,0.9727,1.0017,1.0489,1.1056,1.1565,1.2013,1.24,1.2752,1.3186,1.3627,1.4041,1.4231,1.4258,1.419,1.4102,1.3987,1.3831,1.3532,1.3397,1.3247,1.2732,1.2583,1.2467,1.1925,1.1667,1.1497,1.126,1.1029,1.0853,1.0853,1.0785,1.0717,1.0717,0.0,0.0,0.0,0.0,0.0,0.0,1.1233,1.1335,1.1267,1.1497,1.1952,0.0,0.0,0.0,0.0,0.0,0.0,0.0,1.4414,1.4604,1.4828,1.5201,1.5479,1.5635,1.5927,1.6083,1.6083,1.6083,1.6083,1.6083,1.6083,1.6083,1.6083,1.6083,1.613,1.6225,1.6368,1.7225,1.8701,1.9791,2.1552,2.3587,2.3587,2.3587,2.3587,2.3174,2.1933,2.0279,0.8307,0.8312,0.8388,0.8557,0.8519,0.8546,0.8785,0.9095,0.9445,0.9928,1.0213,1.0378,1.0446,1.0606,1.0709,1.0966,1.1013,1.1193,1.1599,1.1335,1.1023,1.0636,1.0222,0.9869,0.9571,0.9273,0.9028,0.8832,0.8682,0.8567,0.8486,0.8798,0.8925,0.9083,0.9639,1.0012,1.0206,1.0833,1.1328,1.1782,1.2277,1.2854,1.3444,1.3668,1.398,1.4299,1.4299,1.4299,1.4285,1.417,1.4136,1.4089,1.3831,1.3749,1.3668,1.3261,1.3146,1.3024,1.2538,1.2162,1.1945,1.1647,1.1321,1.107,1.107,1.0921,1.0785,1.0785,1.0751,0.0,0.0,0.0,1.0894,1.0914,0.0,1.1016,1.0934,1.1124,1.1497,1.2121,0.0,0.0,0.0,0.0,0.0,0.0,0.0,1.4496,1.4726,1.5092,1.5398,1.5635,1.5886,1.6042,1.6083,1.6083,1.6083,1.6083,1.6083,1.6083,1.6083,1.6123,1.6205,1.632,1.6503,1.7865,2.0139,2.0206,2.1622,2.3587,2.2968,2.2657,2.245,2.0903,2.0279,2.0279,0.8437,0.8503,0.8579,0.8584,0.8584,0.8666,0.8841,0.915,0.9427,0.978,0.9938,1.0106,1.0346,1.0769,1.1119,1.1379,1.1761,1.205,1.2067,1.1891,1.1545,1.0894,1.0636,1.0331,0.997,0.9741,0.9442,0.9193,0.8994,0.8771,0.8486,0.8798,0.9089,0.9388,0.9903,1.029,1.0731,1.1185,1.1633,1.2176,1.2777,1.3383,1.4041,1.4055,1.4156,1.4299,1.4299,1.4299,0.0,1.4292,1.4292,0.0,0.0,1.4055,1.4,1.3695,1.3607,1.3512,1.3057,1.2712,1.2413,1.2115,1.1708,1.1375,1.1375,1.1151,1.0873,1.0873,1.0759,1.0724,1.0724,1.0724,1.0636,1.0351,1.0548,0.0,0.0,1.0683,1.1077,1.1389,1.1938,0.0,0.0,0.0,0.0,0.0,0.0,0.0,1.4719,1.4896,1.5187,1.5628,1.5784,1.5934,1.6083,1.6083,1.6083,1.6083,1.6083,1.6083,1.609,1.6232,1.6307,1.6327,1.6619,1.7975,2.0139,2.0206,2.1622,2.3381,2.1207,2.0384,2.0384,2.0279,2.0279,2.0279,0.8524,0.8562,0.859,0.859,0.859,0.8698,0.8954,0.934,0.9719,1.0229,1.0594,1.1005,1.1505,1.1771,1.205,1.2421,1.2496,1.2621,1.2678,1.2515,1.2203,1.1708,1.1301,1.0948,1.0584,1.0256,0.9903,0.9591,0.9354,0.9178,0.9083,0.9184,0.9388,0.9686,1.0046,1.0392,1.0765,1.1409,1.1945,1.2433,1.3336,1.3844,1.4075,1.4075,1.4163,1.4299,1.4299,1.4299,0.0,1.4299,1.4299,1.4292,1.4238,1.4224,1.4183,1.398,1.3919,1.3844,0.0,0.0,1.2901,1.2705,1.2244,1.1837,1.1837,1.1525,1.124,1.124,1.1043,1.0806,1.0806,1.0785,1.0683,1.0588,1.0568,1.0534,0.0,1.0555,1.0683,1.0785,1.1416,1.1945,1.2189,0.0,0.0,0.0,0.0,0.0,0.0,1.4828,1.5086,1.533,1.5676,1.5879,1.5934,1.6029,1.6083,1.6083,1.6083,1.6137,1.6232,1.6286,1.6415,1.6605,1.824,2.0291,2.2464,2.2424,2.2968,2.3381,2.1207,2.0279,2.0071,1.8634,1.9975,2.2864,0.853,0.8557,0.859,0.859,0.866,0.8823,0.9144,0.9497,0.9889,1.0364,1.0959,1.1411,1.1879,1.2349,1.2769,1.3023,1.3108,1.3208,1.3214,1.3003,1.2712,1.2318,1.187,1.1491,1.1192,1.0751,1.0365,1.0059,0.9707,0.951,0.9462,0.9462,0.9618,0.991,1.0168,1.0534,1.0995,1.1586,1.2155,1.2745,1.3695,1.4102,1.4156,1.4211,1.4292,1.4373,0.0,1.4414,1.4455,1.4455,1.4455,1.4448,1.4394,1.4373,1.4346,1.4197,1.415,1.4102,1.3851,1.36,0.0,1.3166,1.2745,1.2366,1.2311,1.1952,1.1626,1.1626,1.1348,1.1104,1.1104,1.0941,1.0799,1.0799,1.067,1.0575,0.0,1.0575,1.0575,1.0575,1.1097,1.1552,1.1796,0.0,0.0,0.0,0.0,0.0,0.0,0.0,1.4977,1.5174,1.5567,1.5805,1.5852,1.6001,1.6083,1.6083,1.6083,1.6164,1.6313,1.6361,1.6925,1.7982,1.9474,2.1518,2.3587,2.2761,2.245,2.2243,2.0903,2.0279,2.0175,1.8738,2.1007,2.5245,0.8486,0.853,0.8606,0.8622,0.8812,0.8976,0.9285,0.9617,0.9938,1.0193,1.0939,1.1467,1.1684,1.2582,1.3264,1.3264,1.3607,1.3804,1.3661,1.3376,1.3085,1.2786,1.2352,1.1972,1.1667,1.115,1.0833,1.0514,1.0066,0.9774,0.9632,0.9618,0.9774,1.0004,1.0222,1.0697,1.1409,1.1721,1.2298,1.3071,1.379,1.4177,1.4326,1.4462,1.4523,1.4529,1.4523,1.4618,1.474,1.474,1.474,1.4713,1.457,1.4523,1.4496,1.436,1.4319,1.4278,1.4136,1.3973,1.3783,1.3505,1.3214,0.0,1.2807,1.2427,1.2108,1.2108,1.1742,1.1423,1.1423,1.1172,1.09,1.09,1.0826,1.0717,1.0704,1.0704,1.0711,1.0711,1.0962,1.1206,0.0,0.0,0.0,0.0,0.0,0.0,0.0,1.4577,1.4869,1.5153,1.5472,1.5703,1.5839,1.6001,1.6083,1.6083,1.6083,1.6164,1.6327,1.6558,1.7931,2.0147,2.0517,2.1725,2.3484,2.131,2.0384,2.0279,2.0279,2.0384,2.0592,2.0592,2.3278,2.7203,0.876,0.8771,0.8916,0.909,0.9171,0.9296,0.9541,0.9802,1.0201,1.0956,1.1343,1.1889,1.2804,1.3303,1.365,1.4008,1.4096,1.4116,1.3966,1.3885,1.3709,1.341,1.3071,1.2691,1.2284,1.1837,1.1348,1.0833,1.0385,1.0086,0.9869,0.9713,0.9829,1.0229,1.0371,1.0792,1.1423,1.1952,1.2732,1.3648,1.4075,1.4326,1.4462,0.0,1.4652,1.4841,1.4719,1.4706,1.474,1.474,1.474,1.4733,1.4692,1.4679,1.4672,1.4638,1.455,1.4448,1.4407,1.4211,1.3994,1.3919,1.3675,1.3451,0.0,0.0,0.0,1.2811,1.2284,1.1891,1.1891,1.1552,1.128,1.128,1.0962,1.0643,1.0426,1.0487,1.0548,1.0548,1.0717,0.0,0.0,0.0,0.0,0.0,0.0,0.0,0.0,0.0,1.4774,1.4848,1.5364,1.5655,1.5696,1.5954,1.6083,1.6083,1.6083,1.6218,1.6469,1.8221,1.9411,2.0422,2.3775,2.4618,2.3587,2.2968,2.1829,2.0279,2.0279,2.2347,2.5245,2.5245,2.5964,2.7203,0.9117,0.9193,0.9307,0.9438,0.9639,0.9786,0.9818,1.0068,1.0453,1.1025,1.1696,1.233,1.3004,1.3588,1.4033,1.4299,1.4299,1.4265,1.4177,1.4109,1.4,1.3831,1.3532,1.3193,1.2807,1.2291,1.1775,1.124,1.0724,1.0392,1.0236,1.0012,1.0073,1.0378,1.0527,1.0928,1.1545,1.2413,1.3186,1.3871,1.4245,1.4441,0.0,1.4658,1.4821,1.497,1.4943,1.493,1.493,1.493,1.493,1.4923,1.4862,1.4841,1.4828,1.476,1.4679,1.4611,1.4611,1.4441,1.4251,1.419,1.3994,1.3804,1.3736,1.3478,1.3254,0.0,1.2827,1.2454,0.0,1.2033,1.1619,1.1423,1.1179,1.0934,1.0697,1.0738,1.0785,1.0785,1.086,0.0,0.0,0.0,0.0,0.0,0.0,0.0,0.0,0.0,1.4604,1.4733,1.5262,1.5567,1.5642,1.5934,1.6083,1.6083,1.7134,1.7687,1.804,2.0333,2.2052,2.3278,2.4824,2.4721,2.3587,2.3587,2.2347,2.0488,2.245,2.5348,2.8348,2.8348,2.8348,2.8552,0.9421,0.9584,0.9742,0.9758,1.0134,1.0367,1.0166,1.0405,1.0733,1.0959,1.1939,1.2767,1.2873,1.3777,1.4299,1.4299,1.4299,1.4299,1.4299,1.4177,1.4102,1.4102,1.3838,1.3546,1.3241,1.2671,1.2149,1.1681,1.107,1.069,1.0521,1.0358,1.0358,1.05,1.067,1.1124,1.1837,1.2956,1.36,1.3905,1.434,1.4523,1.457,1.4862,1.4984,1.5018,1.514,1.5181,1.5181,1.5181,1.5181,1.516,1.5038,1.4997,1.497,1.4835,1.4787,1.4767,1.4767,1.4658,1.4509,1.4387,1.4258,1.4122,1.3987,1.3831,1.3715,1.3715,1.3363,1.3051,0.0,0.0,1.2026,1.1558,1.1477,1.1423,1.1246,1.1219,1.1212,1.1261,1.1261,0.0,0.0,0.0,0.0,0.0,0.0,0.0,0.0,0.0,1.4434,1.4733,1.5174,1.5486,1.5635,0.0,1.6083,1.6083,1.8505,1.9673,1.9853,2.2572,2.4921,2.6794,2.4824,2.3897,2.3587,2.3587,2.2657,2.1518,2.545,2.8246,3.0214,3.0214,3.0214,3.0214,0.99,1.0008,1.0139,1.0242,1.0492,1.0693,1.0753,1.0813,1.1187,1.2188,1.2538,1.3067,1.3892,1.4197,1.4299,1.4299,1.4299,1.4299,1.4299,1.4278,1.4258,1.4258,1.4089,1.3851,1.3553,1.3085,1.2562,1.1986,1.1382,1.0948,1.0677,1.0405,1.0358,1.0507,1.0785,1.1518,1.2583,1.3288,1.3763,1.4061,1.438,1.4584,1.4719,1.4903,1.5045,1.5147,1.5174,1.5181,1.5181,1.5181,1.5181,1.5181,1.5153,1.5147,1.514,1.5113,1.5025,1.493,1.493,1.4821,1.4692,1.4672,1.4645,1.4618,1.459,1.4373,1.4183,1.4183,1.3824,1.3512,1.3512,0.0,0.0,1.204,1.1945,1.185,1.1579,1.1538,1.1491,1.1369,1.1348,1.1348,0.0,0.0,0.0,0.0,0.0,0.0,0.0,0.0,1.4434,0.0,1.5174,0.0,0.0,0.0,1.6083,1.6083,1.8505,1.9673,1.9954,2.4194,2.6355,2.6896,2.6487,2.5245,2.3587,2.3587,2.4412,2.5861,2.6589,2.8246,3.0214,3.0214,3.0214,3.0214,1.0394,1.0492,1.0596,1.0655,1.0857,1.1036,1.109,1.1471,1.1811,1.2324,1.2878,1.3439,1.3955,1.4303,1.4529,1.4529,1.4529,1.4529,1.4529,1.4529,1.4489,1.4414,1.434,1.4163,1.3865,1.3417,1.2935,1.2406,1.1803,1.1355,1.1063,1.0839,1.0772,1.086,1.1321,1.202,1.2881,1.341,0.0,1.4217,1.4509,1.4719,1.4875,1.5025,1.512,1.5181,1.5181,1.5181,1.5181,1.5181,1.5181,1.5181,1.5181,1.5181,1.5181,1.5181,1.5133,1.5079,1.5079,1.497,1.4862,1.4862,1.4801,1.474,1.474,1.4631,1.4509,1.4428,1.4177,1.3905,1.3675,1.3451,0.0,1.2617,1.2606,1.242,1.2121,1.2074,1.202,1.1877,1.1857,1.183,0.0,0.0,0.0,0.0,0.0,0.0,0.0,0.0,1.4204,0.0,0.0,0.0,1.552,0.0,0.0,1.6198,1.9733,2.1519,2.1816,2.6414,2.7919,2.6896,2.6896,2.5656,2.3691,2.4824,2.6589,2.8654,2.8654,2.9276,3.0214,3.0214,3.0214,3.0214,1.0813,1.0911,1.1003,1.1031,1.121,1.1445,1.1561,1.209,1.2405,1.2261,1.3146,1.3836,1.4016,1.4393,1.474,1.474,1.474,1.474,1.474,1.474,1.4685,1.4563,1.4529,1.4387,1.4129,1.3682,1.3241,1.2827,1.2223,1.1714,1.1294,1.1274,1.1294,1.1452,1.1952,1.2522,0.0,0.0,1.3966,1.4367,1.4631,1.4835,1.4984,1.5126,1.5181,1.5181,1.5181,1.5181,1.5181,1.5181,1.5181,1.5181,1.5181,1.5181,1.5181,1.5181,1.5181,1.5181,1.5181,1.5099,1.5018,1.5018,1.4923,1.4835,1.4835,1.4808,1.4753,1.4631,1.4468,1.4217,1.3804,1.3722,0.0,0.0,1.3105,1.3003,1.2732,1.2691,1.263,1.2454,1.2433,0.0,1.2135,0.0,0.0,0.0,0.0,0.0,1.3424,1.3695,1.4007,0.0,0.0,1.5269,1.5459,0.0,1.635,1.7005,2.1173,2.3481,2.4191,2.7817,2.8767,2.752,2.6589,2.545,2.4412,2.6169,2.8246,3.0214,3.0214,3.0214,3.0214,3.0214,3.0214,3.0214,1.1069,1.1161,1.1275,1.1384,1.1514,1.182,1.238,1.2506,1.2568,1.2975,1.3531,1.4173,1.4537,1.4642,1.474,1.474,1.474,1.474,1.474,1.474,1.4733,1.4719,1.4584,1.4441,1.4285,1.3838,1.3451,1.3132,1.2535,1.1816,1.0927,1.1389,1.1721,1.1999,0.0,0.0,0.0,1.3838,1.4211,1.4509,1.4672,1.4835,1.4984,1.5126,1.5181,1.5181,1.5181,1.5181,1.5181,1.5181,1.5181,1.5181,1.5181,1.5181,1.5181,1.5181,1.5181,1.5181,1.5181,1.5174,1.516,1.516,1.5153,1.514,1.514,1.5038,1.4943,1.493,1.4692,1.4394,1.4089,1.4034,1.3926,0.0,1.3566,1.3505,1.3342,1.3315,1.3214,1.2929,0.0,0.0,0.0,1.2271,0.0,0.0,1.2637,0.0,1.3573,1.3756,1.4102,1.4679,1.5011,1.5323,1.5615,1.5927,1.7142,1.9284,2.1867,2.4287,2.644,2.6992,2.8144,2.9694,2.5656,2.4936,2.6589,2.6794,2.8246,3.0214,3.0214,3.0214,3.0214,3.0214,3.0214,3.0214,1.1411,1.146,1.1531,1.165,1.1716,1.185,1.2083,1.2426,1.2639,1.2868,1.364,1.4231,1.4415,1.4772,1.5004,1.5004,1.5004,1.5004,1.5004,1.5004,1.497,1.4882,1.4733,1.4577,1.4428,1.4075,1.379,1.3573,1.3071,1.2589,1.2155,1.2149,1.2311,1.2617,0.0,1.3247,1.3688,1.4055,1.438,1.4665,1.4814,1.497,1.5106,1.516,1.5181,1.5181,1.5181,1.5181,1.5181,1.5181,1.5181,1.5181,1.5181,1.5181,1.5181,1.5181,1.5181,1.5181,1.5181,1.5181,1.5181,1.5181,1.5181,1.5181,1.5181,1.514,1.5072,1.4991,1.4801,1.4611,1.4496,1.4475,1.4373,1.4082,0.0,1.3946,1.3702,1.3661,1.3587,1.339,0.0,1.322,0.0,0.0,0.0,0.0,0.0,1.2949,1.3464,1.3715,0.0,1.4462,0.0,1.5289,1.5499,1.5886,1.7292,1.9739,2.2022,2.375,2.4899,2.6229,2.7418,2.8144,2.6374,2.6794,2.8869,2.8869,2.9389,3.0214,3.0214,3.0214,3.0214,3.0214,3.0214,3.0214,1.1672,1.1688,1.1726,1.1846,1.1868,1.1879,1.2102,1.2365,1.2602,1.2696,1.3535,1.4101,1.428,1.4839,1.5181,1.5181,1.5181,1.5181,1.5181,1.5181,1.514,1.5038,1.4889,1.4733,1.4584,1.4292,1.4061,1.3905,1.3505,1.3139,1.282,1.2562,1.2698,0.0,1.3308,1.3593,1.3994,1.4251,1.4536,1.4821,1.493,1.5059,1.5181,1.5181,1.5181,1.5187,1.5235,1.5248,1.5255,1.5303,1.5316,1.5303,1.5208,1.5181,1.5181,1.5181,1.5181,1.5181,1.5181,1.5181,1.5181,1.5181,1.5181,1.5181,1.5181,1.5181,1.514,1.5004,1.4882,1.4794,1.4746,1.474,1.4672,1.4462,0.0,1.434,1.4075,1.4075,1.4021,1.3783,1.3797,1.3688,1.3342,1.3308,0.0,0.0,1.3173,1.3173,1.3573,1.3797,1.4068,0.0,0.0,0.0,1.5479,1.5927,1.7665,2.0755,2.2425,2.406,2.5553,2.7203,2.752,2.6896,2.7623,2.8767,3.0214,3.0214,3.0214,3.0214,3.0214,3.0214,3.0214,3.0214,3.0214,3.0214,1.1819,1.1819,1.1851,1.1966,1.1987,1.2212,1.281,1.2544,1.2356,1.2827,1.3399,1.3864,1.4328,1.4899,1.5181,1.5181,1.5181,1.5181,1.5181,1.5181,1.5181,0.0,1.5045,1.4896,1.474,1.4448,1.4224,1.4068,0.0,0.0,1.2501,1.2359,1.2766,1.3627,1.377,1.4007,1.4306,1.4448,1.4685,1.497,1.497,1.5059,1.5181,1.5181,1.5181,1.5201,1.5357,1.5404,1.5432,1.5581,1.5635,1.5581,1.5276,1.5181,1.5181,1.5181,1.5181,1.5181,1.5181,1.5181,1.5181,1.5181,1.5181,1.5181,1.5181,1.5181,1.514,1.5004,1.497,1.4923,1.4767,1.474,1.474,1.4733,0.0,0.0,1.4523,1.4631,1.4563,1.4122,1.4197,1.4116,1.3668,1.3627,0.0,1.3627,1.362,1.3749,1.4048,1.4068,1.4272,1.4719,1.5025,0.0,1.5635,1.6083,1.8583,2.3074,2.3273,2.5735,3.0112,3.0112,2.8971,2.6998,2.9174,3.0214,3.0214,3.0214,3.0214,3.0214,3.0214,3.0214,3.0214,3.0214,3.0214,3.0214,1.1917,1.2004,1.2096,1.2216,1.2308,1.2373,1.2604,1.2519,1.261,1.3085,1.3662,1.4112,1.4583,1.4959,1.5181,1.5181,1.5181,1.5181,0.0,1.5181,1.5181,1.5181,1.5045,1.495,1.4896,1.4597,1.4421,1.4373,0.0,0.0,0.0,1.337,1.3614,1.4089,1.4136,1.4319,1.4611,1.476,1.4882,1.4977,1.5079,1.514,1.5194,1.5296,1.5337,1.5357,1.5513,1.5567,1.5574,1.5622,1.5642,1.5622,1.5527,1.5418,1.5337,1.5337,1.5262,1.5181,1.5181,1.5181,1.5181,1.5181,1.5181,1.5181,1.5181,1.5181,1.5167,1.5126,1.5113,1.5099,1.5052,1.5038,1.5011,1.4916,1.4896,0.0,1.4692,1.4713,1.4685,1.4543,1.4475,1.4346,0.0,1.3994,0.0,0.0,1.4027,1.4082,1.4075,1.417,1.4434,0.0,1.5181,0.0,1.5784,1.7603,2.0075,2.3074,2.3273,2.4207,2.5758,2.7305,2.752,2.6998,2.9276,3.0214,3.0214,3.0214,3.0214,3.0214,3.0214,3.0214,3.0214,3.0214,3.0214,3.0214,1.2183,1.2254,1.2335,1.2406,1.2487,1.2536,1.2536,1.2536,1.2725,1.3206,1.3788,1.4242,1.4732,1.5125,0.0,1.5194,1.5181,1.5181,1.5181,1.5181,1.5181,1.5181,1.5099,1.5025,1.497,1.478,0.0,1.4597,1.4414,1.4272,1.4177,1.4177,1.4278,1.4468,1.4468,1.4597,1.4835,1.493,1.5004,1.5065,1.5208,1.5269,1.5282,1.5438,1.5499,1.5513,1.5669,1.5716,1.573,1.5784,1.5805,1.5805,1.5805,1.5703,1.5554,1.5445,1.5343,1.5255,1.5201,1.5181,1.5181,1.5181,1.5181,1.5181,1.5181,1.5181,1.5181,1.5181,1.5181,1.5181,1.5181,1.5181,1.5153,1.5065,1.5052,1.4997,1.4848,1.4875,1.4869,1.4753,0.0,0.0,0.0,1.438,1.4326,0.0,1.4462,1.4509,1.4414,1.4448,1.4645,1.5038,1.5282,0.0,1.7199,1.8812,2.1274,2.4498,2.5439,2.5512,2.4926,2.7101,2.8144,2.8246,2.9593,3.0214,3.0214,3.0214,3.0214,3.0214,3.0214,3.0214,3.0214,3.0214,3.0214,3.0214,1.2536,1.2542,1.2547,0.0,1.2553,1.2558,1.2558,1.2558,1.2753,1.3326,1.3818,1.4395,1.4874,1.5365,1.5533,1.5242,0.0,0.0,0.0,1.5181,1.5181,1.5181,1.5181,1.512,1.4991,1.4977,1.4896,1.474,1.474,1.474,1.474,1.474,1.4746,1.4753,1.4753,1.4841,1.4984,1.4997,1.5079,1.5215,1.5364,1.5425,1.5445,1.5594,1.5655,1.5676,1.5818,1.5866,1.5893,1.6035,1.6083,1.6083,1.6083,1.5981,1.5811,1.5527,1.5432,1.5391,1.5242,1.5201,1.5194,1.5187,1.5181,1.5181,1.5181,1.5181,1.5181,1.5181,1.5181,1.5181,1.5181,1.5181,1.5181,1.5181,1.5181,1.514,1.5004,1.5099,1.5079,1.4801,0.0,0.0,0.0,1.4753,1.4753,0.0,0.0,1.5004,1.5004,0.0,1.493,1.5208,1.5371,1.6712,1.9429,1.979,2.2278,2.6764,2.9057,2.9072,2.6998,2.9174,3.0214,3.0214,3.0214,3.0214,3.0214,3.0214,3.0214,3.0214,3.0214,3.0214,3.0214,3.0214,3.0214,3.0214,0.0,0.0,1.2667,1.2667,1.2743,1.2803,1.2803,1.3101,1.3597,1.4186,1.4682,1.5138,1.5616,1.5805,1.573,1.5547,1.5425,1.5309,1.5187,1.5181,1.5181,1.5181,1.5181,1.5167,1.5133,1.5025,1.4896,1.474,1.474,1.474,1.474,1.474,1.4801,1.4916,1.4916,1.4997,1.514,1.5255,1.5323,1.5371,1.552,1.5588,1.5601,1.5744,1.5805,1.5825,1.5974,1.6029,1.6035,1.6069,1.6083,1.6083,1.6083,1.6056,1.5988,1.5805,1.5669,1.5554,1.5398,1.5357,1.533,1.5215,1.5181,1.5181,1.5181,1.5181,1.5181,1.5181,1.5181,1.5181,1.5181,1.5181,1.5181,1.5181,1.5181,1.5167,1.514,1.516,1.5153,0.0,1.5018,1.4957,1.4916,1.4916,1.4916,0.0,0.0,1.5309,1.5309,1.5384,1.5459,1.5527,1.5784,1.7104,1.951,2.1581,2.4017,2.6912,2.9151,2.9072,2.6998,2.9174,3.0214,3.0214,3.0214,3.0214,3.0214,3.0214,3.0214,3.0214,3.0214,3.0214,3.0214,3.0214,3.0214,3.0214,1.2694,1.2743,1.2786,1.2786,1.2846,1.289,1.289,1.339,1.3889,1.4476,1.4981,1.5446,1.5967,1.5954,1.59,1.575,1.5601,1.5479,1.5398,1.5391,1.5357,1.5289,1.5289,1.5255,1.5181,1.5106,1.5025,1.4943,1.4943,1.4943,1.4943,1.4943,1.5025,1.5174,1.5174,1.5255,1.5398,1.5479,1.5513,1.5527,1.5676,1.5737,1.575,1.59,1.5954,1.5967,1.6049,1.6083,1.6083,1.6083,1.6083,1.6083,1.6083,1.6083,1.6069,1.5981,1.5852,1.5689,1.5472,1.5411,1.5371,1.5221,1.5181,1.5181,1.5181,1.5181,1.5181,1.5181,1.5181,1.5181,1.5181,1.5181,1.5181,1.5181,1.5242,1.5289,1.5289,1.535,1.5391,1.5391,1.5323,1.5276,1.5276,1.5276,1.5276,1.5276,1.5486,0.0,1.5615,1.5757,1.5839,1.5839,1.6976,1.8789,2.1326,2.3765,2.5635,2.6896,2.8144,2.8042,2.6998,2.9174,3.0214,3.0214,3.0214,3.0214,3.0214,3.0214,3.0214,3.0214,3.0214,3.0214,3.0214,3.0214,3.0214,3.0214,1.289,1.289,1.289,1.289,1.289,1.289,1.289,1.339,1.3983,1.4476,1.5081,1.5578,1.6083,1.6083,1.6029,1.59,1.5778,1.5689,1.5642,1.5642,1.5581,1.5452,1.5445,1.5384,1.5255,1.5248,1.5248,1.5248,1.5248,1.5248,1.5248,1.5248,1.5323,1.5445,1.5445,1.552,1.5642,1.5662,1.5669,1.5683,1.5832,1.5886,1.59,1.6035,1.6083,1.6083,1.6083,1.6083,1.6083,1.6083,1.6083,1.6083,1.6083,1.6083,1.6083,1.6083,1.5988,1.5825,1.5554,1.5445,1.5371,1.5221,1.5181,1.5181,1.5181,1.5181,1.5181,1.5181,1.5181,1.5181,1.5181,1.5181,1.5187,1.5215,1.5323,1.5418,1.5445,1.5554,1.5642,1.5642,1.5642,1.5642,1.5642,1.5655,1.5669,1.5669,1.5825,1.592,1.592,1.6069,1.6357,1.6678,1.8527,2.0933,2.3925,2.587,2.7101,2.7418,2.7101,2.7101,2.7418,2.9389,3.0214,3.0214,3.0214,3.0214,3.0214,3.0214,3.0214,3.0214,3.0214,3.0214,3.0214,3.0214,3.0214,3.0214,1.289,1.289,1.289,1.289,1.289,1.289,1.289,1.3784,1.4377,1.4476,1.5379,1.5983,1.6083,1.6083,1.6076,1.6049,1.6022,1.5906,1.5655,1.5642,1.5628,1.5601,1.5601,1.5594,1.5567,1.5567,1.5567,1.5567,1.5567,1.5567,1.5567,1.5567,1.5581,1.5601,1.5601,1.5615,1.5649,1.5771,1.5818,1.5832,1.5988,1.6049,1.6049,1.6076,1.6083,1.6083,1.6083,1.6083,1.6083,1.6083,1.6083,1.6083,1.6083,1.6083,1.6083,1.6083,1.6062,1.6008,1.5832,1.5601,1.5371,1.5221,1.5181,1.5181,1.5181,1.5181,1.5181,1.5181,1.5181,1.5181,1.5181,1.5181,1.5221,1.5357,1.5398,1.5459,1.5588,1.5622,1.5642,1.5642,1.5642,1.5642,1.5642,1.575,1.5818,1.5818,1.6083,1.6239,1.6239,1.6374,1.7319,1.9387,1.965,2.1872,2.6321,2.667,2.7827,2.9694,2.7827,2.7827,2.9694,3.0011,3.0214,3.0214,3.0214,3.0214,3.0214,3.0214,3.0214,3.0214,3.0214,3.0214,3.0214,3.0214,3.0214,3.0214,1.289,1.289,1.289,1.289,1.289,1.299,1.329,1.3983,1.4576,1.4875,1.5578,1.6083,1.6083,1.6083,1.6083,1.6083,1.6083,1.6022,1.5886,1.5879,1.5839,1.5757,1.5757,1.5716,1.5642,1.5642,1.5642,1.5642,1.5642,1.5642,1.5642,1.5642,1.5683,1.5757,1.5757,1.5798,1.5879,1.5947,1.5974,1.5981,1.6056,1.6083,1.6083,1.6083,1.6083,1.6083,1.6083,1.6083,1.6083,1.6083,1.6083,1.6083,1.6083,1.6083,1.6083,1.6083,1.6022,1.5927,1.5778,1.5581,1.5371,1.5221,1.5181,1.5181,1.5181,1.5181,1.5181,1.5181,1.5181,1.5181,1.5181,1.5248,1.533,1.5398,1.5547,1.5676,1.5744,1.5825,1.5879,1.5879,1.5879,1.5879,1.5879,1.5934,1.6008,1.6096,1.6232,1.6341,1.6422,1.6483,1.7603,2.002,2.2385,2.4727,2.6896,2.5758,2.6271,2.8348,2.6169,2.6896,3.0214,3.0214,3.0214,3.0214,3.0214,3.0214,3.0214,3.0214,3.0214,3.0214,3.0214,3.0214,3.0214,3.0214,3.0214,3.0214,1.289,1.289,1.289,1.289,1.299,1.319,1.359,1.4283,1.4875,1.528,1.5778,1.6083,1.6083,1.6083,1.6083,1.6083,1.6083,1.6083,1.6083,1.6083,1.6029,1.5913,1.5906,1.5852,1.5744,1.5744,1.5744,1.5744,1.5744,1.5744,1.5744,1.5744,1.5798,1.5906,1.5906,1.5967,1.6083,1.6083,1.6083,1.6083,1.6083,1.6083,1.6083,1.6083,1.6083,1.6083,1.6083,1.6083,1.6083,1.6083,1.6083,1.6083,1.6083,1.6083,1.6083,1.6083,1.6001,1.5872,1.573,1.5581,1.5425,1.5276,1.5208,1.5181,1.5181,1.5208,1.5235,1.5235,1.5235,1.5248,1.5282,1.5357,1.5432,1.5499,1.5703,1.5866,1.59,1.6008,1.6083,1.6083,1.6083,1.6083,1.6083,1.6083,1.6144,1.63,1.6341,1.6422,1.6564,1.6605,1.7902,2.0797,2.4847,2.7101,2.7623,2.545,2.545,2.7623,2.545,2.6384,3.0214,3.0214,3.0214,3.0214,3.0214,3.0214,3.0214,3.0214,3.0214,3.0214,3.0214,3.0214,3.0214,3.0214,3.0214,3.0214,1.289,1.289,1.289,1.289,1.329,1.369,1.369,1.4582,1.528,1.528,1.5778,1.6083,1.6083,1.6083,1.6083,1.6083,1.6083,1.6083,1.6083,1.6083,1.6076,1.6069,1.6062,1.6062,1.6049,1.6049,1.6049,1.6049,1.6049,1.6049,1.6049,1.6049,1.6056,1.6062,1.6062,1.6069,1.6083,1.6083,1.6083,1.6083,1.6083,1.6083,1.6083,1.6083,1.6083,1.6083,1.6083,1.6083,1.6083,1.6083,1.6083,1.6083,1.6083,1.6083,1.6083,1.6083,1.6076,1.6035,1.5879,1.573,1.5588,1.5432,1.5289,1.5181,1.5181,1.5289,1.5391,1.5391,1.5391,1.5438,1.5581,1.5499,1.5499,1.5778,1.5839,1.59,1.6042,1.6076,1.6083,1.6083,1.6083,1.6083,1.6083,1.6083,1.6144,1.63,1.6429,1.6571,1.6727,1.687,1.8917,2.3259,2.5645,2.7827,2.9909,2.7725,2.7725,2.9909,2.7725,2.7929,3.0214,3.0214,3.0214,3.0214,3.0214,3.0214,3.0214,3.0214,3.0214,3.0214,3.0214,3.0214,3.0214,3.0214,3.0214,3.0214,1.289,1.289,1.289,1.289,1.339,1.379,1.4183,1.4782,1.5379,1.5778,1.5983,1.6083,1.6083,1.6083,1.6083,1.6083,1.6083,1.6083,1.6083,1.6083,1.6083,1.6083,1.6083,1.6083,1.6083,1.6083,1.6083,1.6083,1.6083,1.6083,1.6083,1.6083,1.6083,1.6083,1.6083,1.6083,1.6083,1.6083,1.6083,1.6083,1.6083,1.6083,1.6083,1.6083,1.6083,1.6083,1.6083,1.6083,1.6083,1.6083,1.6083,1.6083,1.6083,1.6083,1.6083,1.6083,1.6083,1.6069,1.6008,1.5886,1.5737,1.5588,1.5506,1.5466,1.5466,1.5513,1.5554,1.5554,1.5479,1.5459,1.5608,1.5594,1.5622,1.5818,1.5934,1.6015,1.6076,1.6083,1.6083,1.6083,1.6083,1.6083,1.6083,1.6171,1.6286,1.6429,1.6578,1.6734,1.6883,1.9527,2.245,2.5553,2.6487,2.6691,2.6066,2.5245,2.5245,2.6066,2.6691,2.8042,3.0214,3.0214,3.0214,3.0214,3.0214,3.0214,3.0214,3.0214,3.0214,3.0214,3.0214,3.0214,3.0214,3.0214,3.0214,3.0214,1.2944,1.2917,1.289,1.289,1.3484,1.4083,1.4476,1.5081,1.5678,1.6083,1.6083,1.6083,1.6083,1.6083,1.6083,1.6083,1.6083,1.6083,1.6083,1.6083,1.6083,1.6083,1.6083,1.6083,1.6083,1.6083,1.6083,1.6083,1.6083,1.6083,1.6083,1.6083,1.6083,1.6083,1.6083,1.6083,1.6083,1.6083,1.6083,1.6083,1.6083,1.6083,1.6083,1.6083,1.6083,1.6083,1.6083,1.6083,1.6083,1.6083,1.6083,1.6083,1.6083,1.6083,1.6083,1.6083,1.6083,1.6083,1.6083,1.6001,1.5893,1.5744,1.5676,1.5642,1.5642,1.5676,1.571,1.571,1.5622,1.5594,1.575,1.5737,1.5757,1.59,1.6015,1.6083,1.6083,1.6083,1.6083,1.6083,1.6083,1.6083,1.6083,1.6218,1.6368,1.651,1.6666,1.7127,1.8006,2.1527,2.4309,2.5861,2.6589,2.5861,2.3587,2.4309,2.4926,2.5656,2.7203,2.8767,3.0214,3.0214,3.0214,3.0214,3.0214,3.0214,3.0214,3.0214,3.0214,3.0214,3.0214,3.0214,3.0214,3.0214,3.0214,3.0214,1.3075,1.2971,1.289,1.289,1.3784,1.4476,1.4476,1.5379,1.6083,1.6083,1.6083,1.6083,1.6083,1.6083,1.6083,1.6083,1.6083,1.6083,1.6083,1.6083,1.6083,1.6083,1.6083,1.6083,1.6083,1.6083,1.6083,1.6083,1.6083,1.6083,1.6083,1.6083,1.6083,1.6083,1.6083,1.6083,1.6083,1.6083,1.6083,1.6083,1.6083,1.6083,1.6083,1.6083,1.6083,1.6083,1.6083,1.6083,1.6083,1.6083,1.6083,1.6083,1.6083,1.6083,1.6083,1.6083,1.6083,1.6083,1.6083,1.6083,1.6042,1.5893,1.575,1.5642,1.5642,1.575,1.5852,1.5852,1.5852,1.59,1.6056,1.5954,1.5906,1.6056,1.6083,1.6083,1.6083,1.6083,1.6083,1.6083,1.6083,1.6083,1.6083,1.6225,1.6368,1.651,1.6666,1.7736,2.0167,2.245,2.3587,2.3691,2.5758,2.5861,2.3691,2.5861,2.8031,3.0214,3.0214,3.0214,3.0214,3.0214,3.0214,3.0214,3.0214,3.0214,3.0214,3.0214,3.0214,3.0214,3.0214,3.0214,3.0214,3.0214,3.0214,3.0214,1.3189,1.3096,1.3116,1.3514,1.4143,1.4676,1.4981,1.5678,1.6083,1.6083,1.6083,1.6083,1.6083,1.6083,1.6083,1.6083,1.6083,1.6083,1.6083,1.6083,1.6083,1.6083,1.6083,1.6083,1.6083,1.6083,1.6083,1.6083,1.6083,1.6083,1.6083,1.6083,1.6083,1.6083,1.6083,1.6083,1.6083,1.6083,1.6083,1.6083,1.6083,1.6083,1.6083,1.6083,1.6083,1.6083,1.6083,1.6083,1.6083,1.6083,1.6083,1.6083,1.6083,1.6083,1.6083,1.6083,1.6083,1.6083,1.6083,1.6083,1.6069,1.6029,1.5981,1.5947,1.5947,1.5981,1.6015,1.6015,1.5927,1.59,1.6056,1.5954,1.5906,1.6056,1.6083,1.6083,1.6083,1.6083,1.6083,1.6083,1.6083,1.6123,1.6232,1.6374,1.6524,1.6673,1.6822,1.8581,2.245,2.3278,2.5039,2.8144,2.7418,2.7316,2.8246,2.7316,2.7203,2.7929,2.9491,3.0214,3.0214,3.0214,3.0214,3.0214,3.0214,3.0214,3.0214,3.0214,3.0214,3.0214,3.0214,3.0214,3.0214,3.0214,3.0214,3.0214,1.3308,1.3421,1.365,1.3949,1.4446,1.4963,1.5364,1.5817,1.6083,1.6083,1.6083,1.6083,1.6083,1.6083,1.6083,1.6083,1.6083,1.6083,1.6083,1.6083,1.6083,1.6083,1.6083,1.6083,1.6083,1.6083,1.6083,1.6083,1.6083,1.6083,1.6083,1.6083,1.6083,1.6083,1.6083,1.6083,1.6083,1.6083,1.6083,1.6083,1.6083,1.6083,1.6083,1.6083,1.6083,1.6083,1.6083,1.6083,1.6083,1.6083,1.6083,1.6083,1.6083,1.6083,1.6083,1.6083,1.6083,1.6083,1.6083,1.6083,1.6083,1.6083,1.6083,1.6083,1.6083,1.6083,1.6083,1.6083,1.6008,1.5974,1.6062,1.6008,1.5974,1.6069,1.6083,1.6083,1.6083,1.6083,1.6083,1.6083,1.6083,1.6144,1.6293,1.6435,1.6612,1.6822,1.7754,1.9871,2.3381,2.4412,2.6169,2.8767,2.845,2.845,2.8869,2.845,2.8246,2.8246,2.9593,3.0214,3.0214,3.0214,3.0214,3.0214,3.0214,3.0214,3.0214,3.0214,3.0214,3.0214,3.0214,3.0214,3.0214,3.0214,3.0214,3.0214,1.3439,1.3755,1.4082,1.4185,1.4896,1.5512,1.5613,1.5897,1.6103,1.6103,1.609,1.6083,1.6083,1.6083,1.6083,1.6083,1.6083,1.6083,1.6083,1.6083,1.6083,1.6083,1.6083,1.6083,1.6083,1.6083,1.6083,1.6083,1.6083,1.6083,1.6083,1.6083,1.6083,1.6083,1.6083,1.6083,1.6083,1.6083,1.6083,1.6083,1.6083,1.6083,1.6083,1.6083,1.6083,1.6083,1.6083,1.6083,1.6083,1.6083,1.6083,1.6083,1.6083,1.6083,1.6083,1.6083,1.6083,1.6083,1.6083,1.6083,1.6083,1.6083,1.6083,1.6083,1.6083,1.6083,1.6083,1.6083,1.6083,1.6083,1.6083,1.6083,1.6083,1.6083,1.6083,1.6083,1.6083,1.6083,1.6083,1.6083,1.6096,1.6164,1.6313,1.6469,1.668,1.6958,1.9044,2.131,2.3484,2.5656,2.6998,2.7203,2.9174,2.9276,2.7203,2.9174,3.0214,3.0214,3.0214,3.0214,3.0214,3.0214,3.0214,3.0214,3.0214,3.0214,3.0214,3.0214,3.0214,3.0214,3.0214,3.0214,3.0214,3.0214,3.0214,3.0214,1.3564,1.3884,1.4423,1.4843,1.5346,1.5769,1.617,1.6253,1.6259,1.6259,1.6157,1.6083,1.6083,1.6083,1.6083,1.6083,1.6083,1.6083,1.6083,1.6083,1.6083,1.6083,1.6083,1.6083,1.6083,1.6083,1.6083,1.6083,1.6083,1.6083,1.6083,1.6083,1.6083,1.6083,1.6083,1.6083,1.6083,1.6083,1.6083,1.6083,1.6083,1.6083,1.6083,1.6083,1.6083,1.6083,1.6083,1.6083,1.6083,1.6083,1.6083,1.6083,1.6083,1.6083,1.6083,1.6083,1.6083,1.6083,1.6083,1.6083,1.6083,1.6083,1.6083,1.6083,1.6083,1.6083,1.6083,1.6083,1.6083,1.6083,1.6083,1.6083,1.6083,1.6083,1.6083,1.6083,1.6083,1.6083,1.6083,1.6083,1.6185,1.632,1.6463,1.672,1.691,1.6978,1.9044,2.131,2.3484,2.5656,2.7725,2.9389,2.9909,3.0011,2.9491,3.0011,3.0214,3.0214,3.0214,3.0214,3.0214,3.0214,3.0214,3.0214,3.0214,3.0214,3.0214,3.0214,3.0214,3.0214,3.0214,3.0214,3.0214,3.0214,3.0214,3.0214,1.3924,1.4394,1.4976,1.5499,1.5905,1.622,1.6529,1.6503,1.6408,1.6408,1.6341,1.6266,1.6198,1.6191,1.6157,1.609,1.6083,1.6083,1.6083,1.6083,1.6083,1.6083,1.6083,1.6083,1.6083,1.6083,1.6083,1.6083,1.6083,1.6083,1.6083,1.6083,1.6083,1.6083,1.6083,1.6083,1.6083,1.6083,1.6083,1.6083,1.6083,1.6083,1.6083,1.6083,1.6083,1.6083,1.6083,1.6083,1.6083,1.6083,1.6083,1.6083,1.6083,1.6083,1.6083,1.6083,1.6083,1.6083,1.6083,1.6083,1.6083,1.6083,1.6083,1.6083,1.6083,1.6083,1.6083,1.6083,1.6083,1.6083,1.6083,1.6083,1.6083,1.6083,1.6083,1.6083,1.6083,1.6083,1.6083,1.6083,1.6218,1.6395,1.6612,1.6842,1.6978,1.6978,2.0079,2.2347,2.3587,2.6691,2.8971,3.0112,3.0214,3.0214,3.0214,3.0214,3.0214,3.0214,3.0214,3.0214,3.0214,3.0214,3.0214,3.0214,3.0214,3.0214,3.0214,3.0214,3.0214,3.0214,3.0214,3.0214,3.0214,3.0214,3.0214,3.0214,1.4346,1.4973,1.5605,1.6026,1.6452,1.6788,1.6788,1.6659,1.6558,1.6558,1.6537,1.6476,1.6361,1.6327,1.6259,1.613,1.6096,1.6083,1.6083,1.6083,1.6083,1.6083,1.6083,1.6083,1.6083,1.6083,1.6083,1.6083,1.6083,1.6083,1.6083,1.6083,1.6083,1.6083,1.6083,1.6083,1.6083,1.6083,1.6083,1.6083,1.6083,1.6083,1.6083,1.6083,1.6083,1.6083,1.6083,1.6083,1.6083,1.6083,1.6083,1.6083,1.6083,1.6083,1.6083,1.6083,1.6083,1.6083,1.6083,1.6083,1.6083,1.6083,1.6083,1.6083,1.6083,1.6083,1.6083,1.6083,1.6083,1.6083,1.6083,1.6083,1.6083,1.6083,1.6083,1.6083,1.6083,1.6083,1.609,1.6117,1.6279,1.649,1.6761,1.6904,1.6978,1.6978,2.1111,2.3381,2.3071,2.7623,3.0011,2.9694,3.0011,3.0214,3.0214,3.0214,3.0214,3.0214,3.0214,3.0214,3.0214,3.0214,3.0214,3.0214,3.0214,3.0214,3.0214,3.0214,3.0214,3.0214,3.0214,3.0214,3.0214,3.0214,3.0214,3.0214,1.4346,1.5289,1.6026,1.6131,1.6538,1.6951,1.6951,1.6815,1.672,1.672,1.6605,1.6517,1.6497,1.6381,1.63,1.6279,1.6157,1.6083,1.6083,1.6083,1.6083,1.6083,1.6083,1.6083,1.6083,1.6083,1.6083,1.6083,1.6083,1.6083,1.6083,1.6083,1.6083,1.6083,1.6083,1.6083,1.6083,1.6083,1.6083,1.6083,1.6083,1.6083,1.6083,1.6083,1.6083,1.6083,1.6083,1.6083,1.6083,1.6083,1.6083,1.6083,1.6083,1.6083,1.6083,1.6083,1.6083,1.6083,1.6083,1.6083,1.6083,1.6083,1.6083,1.6083,1.6083,1.6083,1.6083,1.6083,1.6083,1.6083,1.6083,1.6083,1.6083,1.6083,1.6083,1.6083,1.6083,1.6083,1.613,1.6259,1.6524,1.6761,1.6931,1.6971,1.6978,1.6978,2.1111,2.2761,2.0903,2.6794,2.9276,2.7418,2.9174,3.0214,3.0214,3.0214,3.0214,3.0214,3.0214,3.0214,3.0214,3.0214,3.0214,3.0214,3.0214,3.0214,3.0214,3.0214,3.0214,3.0214,3.0214,3.0214,3.0214,3.0214,3.0214,3.0214,1.4868,1.55,1.6236,1.6558,1.6768,1.6978,1.6978,1.6924,1.6876,1.6876,1.6822,1.6748,1.6659,1.6517,1.6395,1.632,1.6246,1.6171,1.609,1.6083,1.6083,1.6083,1.6083,1.6083,1.6083,1.6083,1.6083,1.6083,1.6083,1.6083,1.6083,1.6083,1.6083,1.6083,1.6083,1.6083,1.6083,1.6083,1.6083,1.6083,1.6083,1.6083,1.6083,1.6083,1.6083,1.6083,1.6083,1.6083,1.6083,1.6083,1.6083,1.6083,1.6083,1.6083,1.6083,1.6083,1.6083,1.6083,1.6083,1.6083,1.6083,1.6083,1.6083,1.6083,1.6083,1.6083,1.6083,1.6083,1.6083,1.6083,1.6083,1.6083,1.6083,1.6083,1.6083,1.6083,1.6083,1.6083,1.6171,1.6402,1.6619,1.6809,1.6965,1.6978,1.6978,1.6978,2.1111,2.3174,2.2243,2.7305,2.9796,2.8767,2.9694,3.0214,3.0214,3.0214,3.0214,3.0214,3.0214,3.0214,3.0214,3.0214,3.0214,3.0214,3.0214,3.0214,3.0214,3.0214,3.0214,3.0214,3.0214,3.0214,3.0214,3.0214,3.0214,3.0214]}]]